[[{"header":{"parameterUnit":"m.s-1","parameterCategory":1,"la1":31.0,"la2":29.5877,"lo1":-88.7671,"lo2":-86.6584,"dy":0.0162,"dx":0.0185,"nx":115,"ny":88,"refTime":"2024-02-02T06:00:00:Z","depth":0,"parameterNumber":2,"parameterNumberName":"U-component_of_WINDS"},"data":[0.0,0.0,0.0,0.0,0.0,0.0,0.0,0.0,0.0,0.0,0.0,0.0,0.0,0.0,0.0,0.0,0.0,0.0,0.0,0.0,0.0,0.0,0.0,0.0,0.0,0.0,0.0,0.0,0.0,0.0,0.0,0.0,0.0,0.0,0.0,0.0,0.0,0.0,0.0,0.0,0.0,0.0,0.0,0.0,0.0,0.0,0.0,0.0,0.0,0.0,0.0,0.0,0.0,0.0,0.0,0.0,0.0,0.0,0.0,0.0,0.0,0.0,0.0,0.0,0.0,0.0,0.0,0.0,0.0,0.0,0.0,0.0,0.0,0.0,0.0,0.0,0.0,0.0,0.0,0.0,0.0,0.0,0.0,0.0,0.0,0.0,0.0,0.0,0.0,0.0,0.0,0.0,0.0,0.0,0.0,0.0,0.0,0.0,0.0,0.0,0.0,0.0,0.0,0.0,0.0,0.0,0.0,0.0,0.0,0.0,0.0,0.0,0.0,0.0,0.0,0.0,0.0,0.0,0.0,0.0,0.0,0.0,0.0,0.0,0.0,0.0,0.0,0.0,0.0,0.0,0.0,0.0,0.0,0.0,0.0,0.0,0.0,0.0,0.0,0.0,0.0,0.0,0.0,0.0,0.0,0.0,0.0,0.0,0.0,0.0,0.0,0.0,0.0,0.0,0.0,0.0,0.0,0.0,0.0,0.0,0.0,0.0,0.0,0.0,0.0,0.0,0.0,0.0,0.0,0.0,0.0,0.0,0.0,0.0,0.0,0.0,0.0,0.0,0.0,0.0,0.0,0.0,0.0,0.0,0.0,0.0,0.0,0.0,0.0,0.0,0.0,0.0,0.0,0.0,0.0,0.0,0.0,0.0,0.0,0.0,0.0,0.0,0.0,0.0,0.0,0.0,0.0,0.0,0.0,0.0,0.0,0.0,0.0,0.0,0.0,0.0,0.0,0.0,0.0,0.0,0.0,0.0,0.0,0.0,0.0,0.0,0.0,0.0,0.0,0.0,0.0,0.0,0.0,0.0,0.0,0.0,0.0,0.0,0.0,0.0,0.0,0.0,0.0,0.0,0.0,0.0,0.0,0.0,0.0,0.0,0.0,0.0,0.0,0.0,0.0,0.0,0.0,0.0,0.0,0.0,0.0,0.0,0.0,0.0,0.0,0.0,0.0,0.0,0.0,0.0,0.0,0.0,0.0,0.0,0.0,0.0,0.0,0.0,0.0,0.0,0.0,0.0,0.0,0.0,0.0,0.0,0.0,0.0,0.0,0.0,0.0,0.0,0.0,0.0,0.0,0.0,0.0,0.0,0.0,0.0,0.0,0.0,0.0,0.0,0.0,0.0,0.0,0.0,0.0,0.0,0.0,0.0,0.0,0.0,0.0,0.0,0.0,0.0,0.0,0.0,0.0,0.0,0.0,0.0,0.0,0.0,0.0,0.0,0.0,0.0,0.0,0.0,0.0,0.0,0.0,0.0,0.0,0.0,0.0,0.0,0.0,0.0,0.0,0.0,0.0,0.0,0.0,0.0,0.0,0.0,0.0,0.0,0.0,0.0,0.0,0.0,0.0,0.0,0.0,0.0,0.0,0.0,0.0,0.0,0.0,0.0,0.0,0.0,0.0,0.0,0.0,0.0,0.0,0.0,0.0,0.0,0.0,0.0,0.0,0.0,0.0,0.0,0.0,0.0,0.0,0.0,0.0,0.0,0.0,0.0,0.0,0.0,0.0,0.0,0.0,0.0,0.0,0.0,0.0,0.0,0.0,0.0,0.0,0.0,0.0,0.0,0.0,0.0,0.0,0.0,0.0,0.0,0.0,0.0,0.0,0.0,0.0,0.0,0.0,0.0,0.0,0.0,0.0,0.0,0.0,0.0,0.0,0.0,0.0,0.0,0.0,0.0,0.0,0.0,0.0,0.0,0.0,0.0,0.0,0.0,0.0,0.0,0.0,0.0,0.0,0.0,0.0,0.0,0.0,0.0,0.0,0.0,0.0,0.0,0.0,0.0,0.0,0.0,0.0,0.0,0.0,0.0,0.0,0.0,0.0,0.0,0.0,0.0,0.0,0.0,0.0,0.0,0.0,0.0,0.0,0.0,0.0,0.0,0.0,0.0,0.0,0.0,0.0,0.0,0.0,0.0,0.0,0.0,0.0,0.0,0.0,0.0,0.0,0.0,0.0,0.0,0.0,0.0,0.0,0.0,0.0,0.0,0.0,0.0,0.0,0.0,0.0,0.0,0.0,0.0,0.0,0.0,0.0,0.0,0.0,0.0,0.0,0.0,0.0,0.0,0.0,0.0,0.0,0.0,0.0,0.0,0.0,0.0,0.0,0.0,0.0,0.0,0.0,0.0,0.0,0.0,0.0,0.0,0.0,0.0,0.0,0.0,0.0,0.0,0.0,0.0,0.0,0.0,0.0,0.0,0.0,0.0,0.0,0.0,0.0,0.0,0.0,0.0,0.0,0.0,0.0,0.0,0.0,0.0,0.0,0.0,0.0,0.0,0.0,0.0,0.0,0.0,0.0,0.0,0.0,0.0,0.0,0.0,0.0,0.0,0.0,0.0,0.0,0.0,0.0,0.0,0.0,0.0,0.0,0.0,0.0,0.0,0.0,0.0,0.0,0.0,0.0,0.0,0.0,0.0,0.0,0.0,0.0,0.0,0.0,0.0,0.0,0.0,0.0,0.0,0.0,0.0,0.0,0.0,0.0,0.0,0.0,0.0,0.0,0.0,0.0,0.0,0.0,0.0,0.0,0.0,0.0,0.0,0.0,0.0,0.0,0.0,0.0,0.0,0.0,0.0,0.0,0.0,0.0,0.0,0.0,0.0,0.0,0.0,0.0,0.0,0.0,0.0,0.0,0.0,0.0,0.0,0.0,0.0,0.0,0.0,0.0,0.0,0.0,0.0,0.0,0.0,0.0,0.0,0.0,0.0,0.0,0.0,0.0,0.0,0.0,0.0,0.0,0.0,0.0,0.0,0.0,0.0,0.0,0.0,0.0,0.0,0.0,0.0,0.0,0.0,0.0,0.0,0.0,0.0,0.0,0.0,0.0,0.0,0.0,0.0,0.0,0.0,0.0,0.0,0.0,0.0,0.0,0.0,0.0,0.0,0.0,0.0,0.0,0.0,0.0,0.0,0.0,0.0,0.0,0.0,0.0,0.0,0.0,0.0,0.0,0.0,0.0,0.0,0.0,0.0,0.0,0.0,0.0,0.0,0.0,0.0,0.0,0.0,0.0,0.0,0.0,0.0,0.0,0.0,0.0,0.0,0.0,0.0,0.0,0.0,0.0,0.0,0.0,0.0,0.0,0.0,0.0,0.0,0.0,0.0,0.0,0.0,0.0,0.0,0.0,0.0,0.0,0.0,0.0,0.0,0.0,0.0,0.0,0.0,0.0,0.0,0.0,0.0,0.0,0.0,0.0,0.0,0.0,0.0,0.0,0.0,0.0,0.0,0.0,0.0,0.0,0.0,0.0,0.0,0.0,0.0,0.0,0.0,0.0,0.0,0.0,0.0,0.0,0.0,0.0,0.0,0.0,0.0,0.0,0.0,0.0,0.0,0.0,0.0,0.0,0.0,0.0,0.0,0.0,0.0,0.0,0.0,0.0,0.0,0.0,0.0,0.0,0.0,0.0,0.0,0.0,0.0,0.0,0.0,0.0,0.0,0.0,0.0,0.0,0.0,0.0,0.0,0.0,0.0,0.0,0.0,0.0,0.0,0.0,0.0,0.0,0.0,0.0,0.0,0.0,0.0,0.0,0.0,0.0,0.0,0.0,0.0,0.0,0.0,0.0,0.0,0.0,0.0,0.0,0.0,0.0,0.0,0.0,0.0,0.0,0.0,0.0,0.0,0.0,0.0,0.0,0.0,0.0,0.0,0.0,0.0,0.0,0.0,0.0,0.0,0.0,0.0,0.0,0.0,0.0,0.0,0.0,0.0,0.0,0.0,0.0,0.0,0.0,0.0,0.0,0.0,0.0,0.0,0.0,0.0,0.0,0.0,0.0,0.0,0.0,0.0,0.0,0.0,0.0,0.0,0.0,0.0,0.0,0.0,0.0,0.0,0.0,0.0,0.0,0.0,0.0,0.0,0.0,0.0,0.0,0.0,0.0,0.0,0.0,0.0,0.0,0.0,0.0,0.0,0.0,0.0,0.0,0.0,0.0,0.0,0.0,0.0,0.0,0.0,0.0,0.0,0.0,0.0,0.0,0.0,0.0,0.0,0.0,0.0,0.0,0.0,0.0,0.0,0.0,0.0,0.8934,0.0,0.0,0.0,0.0,0.0,0.0,0.0,0.0,0.0,0.0,0.0,0.0,0.0,0.0,0.0,0.0,0.0,0.0,0.0,0.0,0.0,0.0,0.0,0.0,0.0,0.0,0.0,0.0,0.0,0.0,0.0,0.0,0.0,0.0,0.0,0.0,0.0,0.0,0.0,0.0,0.0,0.0,0.0,0.0,0.0,0.0,0.0,0.0,0.0,0.0,0.0,0.0,0.0,0.0,0.0,0.0,0.0,0.0,0.0,0.0,0.0,0.0,0.0,0.0,0.0,0.0,0.0,0.0,0.0,0.0,0.0,0.0,0.0,0.0,0.0,0.0,0.0,0.0,0.0,0.0,0.0,0.0,0.0,0.0,0.0,0.0,0.0,0.0,0.0,0.0,0.0,0.0,0.0,0.0,0.0,0.0,0.0,0.0,0.0,0.0,0.0,0.0,0.0,0.0,0.0,0.0,0.0,0.0,0.0,0.0,0.6446,0.746,0.8277,0.8726,0.8769,0.0,0.0,0.0,0.0,0.0,0.0,0.0,0.0,0.0,0.0,0.0,0.0,0.0,0.0,0.0,0.0,0.0,0.0,0.0,0.0,0.0,0.0,0.0,0.0,0.0,0.0,0.0,0.0,0.0,0.0,0.0,0.0,0.0,0.0,0.0,0.0,0.0,0.0,0.0,0.0,0.0,0.0,0.0,0.0,0.0,0.0,0.0,0.0,0.0,0.0,0.0,0.0,0.0,0.0,0.0,0.0,0.0,0.0,0.0,0.0,0.0,0.0,0.0,0.0,0.0,0.0,0.0,0.0,0.0,0.0,0.0,0.0,0.0,0.0,0.0,0.0,0.0,0.0,0.0,0.0,0.0,0.0,0.0,0.0,0.0,0.0,0.0,0.0,0.0,0.0,0.0,0.0,0.0,0.0,0.0,0.0,0.0,0.0,0.0,0.0,0.0,0.0,0.0,0.0,0.0,0.0,0.0,0.0,0.0,0.0,0.0,0.0,0.8778,0.8949,0.8787,0.0,0.0,0.0,0.0,0.0,0.0,0.0,0.0,0.0,0.0,0.0,0.0,0.0,0.0,0.0,0.0,0.0,0.0,0.0,0.0,0.0,0.0,0.0,0.0,0.0,0.0,0.0,0.0,0.0,0.0,0.0,0.0,0.0,0.0,0.0,0.0,0.0,0.0,0.0,0.0,0.0,0.0,0.0,0.0,0.0,0.0,0.0,0.0,0.0,0.0,0.0,0.0,0.0,0.0,0.0,0.0,0.0,0.0,0.0,0.0,0.0,0.0,0.0,0.0,0.0,0.0,0.0,0.0,0.0,0.0,0.0,0.0,0.0,0.0,0.0,0.0,0.0,0.0,0.0,0.0,0.0,0.0,0.0,0.0,0.0,0.0,0.0,0.0,0.0,0.0,0.0,0.0,0.0,0.0,0.0,0.0,0.0,0.0,0.0,0.0,0.0,0.0,0.0,0.0,0.0,0.0,0.0,0.0,0.0,0.0,0.7538,1.0744,1.0258,0.0,0.8789,0.0,0.0,0.0,0.0,0.0,0.0,0.0,0.0,0.0,0.0,0.0,0.0,0.0,0.0,0.0,0.0,0.0,0.0,0.0,0.0,0.0,0.0,0.0,0.0,0.0,0.0,0.0,0.0,0.0,0.0,0.0,0.0,0.0,0.0,0.0,0.0,0.0,0.0,0.0,0.0,0.0,0.0,0.0,0.0,0.0,0.0,0.0,0.0,0.0,0.0,0.0,0.0,0.0,0.0,0.0,0.0,0.0,0.0,0.0,0.0,0.0,0.0,0.0,0.0,0.0,0.0,0.0,0.0,0.0,0.0,0.0,0.0,0.0,0.0,0.0,0.0,0.0,0.0,0.0,0.0,0.0,0.0,0.0,0.0,0.0,0.0,0.0,0.0,0.0,0.0,0.0,0.0,0.0,0.0,0.0,0.0,0.0,0.0,0.0,0.0,0.0,0.0,0.0,0.0,0.0,0.0,0.0,0.0,0.0,0.0,0.7142,0.9659,0.9424,0.8873,0.0,0.0,0.0,0.0,0.0,0.0,0.0,0.0,0.0,0.0,0.0,0.0,0.0,0.0,0.0,0.0,0.0,0.0,0.0,0.0,0.0,0.0,0.0,0.0,0.0,0.0,0.0,0.0,0.0,0.0,0.0,0.0,0.0,0.0,0.0,0.0,0.0,0.0,0.0,0.0,0.0,0.0,0.0,0.0,0.0,0.0,0.0,0.0,0.0,0.0,0.0,0.0,0.0,0.0,0.0,0.0,0.0,0.0,0.0,0.0,0.0,0.0,0.0,0.0,0.0,0.0,0.0,0.0,0.0,0.0,0.0,0.0,0.0,0.0,0.0,0.0,0.0,0.0,0.0,0.0,0.0,0.0,0.0,0.0,0.0,0.0,0.0,0.0,0.0,0.0,0.0,0.0,0.0,0.0,0.0,0.0,0.0,0.0,0.0,0.0,0.0,0.0,0.0,0.0,0.0,0.0,0.0,0.0,0.0,0.0,0.6099,0.6806,0.8575,0.8697,0.8414,0.7852,0.0,0.0,0.0,0.0,0.0,0.0,0.0,0.0,0.0,0.0,0.0,0.0,0.0,0.0,0.0,0.0,0.0,0.0,0.0,0.0,0.0,0.0,0.0,0.0,0.0,0.0,0.0,0.0,0.0,0.0,0.0,0.0,0.0,0.0,0.0,0.0,0.0,0.0,0.0,0.0,0.0,0.0,0.0,0.0,0.0,0.0,0.0,0.0,0.0,0.0,0.0,0.0,0.0,0.0,0.0,0.0,0.0,0.0,0.0,0.0,0.0,0.0,0.0,0.0,0.0,0.0,0.0,0.0,0.0,0.0,0.0,0.0,0.0,0.0,0.0,0.0,0.0,0.0,0.0,0.0,0.0,0.0,0.0,0.0,0.0,0.0,0.0,0.0,0.0,0.0,0.0,0.0,0.0,0.0,0.0,0.0,0.0,0.0,0.0,0.0,0.0,0.0,0.0,0.0,0.0,0.0,0.0,0.0,1.0228,0.7575,0.6883,0.8608,0.8694,0.8679,0.0,0.0,0.0,0.0,0.0,0.0,0.0,0.0,0.0,0.0,0.0,0.0,0.0,0.0,0.0,0.0,0.0,0.0,0.0,0.0,0.0,0.0,0.0,0.0,0.0,0.0,0.0,0.0,0.0,0.0,0.0,0.0,0.0,0.0,0.0,0.0,0.0,0.0,0.0,0.0,0.0,0.0,0.0,0.0,0.0,0.0,0.0,0.0,0.0,0.0,0.0,0.0,0.0,0.0,0.0,0.0,0.0,0.0,0.0,0.0,0.0,0.0,0.0,0.0,0.0,0.0,0.0,0.0,0.0,0.0,0.0,0.0,0.0,0.0,0.0,0.0,0.0,0.0,0.0,0.0,0.0,0.0,0.0,0.0,0.0,0.0,0.0,0.0,0.0,0.0,0.0,0.0,0.0,0.0,0.0,0.0,0.0,0.0,0.0,0.0,0.0,0.0,0.0,0.0,0.0,0.0,0.0,0.0,0.0,0.7652,0.8237,0.8231,0.7782,0.8332,0.8347,0.0,0.0,0.0,0.0,0.0,0.0,0.0,0.0,0.0,0.0,0.0,0.0,0.0,0.0,0.0,0.0,0.0,0.0,0.0,0.0,0.0,0.0,0.0,0.0,0.0,0.0,0.0,0.0,0.0,0.0,0.0,0.0,0.0,0.0,0.0,0.0,0.0,0.0,0.0,0.0,0.0,0.0,0.0,0.0,0.0,0.0,0.0,0.0,0.0,0.0,0.0,0.0,0.0,0.0,0.0,0.0,0.0,0.0,0.0,0.0,0.0,0.0,0.0,0.0,0.0,0.0,0.0,0.0,0.0,0.0,0.0,0.0,0.0,0.0,0.0,0.0,0.0,0.0,0.0,0.0,0.0,0.0,0.0,0.0,0.0,0.0,0.0,0.0,0.0,0.0,0.0,0.0,0.0,0.0,0.0,0.0,0.0,0.0,0.0,0.0,0.0,0.0,0.0,0.0,0.0,0.0,0.0,0.0,0.0,0.6818,0.0,0.9329,0.7365,0.812,0.8066,0.0,0.0,0.0,0.0,0.0,0.0,0.0,0.0,0.0,0.0,0.0,0.0,0.0,0.0,0.0,0.0,0.0,0.0,0.0,0.0,0.0,0.0,0.0,0.0,0.0,0.0,0.0,0.0,0.0,0.0,0.0,0.0,0.0,0.0,0.0,0.0,0.0,0.0,0.0,0.0,0.0,0.0,0.0,0.0,0.0,0.0,0.0,0.0,0.0,0.0,0.0,0.0,0.0,0.0,0.0,0.0,0.0,0.0,0.0,0.0,0.0,0.0,0.0,0.0,0.0,0.0,0.0,0.0,0.0,0.0,0.0,0.0,0.0,0.0,0.0,0.0,0.0,0.0,0.0,0.0,0.0,0.0,0.0,0.0,0.0,0.0,0.0,0.0,0.0,0.0,0.0,0.0,0.0,0.0,0.0,0.0,0.0,0.0,0.0,0.0,0.0,0.0,0.0,0.0,0.0,0.0,0.0,0.0,0.6685,0.8435,1.0135,0.9838,0.7474,0.8133,0.7851,0.0,0.0,0.0,0.0,0.0,0.0,0.0,0.0,0.0,0.0,0.0,0.0,0.0,0.0,0.0,0.0,0.0,0.0,0.0,0.0,0.0,0.0,0.0,0.0,0.0,0.0,0.0,0.0,0.0,0.0,0.0,0.0,0.0,0.0,0.0,0.0,0.0,0.0,0.0,0.0,0.0,0.0,0.0,0.0,0.0,0.0,0.0,0.0,0.0,0.0,0.0,0.0,0.0,0.0,0.0,0.0,0.0,0.0,0.0,0.0,0.0,0.0,0.0,0.0,0.0,0.0,0.0,0.0,0.0,0.0,0.0,0.0,0.0,0.0,0.0,0.0,0.0,0.0,0.0,0.0,0.0,0.0,0.0,0.0,0.0,0.0,0.0,0.0,0.0,0.0,0.0,0.0,0.0,0.0,0.0,0.0,0.0,0.0,0.0,0.0,0.0,0.0,0.0,0.0,0.0,0.0,0.0,0.0,0.0,0.8359,0.9389,0.9823,0.9552,0.8027,0.7641,0.0,0.0,0.0,0.0,0.0,0.0,0.0,0.0,0.0,0.0,0.0,0.0,0.0,0.0,0.0,0.0,0.0,0.0,0.0,0.0,0.0,0.0,0.0,0.0,0.0,0.0,0.0,0.0,0.0,0.0,0.0,0.0,0.0,0.0,0.0,0.0,0.0,0.0,0.0,0.0,0.0,0.0,0.0,0.0,0.0,0.0,0.0,0.0,0.0,0.0,0.0,0.0,0.0,0.0,0.0,0.0,0.0,0.0,0.0,0.0,0.0,0.0,0.0,0.0,0.0,0.0,0.0,0.0,0.0,0.0,0.0,0.0,0.0,0.0,0.0,0.0,0.0,0.0,0.0,0.0,0.0,0.0,0.0,0.0,0.0,0.0,0.0,0.0,0.0,0.0,0.0,0.0,0.0,0.0,0.0,0.0,0.0,0.0,0.0,0.0,0.0,0.0,0.0,0.0,0.0,0.0,0.0,0.0,0.0,0.8117,0.8394,0.88,0.9313,0.7411,0.7102,0.8598,0.0,0.0,0.0,0.0,0.0,0.0,0.0,0.0,0.0,0.0,0.0,0.0,0.0,0.0,0.0,0.0,0.0,0.0,0.0,0.0,0.0,0.0,0.0,0.0,0.0,0.0,0.0,0.0,0.0,0.0,0.0,0.0,0.0,0.0,0.0,0.0,0.0,0.0,0.0,0.0,0.0,0.0,0.0,0.0,0.0,0.0,0.0,0.0,0.0,0.0,0.0,0.0,0.0,0.0,0.0,0.0,0.0,0.0,0.0,0.0,0.0,0.0,0.0,0.0,0.0,0.0,0.0,0.0,0.0,0.0,0.0,0.0,0.0,0.0,0.0,0.0,0.0,0.0,0.0,0.0,0.0,0.0,0.0,0.0,0.0,0.0,0.0,0.0,0.0,0.0,0.0,0.0,0.0,0.0,0.0,0.0,0.0,0.0,0.0,0.0,0.0,0.0,0.0,0.0,0.0,0.0,0.0,0.0,0.7692,0.7202,0.712,0.7444,0.6548,0.6429,0.0,0.0,0.0,0.0,0.0,0.0,0.0,0.0,0.0,0.0,0.0,0.0,0.0,0.0,0.0,0.0,0.0,0.0,0.0,0.0,0.0,0.0,0.0,0.0,0.0,0.0,0.0,0.0,0.0,0.0,0.0,0.0,0.0,0.0,0.0,0.0,0.0,0.0,0.0,0.0,0.0,0.0,0.0,0.0,0.0,0.0,0.0,0.0,0.0,0.0,0.0,0.0,0.0,0.0,0.0,0.0,0.0,0.0,0.0,0.0,0.0,0.0,0.0,0.0,0.0,0.0,0.0,0.0,0.0,0.0,0.0,0.0,0.0,0.0,0.0,0.0,0.0,0.0,0.0,0.0,0.0,0.0,0.0,0.0,0.0,0.0,0.0,0.0,0.0,0.0,0.0,0.0,0.0,0.0,0.0,0.0,0.0,0.0,0.0,0.0,0.0,0.0,0.0,0.0,0.0,0.0,0.0,0.0,0.0,0.629,0.5585,0.66,0.9447,0.7513,0.6919,0.0,0.0,0.0,0.0,0.0,0.0,0.0,0.0,0.0,0.0,0.0,0.0,0.0,0.0,0.0,0.0,0.0,0.0,0.0,0.0,0.0,0.0,0.0,0.0,0.0,0.0,0.0,0.0,0.0,0.0,0.0,0.0,0.0,0.0,0.0,0.0,0.0,0.0,0.0,0.0,0.0,0.0,0.0,0.0,0.0,0.0,0.0,0.0,0.0,0.0,0.0,0.0,0.0,0.0,0.0,0.0,0.0,0.0,0.0,0.0,0.0,0.0,0.0,0.0,0.0,0.0,0.0,0.0,0.0,0.0,0.0,0.0,0.0,0.0,0.0,0.0,0.0,0.0,0.0,0.0,0.0,0.0,0.0,0.0,0.0,0.0,0.0,0.0,0.0,0.0,0.0,0.0,0.0,0.0,0.0,0.0,0.0,0.0,0.0,0.0,0.0,0.0,0.0,0.0,0.0,0.0,0.0,0.0,0.5199,0.5218,0.5096,0.6317,0.892,0.7173,0.6682,0.0,0.0,0.0,0.0,0.0,0.0,0.0,0.0,0.0,0.0,0.0,0.0,0.0,0.0,0.0,0.0,0.0,0.0,0.0,0.0,0.0,0.0,0.0,0.0,0.0,0.0,0.0,0.0,0.0,0.0,0.0,0.0,0.0,0.0,0.0,0.0,0.0,0.0,0.0,0.0,0.0,0.0,0.0,0.0,0.0,0.0,0.0,0.0,0.0,0.0,0.0,0.0,0.0,0.0,0.0,0.0,0.0,0.0,0.0,0.0,0.0,0.0,0.0,0.0,0.0,0.0,0.0,0.0,0.0,0.0,0.0,0.0,0.0,0.0,0.0,0.0,0.0,0.0,0.0,0.0,0.0,0.0,0.0,0.0,0.0,0.0,0.0,0.0,0.0,0.0,0.0,0.0,0.0,0.0,0.0,0.0,0.0,0.0,0.0,0.0,0.0,0.0,0.0,0.0,0.0,0.0,0.0,0.0,0.4377,0.4431,0.5232,0.5977,0.6596,0.6034,0.6113,0.0,0.0,0.0,0.0,0.0,0.0,0.0,0.0,0.0,0.0,0.0,0.0,0.0,0.0,0.0,0.0,0.0,0.0,0.0,0.0,0.0,0.0,0.0,0.0,0.0,0.0,0.0,0.0,0.0,0.0,0.0,0.0,0.0,0.0,0.0,0.0,0.0,0.0,0.0,0.0,0.0,0.0,0.0,0.0,0.0,0.0,0.0,0.0,0.0,0.0,0.0,0.0,0.0,0.0,0.0,0.0,0.0,0.0,0.0,0.0,0.0,0.0,0.0,0.0,0.0,0.0,0.0,0.0,0.0,0.0,0.0,0.0,0.0,0.0,0.0,0.0,0.0,0.0,0.0,0.0,0.0,0.0,0.0,0.0,0.0,0.0,0.0,0.0,0.0,0.0,0.0,0.0,0.0,0.0,0.0,0.0,0.0,0.0,0.0,0.0,0.0,0.0,0.0,0.0,0.0,0.0,0.0,0.0,0.3775,0.4542,0.464,0.4763,0.4936,0.5533,0.5956,0.0,0.0,0.0,0.0,0.0,0.0,0.0,0.0,0.0,0.0,0.0,0.0,0.0,0.0,0.0,0.0,0.0,0.0,0.0,0.0,0.0,0.0,0.0,0.0,0.0,0.0,0.0,0.0,0.0,0.0,0.0,0.0,0.0,0.0,0.0,0.0,0.0,0.0,0.0,0.0,0.0,0.0,0.0,0.0,0.0,0.0,0.0,0.0,1.0809,0.0,0.0,0.0,0.0,0.0,0.0,0.0,0.0,0.0,0.0,0.0,0.0,0.0,0.0,0.0,0.0,0.0,0.0,0.0,0.0,0.0,0.0,0.0,0.0,0.0,0.0,0.0,0.0,0.0,0.0,0.0,0.0,0.0,0.0,0.0,0.0,0.0,0.0,0.0,0.0,0.0,0.0,0.0,0.0,0.0,0.0,0.0,0.0,0.0,0.0,0.0,0.0,0.0,0.0,0.0,0.0,0.0,0.0,0.0,0.3911,0.4395,0.4361,0.4363,0.4417,0.494,0.5238,0.0,0.0,0.0,0.0,0.0,0.0,0.0,0.0,0.0,0.0,0.0,0.0,0.0,0.0,0.0,0.0,0.0,0.0,0.0,0.0,0.0,0.0,0.0,0.0,0.0,0.0,0.0,0.0,0.0,0.0,0.0,0.0,0.0,0.0,0.0,0.0,0.0,0.0,0.0,0.0,0.0,0.0,0.0,0.0,0.0,0.0,0.0,0.0,0.0,0.0,0.0,0.0,0.0,0.0,0.0,0.0,0.0,0.0,0.0,0.0,0.0,0.0,0.0,0.0,0.0,0.0,0.0,0.0,0.0,0.0,0.0,0.0,0.0,0.0,0.0,0.0,0.0,0.0,0.0,0.0,0.0,0.0,0.0,0.0,0.0,0.0,0.0,0.0,0.0,0.0,0.0,0.0,0.0,0.0,0.0,0.0,0.0,0.0,0.0,0.0,0.0,0.0,0.0,0.0,0.0,0.0,0.0,0.4017,0.4273,0.4214,0.4265,0.4304,0.4355,0.4406,0.4451,0.449,0.0,0.0,0.0,0.0,0.0,0.0,0.0,0.0,0.0,0.0,0.0,0.0,0.0,0.0,0.0,0.0,0.0,0.0,0.0,0.0,0.0,0.0,0.0,0.0,0.0,0.0,0.0,0.0,0.0,0.0,0.0,0.0,0.0,0.0,0.0,0.0,0.0,0.0,0.8974,0.9738,0.0,0.0,0.0,0.0,0.0,0.0,0.0,0.0,1.3641,0.0,0.0,0.0,0.0,0.0,0.0,0.0,0.0,0.0,0.0,0.0,0.0,0.0,0.0,0.0,0.0,0.0,0.0,0.0,0.0,0.0,0.0,0.0,0.0,0.0,0.0,0.0,0.0,0.0,0.0,0.0,0.0,0.0,0.0,0.0,0.0,0.0,0.0,0.0,0.0,0.0,0.0,0.0,0.0,0.0,0.0,0.0,0.0,0.0,0.0,0.0,0.0,0.0,0.0,0.0,0.0,0.6273,0.4985,0.4302,0.4288,0.4241,0.4198,0.4142,0.4162,0.4213,0.4383,0.0,0.0,0.0,0.0,0.0,0.0,0.0,0.0,0.0,0.0,0.0,0.0,0.0,0.0,0.0,0.0,0.0,0.0,0.0,0.0,0.0,0.0,0.0,0.0,0.0,0.0,0.0,0.0,0.0,0.0,0.0,0.0,0.0,0.0,0.0,0.0,0.0,0.0,0.0,1.0678,1.0953,0.0,0.0,0.0,0.0,0.0,0.0,0.0,0.0,1.291,0.0,0.0,0.0,0.0,0.0,0.0,0.0,0.0,0.0,0.0,0.0,0.0,0.0,0.0,0.0,0.0,0.0,0.0,0.0,0.0,0.0,0.0,0.0,0.0,0.0,0.0,0.0,0.0,0.0,0.0,0.0,0.0,0.0,0.0,0.0,0.0,0.0,0.0,0.0,0.0,0.0,0.0,0.0,0.0,0.0,0.0,0.0,0.0,0.0,0.0,0.0,0.0,0.0,0.0,0.0,0.6053,0.4906,0.4224,0.4148,0.4081,0.4068,0.4089,0.4123,0.4342,0.0,0.0,0.0,0.0,0.0,0.0,0.0,0.0,0.0,0.0,0.0,0.0,0.0,0.0,0.0,0.0,0.0,0.0,0.0,0.0,0.0,0.0,0.0,0.0,0.0,0.0,0.0,0.0,0.0,0.0,0.0,0.0,0.0,0.0,0.0,0.0,0.0,0.0,0.0,0.0,1.1291,1.1884,1.1374,0.0,0.0,0.0,0.0,0.0,0.0,1.3077,1.3361,0.0,0.0,0.0,0.0,0.0,0.0,0.0,0.0,0.0,0.0,0.0,0.0,0.0,0.0,0.0,0.0,0.0,0.0,0.0,0.0,0.0,0.0,0.0,0.0,0.0,0.0,0.0,0.0,0.0,0.0,0.0,0.0,0.0,0.0,0.0,0.0,0.0,0.0,0.0,0.0,0.0,0.0,0.0,0.0,0.0,0.0,0.0,0.0,0.0,0.0,0.0,0.0,0.0,0.0,0.0,0.5662,0.4699,0.414,0.4012,0.3935,0.3927,0.4055,0.409,0.4388,0.0,0.0,0.0,0.0,0.0,0.0,0.0,0.0,0.0,0.0,0.0,0.0,0.0,0.0,0.0,0.0,0.0,0.0,0.0,0.0,0.0,0.0,0.0,0.0,0.0,0.0,0.0,0.0,0.0,0.0,0.0,0.0,0.0,0.0,0.0,0.0,0.0,0.0,0.0,0.0,0.0,1.2739,1.2086,1.2204,0.0,0.0,0.0,0.0,1.3653,1.4039,0.0,0.0,0.0,0.0,0.0,0.0,0.0,0.0,0.0,0.0,0.0,0.0,0.0,0.0,0.0,0.0,0.0,0.0,0.0,0.0,0.0,0.0,0.0,0.0,0.0,0.0,0.0,0.0,0.0,0.0,0.0,0.0,0.0,0.0,0.0,0.0,0.0,0.0,0.0,0.0,0.0,0.0,0.0,0.0,0.0,0.0,0.0,0.0,0.0,0.0,0.0,0.0,0.0,0.0,0.0,0.0,0.657,0.5039,0.415,0.409,0.3906,0.3854,0.3927,0.3869,0.3965,0.0,0.0,0.0,0.0,0.0,0.0,0.0,0.0,0.0,0.0,0.0,0.0,0.0,0.0,0.0,0.0,0.0,0.0,0.0,0.0,0.0,0.0,0.0,0.0,0.0,0.0,0.0,0.0,0.0,0.0,0.0,0.0,0.0,0.0,0.0,0.0,0.0,0.0,0.0,0.0,0.0,1.2971,1.0609,1.1449,1.2104,0.0,0.0,1.3616,1.4569,1.6214,0.0,0.0,0.0,0.0,0.0,0.0,0.0,0.0,0.0,0.0,0.0,0.0,0.0,0.0,0.0,0.0,0.0,0.0,0.0,0.0,0.0,0.0,0.0,0.0,0.0,0.0,0.0,0.0,0.0,0.0,0.0,0.0,0.0,0.0,0.0,0.0,0.0,0.0,0.0,0.0,0.0,0.0,0.0,0.0,0.0,0.0,0.0,0.0,0.0,0.0,0.0,0.0,0.0,0.0,0.0,0.6697,0.658,0.5025,0.4116,0.3991,0.3788,0.3727,0.3847,0.3742,0.4161,0.0,0.0,0.0,0.0,0.0,0.0,0.0,0.0,0.0,0.0,0.0,0.0,0.0,0.0,0.0,0.0,0.0,0.0,0.0,0.0,0.0,0.0,0.0,0.0,0.0,0.0,0.0,0.0,0.0,0.0,0.0,0.0,0.0,0.0,0.0,0.0,0.0,0.0,0.0,0.0,0.0,0.0,1.3068,1.366,0.0,0.0,0.0,1.4646,1.4672,0.0,0.0,0.0,0.0,0.0,0.0,0.0,0.0,0.0,0.0,0.0,0.0,0.0,0.0,0.0,0.0,0.0,0.0,0.0,0.0,0.0,0.0,0.0,0.0,0.0,0.0,0.0,0.0,0.0,0.0,0.0,0.0,0.0,0.0,0.0,0.0,0.0,0.0,0.0,0.0,0.0,0.0,0.0,0.0,0.0,0.0,0.0,0.0,0.0,0.0,0.0,0.0,0.0,0.0,0.0,0.0,0.0,0.6475,0.4992,0.4112,0.3898,0.3705,0.3651,0.3786,0.3665,0.0,0.0,0.0,0.0,0.0,0.0,0.0,0.0,0.0,0.0,0.0,0.0,0.0,0.0,0.0,0.0,0.0,0.0,0.0,0.0,0.0,0.0,0.0,0.0,0.0,0.0,0.0,1.0009,0.0,0.0,0.0,0.0,0.0,0.0,0.0,0.0,0.0,0.0,0.0,0.0,0.0,0.0,1.5907,1.4823,1.5142,1.5067,0.0,0.0,1.5701,1.4959,1.6151,1.6989,0.0,0.0,0.0,0.0,0.0,0.0,0.0,0.0,0.0,0.0,0.0,0.0,0.0,0.0,0.0,0.0,0.0,0.0,0.0,0.0,0.0,0.0,0.0,0.0,0.0,0.0,0.0,0.0,0.0,0.0,0.0,0.0,0.0,0.0,0.0,0.0,0.0,0.0,0.0,0.0,0.0,0.0,0.0,0.0,0.0,0.0,0.0,0.0,0.0,0.0,0.0,0.0,0.0,0.0,0.0,0.645,0.4992,0.409,0.3913,0.3713,0.3651,0.3786,0.361,0.3941,0.0,0.0,0.0,0.0,0.0,0.0,0.0,0.0,0.0,0.0,0.0,0.0,0.0,0.0,0.0,0.0,0.0,0.0,0.0,0.0,0.0,0.0,0.0,0.0,0.0,0.0,0.0,0.0,0.0,0.0,0.0,0.0,0.0,0.0,0.0,0.0,0.0,0.0,0.0,0.0,0.0,1.5701,1.4007,1.4307,1.4706,0.0,0.0,1.6642,1.5932,1.9221,2.0511,1.6367,0.0,0.0,0.0,0.0,0.0,0.0,0.0,0.0,0.0,0.0,0.0,0.0,0.0,0.0,0.0,0.0,0.0,0.0,0.0,0.0,0.0,0.0,0.0,0.0,0.0,0.0,0.0,0.0,0.0,0.0,0.0,0.0,0.0,0.0,0.0,0.0,0.0,0.0,0.0,0.0,0.0,0.0,0.0,0.0,0.0,0.0,0.0,0.0,0.0,0.0,0.0,0.0,0.0,0.6411,0.6475,0.4857,0.3961,0.3832,0.364,0.3568,0.3606,0.3449,0.3826,0.0,0.0,0.0,0.0,0.0,0.0,0.0,0.0,0.0,0.0,0.0,0.0,0.0,0.0,0.0,0.0,0.0,0.0,0.0,0.0,0.0,0.0,0.0,0.0,0.0,0.0,0.0,0.0,0.8642,0.8766,0.9367,0.0,0.0,0.0,0.0,0.0,0.0,0.0,0.0,0.0,0.0,1.6791,1.6612,1.6737,0.0,0.0,1.7124,1.7714,1.742,1.8521,1.8724,1.6612,1.6141,0.0,0.0,0.0,0.0,0.0,0.0,0.0,0.0,0.0,0.0,0.0,0.0,0.0,0.0,0.0,0.0,0.0,0.0,0.0,0.0,0.0,0.0,0.0,0.0,0.0,0.0,0.0,0.0,0.0,0.0,0.0,0.0,0.0,0.0,0.0,0.0,0.0,0.0,0.0,0.0,0.0,0.0,0.0,0.0,0.0,0.0,0.0,0.0,0.0,0.0,0.0,0.0,0.6297,0.643,0.4796,0.3876,0.3756,0.36,0.3518,0.3507,0.338,0.3739,0.0,0.0,0.0,0.0,0.0,0.0,0.0,0.0,0.0,0.0,0.0,0.0,0.0,0.0,0.0,0.0,0.0,0.0,0.0,0.0,0.0,0.0,0.0,0.0,0.0,0.0,0.0,0.0,0.9329,0.955,1.0232,0.0,0.0,0.0,0.0,0.0,0.0,0.0,0.0,0.0,0.0,1.7765,1.8317,1.8304,1.8133,1.7833,1.8508,1.9008,1.8939,1.8761,1.8306,1.7258,0.0,0.0,0.0,0.0,0.0,0.0,0.0,0.0,0.0,0.0,0.0,0.0,0.0,0.0,0.0,0.0,0.0,0.0,0.0,0.0,0.0,0.0,0.0,0.0,0.0,0.0,0.0,0.0,0.0,0.0,0.5934,0.0,0.0,0.0,0.0,0.0,0.0,0.0,0.0,0.0,0.0,0.0,0.0,0.0,0.0,0.0,0.0,0.0,0.0,0.0,0.0,0.0,0.0,0.6241,0.6296,0.4843,0.3927,0.362,0.3605,0.3571,0.3507,0.337,0.3644,0.4389,0.0,0.0,0.0,0.0,0.0,0.0,0.0,0.0,0.0,0.0,0.0,0.0,0.0,0.0,0.0,0.0,0.0,0.0,0.0,0.0,0.0,0.0,0.0,0.0,0.0,0.0,1.2047,1.1525,1.0993,0.0,0.0,0.0,0.0,0.0,0.0,0.0,0.0,0.0,0.0,1.7986,1.8373,1.841,1.8344,1.8563,1.9236,2.0111,2.0654,2.0376,2.0719,2.0341,0.0,0.0,0.0,0.0,0.0,0.0,0.0,0.0,0.0,0.0,0.0,0.0,0.0,0.0,0.0,0.0,0.0,0.0,0.0,0.0,0.0,0.0,0.0,0.0,0.0,0.0,0.0,0.4481,0.5094,0.0,0.0,0.0,0.0,0.0,0.0,0.0,0.0,0.0,0.0,0.0,0.6362,0.6881,0.0,0.0,0.0,0.0,0.0,0.0,0.0,0.0,0.0,0.0,0.0,0.0,0.6816,0.6971,0.4848,0.3658,0.3605,0.3477,0.3391,0.3364,0.3325,0.3699,0.452,0.0,0.0,0.0,0.0,0.0,0.0,0.0,0.0,0.0,0.0,0.0,0.0,0.0,0.0,0.0,0.0,0.0,0.0,0.0,0.0,0.0,0.0,0.0,0.0,0.0,1.1532,0.0,0.0,0.0,0.0,0.0,0.0,0.0,0.0,0.0,0.0,0.0,1.6702,1.8544,1.8445,1.8407,1.8938,1.9054,1.9379,0.0,0.0,0.0,0.0,0.0,0.0,0.0,0.0,0.0,0.0,0.0,0.0,0.0,0.0,1.9842,1.7004,1.6158,1.6032,1.6494,0.0,0.0,0.0,0.0,0.0,0.0,0.0,0.0,0.0,0.0,0.0,0.0,0.0,0.0,0.0,0.0,0.5444,0.0,0.0,0.0,0.0,0.0,0.0,0.0,0.0,0.6003,0.5956,0.5674,0.6116,0.6425,0.0,0.7037,0.7333,0.0,0.0,0.0,0.0,0.0,0.0,0.0,0.0,0.7058,0.6812,0.5064,0.4019,0.3781,0.3688,0.3529,0.3304,0.3292,0.3583,0.4162,0.4666,0.5356,0.0,0.0,0.0,0.0,0.0,0.0,0.0,0.0,0.0,0.0,0.0,0.0,0.0,0.0,0.0,0.0,0.0,0.0,0.0,0.0,0.0,0.0,0.0,1.239,0.0,0.0,0.0,0.0,0.0,0.0,0.0,0.0,0.0,1.5744,1.6055,1.6969,1.8772,1.8734,1.8809,1.9601,0.0,0.0,0.0,0.0,0.0,0.0,0.0,2.2555,2.1334,2.0454,2.0011,2.0187,2.098,2.1735,2.2226,0.0,0.0,1.807,1.7123,1.6534,1.6214,1.6459,1.7102,1.8329,1.8388,1.8153,0.0,0.0,0.0,0.0,0.0,0.0,0.0,0.0,0.5716,0.6007,0.0,0.5955,0.0,0.0,0.0,0.0,0.0,0.5883,0.0,0.0,0.5102,0.4781,0.4388,0.5061,0.5352,0.5422,0.661,0.7005,0.6707,0.7308,0.0,0.0,0.0,0.0,0.0,0.0,0.6997,0.5869,0.5414,0.4882,0.415,0.4211,0.3941,0.3325,0.3292,0.334,0.3429,0.4155,0.464,0.4861,0.6815,0.0,0.0,0.0,0.0,0.0,0.0,0.0,0.0,0.0,0.0,0.0,0.0,0.0,0.0,0.0,0.0,0.0,0.0,0.0,0.0,1.2852,0.0,0.0,0.0,0.0,0.0,0.0,0.0,0.0,0.0,0.0,1.7716,1.7375,1.7333,1.8166,0.0,0.0,0.0,0.0,2.2229,2.2795,2.3685,2.4183,2.401,2.3928,2.3617,2.2807,0.0,0.0,2.0445,1.9728,1.9878,2.1361,2.0477,1.9793,2.1288,1.9758,1.8122,1.7211,1.7561,1.8267,1.9052,1.8753,1.8097,0.4692,0.0,0.0,0.0,0.0,0.5837,0.5993,0.6135,0.6118,0.6211,0.6364,0.6194,0.0,0.0,0.0,0.0,0.0,0.0,0.6333,0.6221,0.6168,0.6046,0.5933,0.6123,0.6228,0.6241,0.6609,0.6913,0.7187,0.7707,0.7962,0.7995,0.0,0.0,0.0,0.0,0.7417,0.7245,0.5426,0.438,0.4237,0.3812,0.3503,0.3292,0.3292,0.33,0.334,0.3592,0.4249,0.5328,0.6097,0.0,0.0,0.0,0.0,0.0,0.0,0.0,0.0,0.0,0.0,0.0,0.0,0.0,0.0,0.0,0.0,0.0,0.0,0.0,1.356,1.2769,1.2602,0.0,0.0,0.0,0.0,0.0,0.0,0.0,0.0,0.0,2.0464,1.8961,1.8525,0.0,0.0,2.0466,2.1299,2.2177,2.2784,2.2951,0.0,0.0,0.0,2.4016,2.3702,2.2891,2.2106,2.1315,2.0507,2.1107,2.1899,2.2456,2.1688,2.1332,2.2191,2.0657,1.9255,1.9359,1.9614,1.9902,2.0303,2.0491,2.0696,0.5396,0.5582,0.5567,0.5758,0.6043,0.6252,0.6277,0.6177,0.6177,0.6294,0.6472,0.6199,0.6215,0.6482,0.6445,0.0,0.0,0.0,0.6626,0.6658,0.6416,0.6163,0.5981,0.5986,0.597,0.5988,0.6392,0.6821,0.7216,0.8023,0.8364,0.8309,0.0,0.0,0.8408,0.796,0.7529,0.7121,0.5814,0.4928,0.458,0.3745,0.3292,0.3306,0.3499,0.3625,0.3634,0.3885,0.4456,0.5369,0.6006,0.6653,0.0,0.0,0.0,0.0,0.0,0.0,0.0,0.0,0.0,0.0,0.0,1.1759,0.0,0.0,0.0,0.0,1.1546,1.3036,1.2819,1.2471,0.0,0.0,0.0,0.0,0.0,0.0,0.0,1.9285,2.003,2.0906,2.1923,2.0636,2.0131,2.1619,2.1346,2.1319,2.2162,0.0,2.3107,2.3428,2.3859,2.4142,2.4142,2.4083,2.3762,2.2921,2.2401,2.1817,2.1097,2.1762,2.2474,2.2731,2.2291,2.2099,2.3263,2.1988,2.0844,2.1244,2.1161,2.1145,2.1495,2.1704,2.1894,0.6154,0.6376,0.6144,0.6185,0.6422,0.6646,0.6463,0.6027,0.6041,0.6305,0.6684,0.6047,0.6246,0.7076,0.6711,0.0,0.7358,0.6871,0.6713,0.6789,0.6256,0.5734,0.527,0.5231,0.5193,0.5217,0.6202,0.6827,0.7166,0.8343,0.9056,0.927,0.9521,0.8878,0.743,0.7958,0.7533,0.6071,0.6426,0.6092,0.501,0.3985,0.343,0.3449,0.3904,0.4174,0.4182,0.4695,0.5036,0.5132,0.6221,0.6677,0.6311,0.0,0.0,0.0,0.0,0.0,0.0,0.0,0.0,0.0,0.0,0.0,0.0,0.0,0.0,0.0,1.0889,0.0,1.0831,1.2241,0.0,0.0,0.0,1.7155,1.8102,1.8846,1.9369,1.9537,0.0,0.0,2.2556,0.0,2.1996,2.1996,2.195,2.2189,2.2988,2.3116,2.3364,2.4071,2.42,2.4199,2.4171,2.4079,2.3738,2.3115,2.2813,2.2392,2.1826,2.1816,2.2145,2.285,2.2409,2.2372,2.3924,2.3437,2.2951,2.2712,2.2345,2.2152,2.2637,2.2426,2.2187,0.6436,0.7074,0.6602,0.6375,0.6375,0.6247,0.6218,0.6236,0.6221,0.631,0.6408,0.6218,0.6509,0.7119,0.7516,0.7766,0.7918,0.7891,0.8094,0.8442,0.7942,0.7624,0.7491,0.7041,0.6831,0.6856,0.7081,0.7776,0.8856,0.9201,0.9475,0.9721,0.9898,0.9425,0.8405,0.8816,0.8398,0.7045,0.6952,0.6288,0.5048,0.4732,0.4612,0.46,0.4708,0.4795,0.4795,0.4922,0.5004,0.5036,0.5515,0.5738,0.5632,0.73,0.0,0.0,0.0,0.0,0.0,0.0,0.0,0.0,0.0,1.3799,1.1153,0.0,1.0844,0.0,1.0677,1.2094,1.3206,1.3701,0.0,0.0,1.6542,1.7386,1.8781,1.9638,2.0512,2.1614,2.2126,2.2767,2.3703,2.3703,2.363,2.3631,2.3098,2.3006,2.3778,2.3925,2.3989,2.4211,2.4238,2.421,2.4173,2.3649,2.3428,2.3804,2.2868,2.1971,2.1823,2.2309,2.2777,2.2969,2.2947,2.3231,2.4044,2.3648,2.3379,2.3695,2.3703,2.3713,2.3991,2.3803,2.3658,0.6836,0.7243,0.6758,0.6582,0.6676,0.6888,0.6686,0.6254,0.6744,0.6877,0.6719,0.6912,0.6856,0.6697,0.7621,0.8072,0.8134,0.8442,0.8771,0.908,0.8792,0.8518,0.83,0.7949,0.7807,0.7801,0.791,0.8503,0.9481,0.9734,1.0055,1.0445,1.0632,1.0312,0.954,0.9366,0.8919,0.8156,0.7503,0.6964,0.6496,0.5694,0.554,0.6126,0.5801,0.5713,0.5935,0.5699,0.5818,0.6329,0.6325,0.6296,0.6372,0.8189,0.9304,0.0,0.0,0.0,0.0,0.0,0.0,0.0,0.0,0.0,0.0,0.0,1.4047,0.0,1.3218,1.3688,1.5175,1.5311,1.5981,1.7608,1.7812,1.8463,2.0078,2.0987,2.1744,2.2465,2.3125,2.3703,2.4144,2.4199,2.4209,2.42,2.3814,2.3695,2.4137,2.4229,2.4257,2.4294,2.4257,2.4247,2.4257,2.387,2.3722,2.4025,2.3474,2.2859,2.2877,2.3226,2.3538,2.3529,2.3603,2.3776,2.4173,2.4023,2.3855,2.4072,2.4284,2.4218,2.3979,2.3838,2.3745,0.7184,0.7193,0.6799,0.6765,0.7048,0.7851,0.7428,0.6252,0.7276,0.7525,0.7263,0.7775,0.739,0.6435,0.7648,0.8262,0.834,0.8877,0.9139,0.9193,0.9194,0.8906,0.8413,0.8384,0.8405,0.8405,0.866,0.9083,0.9642,1.0116,1.0639,1.1141,1.1346,1.1169,1.0625,0.9928,0.9481,0.9263,0.8282,0.8026,0.8444,0.707,0.6793,0.7702,0.7187,0.6973,0.7204,0.6857,0.7109,0.803,0.7809,0.7655,0.7686,0.9776,1.0891,0.0,1.2108,0.0,0.0,0.0,0.0,0.0,0.0,0.0,0.0,1.5194,1.7126,1.8426,1.648,1.555,1.6586,1.6944,1.7686,1.9069,1.934,2.0036,2.1562,2.2383,2.2804,2.2804,2.363,2.419,2.4199,2.4199,2.4199,2.4209,2.4192,2.4183,2.4303,2.4303,2.4312,2.4303,2.421,2.41,2.4229,2.4146,2.4053,2.4209,2.4192,2.4256,2.4183,2.4182,2.421,2.4229,2.4229,2.4284,2.4416,2.4458,2.4396,2.4312,2.4253,2.4048,2.3666,2.3377,2.3042,0.6974,0.7339,0.6924,0.6797,0.6901,0.7751,0.7598,0.6759,0.6975,0.7219,0.7486,0.8234,0.8394,0.8268,0.9028,0.9403,0.9409,0.9629,0.9729,0.974,0.9748,0.9452,0.8969,0.8881,0.8869,0.8886,0.9137,0.9656,1.0381,1.0542,1.091,1.1429,1.1254,1.122,1.1292,0.0,0.0,0.0,0.9914,0.9554,0.8999,0.9701,0.9666,0.8884,0.9141,0.0,0.7974,0.8317,0.8447,0.8211,0.8781,0.0,0.0,0.0,0.0,0.0,0.0,0.0,0.0,0.0,0.0,0.0,1.6029,1.4162,1.2448,1.3905,1.5133,1.5574,1.6334,1.6756,1.659,1.8277,1.9579,2.002,2.0662,2.1462,2.2446,2.2767,2.3115,2.3832,2.408,2.4199,2.4199,2.4199,2.4209,2.4266,2.4294,2.4339,2.4447,2.4403,2.4421,2.441,2.3911,2.3701,2.4211,2.3548,2.3566,2.4284,2.4547,2.4491,2.4562,2.4446,2.4425,2.4554,2.4622,2.4587,2.4651,2.4731,2.4736,2.4635,2.3889,2.3466,2.4283,2.3794,2.3477,0.7056,0.0,0.7081,0.7022,0.0,0.7525,0.7651,0.7537,0.8126,0.8575,0.893,0.9315,0.9212,0.873,0.9368,0.9523,0.9285,0.9639,0.9783,0.9784,0.979,0.9675,0.9377,0.9102,0.9119,0.9398,0.955,0.9963,1.0636,1.0944,1.1239,1.1504,1.1376,1.1369,1.1496,1.1504,1.1307,1.0944,1.0995,1.0827,1.0425,1.0763,1.0799,1.0459,0.0,0.0,0.0,0.0,0.0,0.0,0.0,0.0,0.0,0.0,0.0,1.2923,1.5573,1.7185,1.7019,1.64,1.6439,1.7452,1.6785,1.5882,1.4931,1.5045,1.5699,1.7047,1.7696,1.8065,1.8261,1.9453,2.0544,2.137,2.1889,2.2501,2.3269,2.3481,2.3675,2.408,2.4199,2.4199,2.4199,2.42,2.4228,2.4275,2.434,2.4385,2.4492,2.4456,2.4371,2.4053,2.4043,2.3875,2.3736,2.3852,2.3806,2.4516,2.4669,2.4751,2.4917,2.4671,2.4486,2.4568,2.4578,2.4568,2.4692,2.4749,2.4808,2.4771,2.4403,2.4171,2.4723,2.3981,2.33,0.72,0.72,0.72,0.72,0.7196,0.7319,0.7776,0.8499,0.0,0.0,0.0,1.0318,0.9806,0.9038,0.9395,0.9342,0.8991,0.9456,0.9706,0.9708,0.9712,0.9743,0.9818,0.9279,0.9348,0.9914,0.9976,1.0275,1.0847,1.1454,1.1784,1.1831,1.1831,1.178,1.1671,1.1656,1.1686,1.1746,1.194,1.197,1.1867,1.1717,1.1821,1.2134,1.1231,1.0792,1.0869,1.0147,1.0402,1.1777,1.1757,1.1909,1.2538,1.4803,1.5664,1.4793,1.71,1.8451,1.806,1.7321,1.6905,1.6943,1.7609,1.8099,1.8239,1.7387,1.7656,1.9703,1.9516,1.9559,2.0204,2.0562,2.1261,2.257,2.2893,2.3324,2.3975,2.4132,2.4114,2.419,2.4219,2.4238,2.4256,2.4238,2.4284,2.434,2.4367,2.443,2.4482,2.4524,2.4276,2.3665,2.3932,2.4185,2.379,2.3898,2.4539,2.4658,2.4844,2.5022,2.511,2.4881,2.4635,2.467,2.4566,2.4632,2.4749,2.4827,2.4818,2.4879,2.5013,2.5091,2.4839,2.4142,2.3499,0.7205,0.72,0.72,0.72,0.72,0.7221,0.817,0.9724,0.9934,1.0185,1.0555,1.0386,1.0221,1.0053,0.9734,0.9549,0.9508,0.9659,0.971,0.0,0.971,0.9948,1.0343,0.9773,0.9835,1.0396,1.0617,1.0959,1.1426,1.228,1.2825,1.3078,1.3151,1.2824,1.233,1.2262,1.2287,1.2294,1.2981,1.3055,1.2522,1.4079,1.4424,1.35,1.3734,1.3428,1.2436,1.2756,1.2885,1.261,1.3668,1.4307,1.4457,1.6316,1.6885,1.5794,1.7479,1.8493,1.8274,1.8325,1.8709,1.9395,1.9597,1.9771,2.0018,2.0506,2.0816,2.0939,2.1196,2.1434,2.1363,2.1769,2.2233,2.2697,2.3432,2.3975,2.4084,2.4142,2.419,2.4199,2.4302,2.4382,2.4355,2.4417,2.4464,2.4532,2.4458,2.442,2.445,2.4589,2.4314,2.3651,2.3648,2.4071,2.4328,2.3991,2.4221,2.5041,2.5192,2.5217,2.5264,2.5076,2.4932,2.5063,2.4961,2.4953,2.5085,2.5122,2.5054,2.4951,2.4955,2.4925,2.4804,2.4562,2.4497,0.7895,0.7895,0.7895,0.7899,0.7946,0.8266,0.9162,1.0441,1.0703,1.1165,1.1651,1.1037,1.0732,1.066,0.9912,0.9701,0.9972,0.9994,1.0183,1.0441,1.0463,1.0582,1.0747,1.0292,1.0357,1.0909,1.0985,1.1256,1.178,1.2298,1.2637,1.2816,1.3013,1.3071,1.2954,1.2983,1.3016,1.3023,1.3756,1.3838,1.3185,1.4473,1.4728,1.3796,1.4031,1.3912,1.3334,1.3938,1.433,1.4374,1.53,1.5987,1.6398,1.7588,1.7932,1.7305,1.8827,1.9591,1.9127,2.0058,2.0782,2.1216,2.1623,2.1981,2.2212,2.1581,2.1104,2.1015,2.2152,2.2679,2.2044,2.2341,2.283,2.3346,2.3864,2.4142,2.4142,2.418,2.4199,2.4209,2.4321,2.4399,2.4408,2.4459,2.453,2.4599,2.4492,2.4368,2.4123,2.4482,2.4497,2.3757,2.4033,2.4302,2.4335,2.4433,2.4667,2.5264,2.5302,2.5302,2.5292,2.5147,2.5051,2.5072,2.5022,2.5035,2.5094,2.5103,2.5072,2.5075,2.4955,2.4888,2.4861,2.4893,2.4944,0.835,0.835,0.8493,0.8563,0.86,0.919,0.9887,1.0661,1.1255,1.1889,1.2377,1.1517,1.1159,1.1165,1.0167,0.9959,1.0431,1.0485,1.0704,1.1075,1.1111,1.1164,1.1202,1.0804,1.087,1.1413,1.14,1.1658,1.217,1.2473,1.2673,1.2754,1.2905,1.3164,1.3464,1.3559,1.3639,1.377,1.4446,1.4515,1.3916,1.4616,1.4767,1.4311,1.4416,1.4393,1.4296,1.5029,1.562,1.6002,1.6726,1.7391,1.7884,1.8568,1.8921,1.9011,1.9933,2.0527,2.0458,2.1661,2.2566,2.2801,2.3308,2.3806,2.3965,2.2311,2.1222,2.1565,2.3063,2.369,2.2911,2.2939,2.3351,2.3963,2.4122,2.419,2.4199,2.4199,2.4199,2.4209,2.4347,2.4467,2.4476,2.451,2.4554,2.454,2.4524,2.43,2.4011,2.4482,2.4542,2.4319,2.4638,2.4814,2.413,2.4668,2.5197,2.5313,2.5322,2.5322,2.5293,2.5163,2.5098,2.5096,2.5082,2.5087,2.5065,2.5046,2.5068,2.5077,2.4994,2.4925,2.4911,2.4903,2.4953,0.8,0.7987,0.8551,0.8765,0.8841,0.9303,0.9763,1.0272,1.1125,1.1737,1.2081,1.1388,1.1375,1.1628,1.0702,1.0522,1.1009,1.1021,1.1088,1.1119,1.11,1.1334,1.1768,1.1295,1.1385,1.1964,1.2061,1.2329,1.2765,1.3291,1.3729,1.3992,1.3568,1.3452,1.3762,1.3869,1.4084,1.4409,1.5138,1.5217,1.4701,1.5336,1.5686,1.5641,1.6122,1.6159,1.5634,1.6802,1.7167,1.6771,1.7832,1.8545,1.868,1.9241,1.9854,2.0315,2.0138,2.0455,2.1844,2.2752,2.3536,2.4196,2.4354,2.4637,2.5063,2.3356,2.2488,2.32,2.4288,2.4484,2.3876,2.385,2.3947,2.4048,2.4151,2.4199,2.4199,2.4199,2.4199,2.4199,2.4462,2.4676,2.4648,2.4654,2.4617,2.4497,2.4515,2.4543,2.4552,2.4719,2.4939,2.4937,2.5163,2.5155,2.4972,2.5148,2.5351,2.5322,2.5351,2.536,2.5322,2.5284,2.5273,2.5233,2.5252,2.524,2.5201,2.518,2.5105,2.5031,2.499,2.4934,2.4842,2.4717,2.4692,0.8634,0.8558,0.9099,0.9399,0.9535,0.9767,1.0123,1.0592,1.0972,1.151,1.1997,1.1522,1.1539,1.1892,1.1155,1.1026,1.1408,1.1562,1.1706,1.188,1.1973,1.2189,1.2389,1.2251,1.2341,1.2552,1.2725,1.2893,1.3092,1.3323,1.3581,1.398,1.4237,1.4603,1.4949,1.5657,1.6101,1.6287,1.6632,1.6725,1.645,1.6024,1.5814,1.5873,1.6376,1.66,1.648,1.761,1.8186,1.7966,1.9159,1.9936,2.0016,2.061,2.1081,2.1462,2.246,2.3133,2.3451,2.4219,2.4808,2.5135,2.5345,2.5579,2.5724,2.4572,2.3943,2.4118,2.4359,2.4274,2.3971,2.4007,2.4103,2.4103,2.4151,2.4199,2.4199,2.4199,2.4228,2.4312,2.4425,2.4601,2.47,2.4685,2.4645,2.4598,2.4642,2.4707,2.4902,2.4984,2.5061,2.5182,2.5293,2.5341,2.5292,2.5341,2.5407,2.5416,2.5397,2.5378,2.5378,2.535,2.5351,2.5361,2.5351,2.5341,2.5313,2.5202,2.5117,2.5031,2.4804,2.4698,2.4787,2.4711,2.4707,0.885,0.8809,0.9381,0.9739,0.9906,1.0208,1.0454,1.0761,1.0969,1.134,1.174,1.1635,1.1801,1.2013,1.1672,1.1656,1.1975,1.2158,1.2374,1.2549,1.265,1.2739,1.2821,1.2844,1.2902,1.2984,1.3082,1.3163,1.3223,1.3414,1.3585,1.3925,1.4721,1.5351,1.5751,1.6746,1.7289,1.736,1.7574,1.769,1.754,1.6795,1.6331,1.6368,1.6906,1.7174,1.7049,1.8261,1.8924,1.8816,1.9853,2.061,2.0918,2.144,2.1976,2.2617,2.4249,2.5154,2.4751,2.5466,2.5896,2.5946,2.6208,2.6446,2.641,2.6026,2.5628,2.5374,2.4568,2.3985,2.3937,2.4025,2.4094,2.4113,2.417,2.4199,2.4199,2.4199,2.4238,2.4329,2.4364,2.4491,2.4702,2.4771,2.4823,2.478,2.479,2.4828,2.5034,2.5094,2.5139,2.5303,2.537,2.5379,2.5389,2.5388,2.5425,2.5444,2.5433,2.5405,2.5424,2.5415,2.5387,2.5378,2.537,2.5332,2.5273,2.5171,2.5046,2.5034,2.4832,2.4556,2.4654,2.4654,2.4654,0.8144,0.8164,0.9075,0.9562,0.9585,1.0476,1.0635,1.0414,1.1094,1.1266,1.1131,1.1797,1.2241,1.2348,1.2207,1.2402,1.2757,1.2787,1.2807,1.287,1.2851,1.2832,1.2881,1.2826,1.2926,1.3066,1.31,1.3129,1.3229,1.3795,1.4083,1.4132,1.4864,1.5341,1.5745,1.645,1.6782,1.7277,1.7648,1.7757,1.7742,1.7667,1.7647,1.7692,1.8253,1.8328,1.8047,1.9011,1.9466,1.9,1.9592,2.0254,2.0961,2.1425,2.2356,2.3753,2.4961,2.5609,2.5618,2.6192,2.6623,2.6673,2.6916,2.7243,2.7496,2.7454,2.7254,2.7172,2.525,2.4178,2.3996,2.4074,2.4133,2.417,2.419,2.4199,2.4199,2.4199,2.4199,2.4247,2.4382,2.4533,2.4697,2.5028,2.5053,2.4936,2.4879,2.4955,2.507,2.5096,2.5191,2.5313,2.5389,2.5389,2.5389,2.5396,2.5385,2.5421,2.545,2.5412,2.5432,2.5443,2.5415,2.5369,2.5303,2.5253,2.5202,2.5103,2.4955,2.4856,2.4704,2.4566,2.4573,2.4541,2.4534,0.8926,0.9172,0.9677,0.9883,0.9936,1.0331,1.042,1.0303,1.0597,1.0816,1.1018,1.1621,1.2108,1.2407,1.2712,1.2696,1.2473,1.2803,1.2985,1.2959,1.3252,1.3472,1.3539,1.3538,1.334,1.3144,1.3148,1.317,1.3317,1.4203,1.4499,1.4513,1.5746,1.6589,1.6882,1.7883,1.8527,1.867,1.8882,1.8979,1.8942,1.8979,1.9006,1.9026,1.8895,1.8756,1.8621,1.9451,1.9806,1.9649,2.0235,2.0836,2.1422,2.2662,2.3956,2.5192,2.595,2.6294,2.6336,2.6539,2.6783,2.7021,2.7329,2.7624,2.7934,2.8111,2.7849,2.6801,2.6136,2.5218,2.4284,2.4122,2.417,2.4199,2.4199,2.4199,2.4199,2.419,2.4247,2.4409,2.466,2.4875,2.4826,2.5088,2.5252,2.5139,2.5061,2.5103,2.5201,2.5263,2.5312,2.5379,2.5387,2.5386,2.5386,2.5385,2.5401,2.5447,2.5456,2.5357,2.5348,2.5451,2.5451,2.5303,2.5222,2.5179,2.5124,2.4984,2.4856,2.4738,2.4575,2.4549,2.4506,2.4549,2.4541,0.9128,0.9457,0.9809,0.9922,0.9932,1.0306,1.0405,1.0351,1.0425,1.0601,1.0822,1.1367,1.1847,1.2282,1.2768,1.2762,1.2318,1.2739,1.2806,1.2733,1.3334,1.3588,1.3545,1.3748,1.3628,1.3253,1.3392,1.3571,1.3896,1.4809,1.5146,1.5153,1.668,1.7501,1.7814,1.8853,1.9428,1.945,1.9581,1.9682,1.9697,1.9718,1.9762,1.9788,1.9481,1.9307,1.9364,1.9763,2.0033,2.0164,2.0602,2.1229,2.2051,2.3665,2.4992,2.5847,2.6404,2.67,2.67,2.67,2.6849,2.719,2.7543,2.784,2.8093,2.8413,2.7924,2.6977,2.5938,2.5226,2.4716,2.4316,2.4199,2.4199,2.4199,2.4199,2.4199,2.4199,2.4247,2.4373,2.4617,2.4787,2.4845,2.5118,2.5273,2.5303,2.5222,2.5222,2.5322,2.537,2.5389,2.5387,2.5394,2.5411,2.543,2.5448,2.5439,2.5484,2.5484,2.5365,2.5311,2.5423,2.5416,2.5253,2.5147,2.5111,2.5016,2.4874,2.4764,2.4647,2.4615,2.4589,2.4596,2.4619,2.4613,0.8639,0.8882,0.9275,0.9602,0.9723,1.0433,1.063,1.0371,1.0669,1.0676,1.0639,1.1007,1.1532,1.1949,1.2449,1.2603,1.2538,1.2668,1.2615,1.2408,1.3053,1.3191,1.2914,1.36,1.3727,1.3336,1.381,1.443,1.493,1.5585,1.6111,1.6658,1.7263,1.7911,1.827,1.8876,1.9183,1.9243,1.9537,1.9697,1.9733,1.9762,1.9848,1.9962,1.9984,1.9989,2.0054,2.0038,2.0111,2.0262,2.0525,2.1359,2.271,2.4108,2.513,2.5596,2.6277,2.6615,2.6632,2.6589,2.6676,2.7137,2.7545,2.784,2.8094,2.8303,2.8115,2.7073,2.5575,2.4482,2.4946,2.4563,2.4199,2.4199,2.4199,2.4199,2.4199,2.4199,2.42,2.4238,2.433,2.4418,2.4752,2.5094,2.5293,2.5303,2.5303,2.5303,2.537,2.5389,2.5387,2.5385,2.5401,2.5429,2.5474,2.5511,2.5511,2.5511,2.5492,2.5439,2.5387,2.5444,2.5399,2.5251,2.5101,2.5041,2.487,2.4764,2.4753,2.4673,2.4663,2.4654,2.467,2.4676,2.4704,0.9359,0.9681,0.9922,1.0049,1.0093,1.039,1.0391,1.0342,1.0508,1.0666,1.0905,1.1155,1.1529,1.1975,1.2415,1.2502,1.2317,1.2901,1.3172,1.3165,1.3613,1.3754,1.3709,1.3894,1.3961,1.391,1.4393,1.4778,1.5183,1.6111,1.6529,1.6599,1.7668,1.8284,1.85,1.9117,1.9508,1.9537,1.9654,1.9697,1.9733,1.9762,1.9891,1.9998,2.0045,2.0135,2.0227,2.02,2.0243,2.0296,2.0595,2.1408,2.2745,2.3706,2.4603,2.5466,2.5634,2.5761,2.5878,2.5726,2.5979,2.6687,2.7138,2.7465,2.7725,2.7745,2.7242,2.6191,2.4902,2.4326,2.4427,2.4363,2.4226,2.4199,2.4199,2.4199,2.4218,2.4228,2.4256,2.4266,2.4349,2.4512,2.4723,2.5055,2.5293,2.5313,2.5332,2.537,2.5389,2.5396,2.5394,2.5392,2.5429,2.5456,2.5493,2.5511,2.5511,2.5511,2.5501,2.5474,2.5433,2.5398,2.5351,2.5219,2.5075,2.4929,2.4764,2.4682,2.4686,2.4717,2.4698,2.4707,2.4717,2.4753,2.4813,0.9681,1.0079,1.0205,1.0283,1.0322,1.0322,1.0395,1.0472,1.039,1.075,1.1281,1.1146,1.1501,1.2163,1.2394,1.2591,1.2848,1.3502,1.3833,1.4036,1.4321,1.4392,1.4243,1.435,1.4525,1.4733,1.5099,1.5529,1.5944,1.6759,1.7248,1.7486,1.824,1.8808,1.8959,1.942,1.9697,1.9697,1.9697,1.9697,1.9733,1.9805,1.9919,1.9998,2.0115,2.0227,2.0304,2.0304,2.0365,2.0527,2.0917,2.1685,2.2628,2.3304,2.4006,2.4608,2.4946,2.5065,2.5212,2.5167,2.5377,2.6135,2.654,2.6847,2.71,2.7063,2.6512,2.5489,2.4656,2.419,2.4227,2.455,2.455,2.4237,2.4209,2.4209,2.4228,2.4275,2.4303,2.4339,2.4464,2.4623,2.4822,2.5088,2.5322,2.5351,2.537,2.5397,2.5396,2.5385,2.5401,2.5419,2.5456,2.5484,2.5511,2.5511,2.5511,2.5511,2.5511,2.5466,2.5422,2.5379,2.5331,2.5108,2.4938,2.4832,2.4689,2.4689,2.4698,2.4719,2.4799,2.4911,2.4964,2.4977,2.4997,0.9646,1.0074,1.0118,1.0201,1.0322,1.0356,1.0544,1.0769,1.0599,1.1033,1.1593,1.111,1.1438,1.2362,1.2298,1.271,1.3858,1.4099,1.4425,1.4823,1.5089,1.4957,1.4489,1.4687,1.506,1.5545,1.5833,1.6417,1.7222,1.7565,1.8201,1.8772,1.89,1.9258,1.9464,1.9646,1.9697,1.9697,1.9697,1.9733,1.9733,1.9884,1.9998,1.9998,2.0158,2.0304,2.0304,2.0399,2.0553,2.0852,2.1386,2.1852,2.2369,2.3004,2.3528,2.3722,2.4185,2.4509,2.4705,2.472,2.5093,2.5587,2.5895,2.6122,2.6441,2.6609,2.6355,2.5504,2.4898,2.4522,2.4689,2.5132,2.5206,2.4626,2.4413,2.4293,2.4321,2.4376,2.4532,2.4475,2.458,2.479,2.4986,2.5263,2.5361,2.5389,2.5387,2.5395,2.5412,2.5421,2.5439,2.5474,2.5492,2.5501,2.5511,2.5511,2.5511,2.5511,2.5511,2.5466,2.5439,2.5388,2.5302,2.5065,2.4898,2.4784,2.4719,2.4749,2.4804,2.4879,2.4997,2.5158,2.516,2.5105,2.5113,0.9795,1.0235,1.0239,1.0278,1.0356,1.0621,1.0812,1.093,1.124,1.1643,1.2011,1.1414,1.1714,1.2609,1.2253,1.2605,1.3667,1.4412,1.4991,1.5498,1.5955,1.5542,1.4916,1.4928,1.5309,1.5837,1.6341,1.6871,1.7646,1.7988,1.8344,1.8662,1.9011,1.9169,1.928,1.9581,1.9697,1.9697,1.9697,1.9726,1.9812,1.9919,2.0025,2.008,2.0227,2.0304,2.0373,2.0771,2.1055,2.115,2.1347,2.1759,2.2381,2.3068,2.3482,2.3571,2.3716,2.3947,2.4088,2.3963,2.4282,2.5186,2.5438,2.5697,2.6048,2.6436,2.6217,2.5749,2.575,2.6064,2.6111,2.6297,2.628,2.6041,2.5236,2.4559,2.4633,2.5073,2.5254,2.4664,2.4802,2.4984,2.5214,2.5332,2.5398,2.5396,2.5395,2.5403,2.5421,2.5456,2.5484,2.5493,2.5511,2.5511,2.5511,2.5511,2.5511,2.5511,2.5501,2.5492,2.5466,2.545,2.5313,2.5126,2.5022,2.4923,2.4888,2.4907,2.4968,2.5022,2.513,2.5234,2.5142,2.5067,2.5147,1.0064,1.0337,1.0661,1.0704,1.0597,1.0985,1.1142,1.1281,1.173,1.2118,1.2278,1.2011,1.2393,1.3185,1.2834,1.33,1.4397,1.4993,1.5511,1.6019,1.6316,1.6139,1.5721,1.5661,1.5919,1.6268,1.685,1.7397,1.794,1.8429,1.8738,1.9042,1.9243,1.9317,1.9391,1.9545,1.9697,1.9697,1.9697,1.9726,1.982,1.9919,2.0025,2.0115,2.0227,2.0304,2.0373,2.0803,2.1214,2.1493,2.1759,2.2011,2.2403,2.2835,2.3147,2.3175,2.3277,2.3422,2.3579,2.3519,2.4042,2.4847,2.505,2.5211,2.5657,2.6148,2.6094,2.5659,2.6511,2.6899,2.6873,2.7004,2.7219,2.7194,2.6515,2.5735,2.5233,2.5643,2.5898,2.5665,2.5355,2.5122,2.5378,2.5396,2.5395,2.5404,2.544,2.5439,2.5456,2.5493,2.5511,2.5511,2.5511,2.5511,2.5519,2.5509,2.5517,2.5517,2.5509,2.549,2.5464,2.5448,2.5313,2.5171,2.5128,2.5072,2.5043,2.5041,2.508,2.515,2.5235,2.5284,2.5225,2.5174,2.5242,1.0333,1.0429,1.1195,1.1352,1.1171,1.1529,1.1795,1.1783,1.2363,1.2508,1.2526,1.2711,1.3204,1.4077,1.365,1.4332,1.5624,1.5586,1.5975,1.6314,1.6522,1.6402,1.6401,1.649,1.6631,1.6876,1.7455,1.7968,1.8429,1.8936,1.931,1.9501,1.9661,1.9697,1.9654,1.969,1.9697,1.9697,1.9733,1.9762,1.9841,1.9947,2.0053,2.0143,2.0227,2.0304,2.0407,2.072,2.1182,2.1832,2.2183,2.2332,2.2451,2.2523,2.263,2.2754,2.2972,2.3133,2.3259,2.3652,2.4218,2.4981,2.4757,2.4782,2.5734,2.6336,2.641,2.6133,2.7031,2.757,2.7432,2.7565,2.7836,2.8072,2.8124,2.7424,2.6619,2.6304,2.6579,2.703,2.5893,2.5522,2.535,2.5393,2.5392,2.544,2.5476,2.5476,2.5484,2.5493,2.5511,2.5511,2.5511,2.5509,2.5517,2.5507,2.5512,2.5519,2.5515,2.549,2.5435,2.5385,2.5284,2.5192,2.5182,2.5171,2.5149,2.516,2.5202,2.5274,2.5359,2.5432,2.5477,2.5396,2.5416,1.0474,1.0805,1.1414,1.1818,1.2135,1.2833,1.2954,1.2653,1.3488,1.3351,1.2975,1.3335,1.3744,1.4002,1.4105,1.4657,1.5658,1.5762,1.5994,1.6471,1.6528,1.6565,1.6644,1.6784,1.7044,1.7406,1.8002,1.8507,1.8936,1.928,1.9617,1.9697,1.9697,1.9697,1.9697,1.9733,1.9697,1.9733,1.9777,1.9848,1.9947,2.001,2.0115,2.022,2.027,2.0346,2.0467,2.0893,2.13,2.1584,2.1978,2.242,2.2504,2.2596,2.2747,2.291,2.3028,2.3238,2.3589,2.3874,2.4424,2.5504,2.549,2.5781,2.7071,2.7385,2.7544,2.7684,2.8419,2.8771,2.8632,2.8077,2.8323,2.8821,2.8716,2.8322,2.8136,2.7662,2.6991,2.6161,2.6119,2.614,2.5574,2.543,2.5429,2.5466,2.5493,2.5511,2.5511,2.5511,2.5511,2.5511,2.5519,2.5517,2.5512,2.5512,2.5519,2.5519,2.5515,2.5517,2.5445,2.541,2.535,2.5303,2.5273,2.5263,2.5244,2.5264,2.5303,2.5387,2.5458,2.5493,2.5511,2.5511,2.5511,1.085,1.1318,1.1994,1.2522,1.2986,1.3396,1.3336,1.3155,1.3879,1.3813,1.3362,1.4106,1.4666,1.4731,1.4862,1.5356,1.593,1.6082,1.6233,1.6497,1.6571,1.6656,1.6735,1.6911,1.7164,1.7645,1.8187,1.87,1.9124,1.9472,1.9697,1.9697,1.9697,1.9697,1.9726,1.9718,1.9726,1.9769,1.9848,1.9955,2.0053,2.008,2.015,2.027,2.0304,2.0312,2.0373,2.1325,2.1778,2.2097,2.2734,2.2997,2.2617,2.2649,2.2842,2.3028,2.3197,2.3399,2.375,2.4379,2.5133,2.6173,2.6159,2.6782,2.7516,2.8009,2.8001,2.816,2.869,2.9379,2.9379,2.8996,2.9024,2.9298,2.9313,2.8903,2.838,2.797,2.7156,2.5909,2.5763,2.5779,2.5611,2.5476,2.5448,2.5476,2.5493,2.5511,2.5511,2.5511,2.5511,2.5511,2.5519,2.5515,2.5517,2.5524,2.5534,2.5529,2.5507,2.5509,2.5492,2.5484,2.5468,2.5424,2.5379,2.5387,2.5378,2.5396,2.5397,2.5441,2.5493,2.5503,2.5511,2.5511,2.5511,1.1135,1.1753,1.2568,1.3234,1.3673,1.3744,1.3477,1.317,1.399,1.3993,1.3593,1.4868,1.5508,1.5564,1.5766,1.6126,1.6367,1.649,1.6503,1.6515,1.6626,1.6705,1.6784,1.6947,1.7317,1.7828,1.8266,1.8738,1.9191,1.9501,1.9697,1.9697,1.9697,1.9733,1.9726,1.9762,1.9797,1.9841,1.9955,2.0025,2.008,2.0108,2.022,2.0399,2.0433,2.061,2.0978,2.181,2.2524,2.272,2.3981,2.3929,2.3333,2.3011,2.3206,2.3539,2.3871,2.419,2.4611,2.5203,2.6005,2.6809,2.6945,2.7385,2.8035,2.8354,2.8337,2.8429,2.8886,2.9388,2.9388,2.9016,2.9202,2.955,2.9725,2.9087,2.8265,2.7975,2.7325,2.5811,2.5548,2.5582,2.5571,2.5493,2.5493,2.5485,2.5485,2.5495,2.5495,2.5495,2.5477,2.5468,2.5458,2.5488,2.5498,2.5511,2.5531,2.5529,2.5517,2.5509,2.5511,2.5511,2.5503,2.5503,2.5485,2.5476,2.5476,2.5468,2.5477,2.5511,2.5511,2.5511,2.5511,2.5511,2.5511,1.0865,1.1627,1.2655,1.3261,1.3707,1.4378,1.4117,1.3668,1.4341,1.4317,1.3748,1.5228,1.5782,1.5712,1.6157,1.6423,1.6485,1.6528,1.6522,1.6565,1.6705,1.6827,1.7012,1.7144,1.7591,1.814,1.8539,1.8884,1.9413,1.9682,1.9697,1.9697,1.9726,1.9726,1.9769,1.9812,1.9869,1.9947,2.0053,2.0115,2.015,2.022,2.0357,2.0618,2.0691,2.1169,2.1932,2.2523,2.3123,2.3774,2.4382,2.4552,2.4487,2.4543,2.4801,2.4925,2.5116,2.5342,2.5886,2.6264,2.6938,2.7534,2.7779,2.822,2.8845,2.9107,2.8979,2.9063,2.9147,2.9388,2.9388,2.8961,2.8989,2.9364,2.9381,2.8998,2.8881,2.8692,2.7913,2.5966,2.5626,2.545,2.5433,2.5416,2.5378,2.536,2.5378,2.5369,2.5351,2.5379,2.5397,2.5387,2.5377,2.5434,2.5485,2.5502,2.5518,2.5519,2.5517,2.5511,2.5511,2.5511,2.5511,2.5511,2.5511,2.5503,2.5503,2.5511,2.5511,2.5511,2.5511,2.5511,2.5511,2.5511,2.5511,1.0885,1.1939,1.2467,1.306,1.3603,1.3808,1.3526,1.302,1.3642,1.3905,1.4191,1.5175,1.593,1.6046,1.6293,1.6479,1.6528,1.6528,1.6637,1.6879,1.706,1.731,1.7571,1.7707,1.818,1.8655,1.8853,1.9087,1.9661,1.969,1.9697,1.9726,1.9718,1.9762,1.9797,1.9912,1.9975,2.0045,2.015,2.0193,2.0193,2.027,2.0399,2.059,2.1126,2.1693,2.2296,2.3695,2.432,2.4851,2.5533,2.5851,2.6,2.6099,2.603,2.5587,2.5786,2.6343,2.6933,2.7187,2.7534,2.788,2.8322,2.8811,2.9205,2.9328,2.9398,2.9388,2.9388,2.9388,2.9379,2.897,2.9223,2.9587,2.9453,2.9197,2.9107,2.9092,2.7846,2.6311,2.615,2.588,2.5264,2.5253,2.5244,2.5254,2.5264,2.5234,2.5212,2.5273,2.5322,2.5368,2.5376,2.5435,2.5488,2.5502,2.5531,2.5522,2.5517,2.5511,2.5521,2.553,2.5521,2.5511,2.5511,2.5511,2.5511,2.5511,2.5511,2.5511,2.5511,2.5511,2.5511,2.5511,2.5511,1.0879,1.2047,1.2219,1.2695,1.3176,1.3062,1.2764,1.2574,1.2985,1.368,1.4347,1.528,1.6031,1.6385,1.6479,1.6528,1.6528,1.6528,1.6723,1.7047,1.7338,1.7707,1.8075,1.8429,1.8662,1.8943,1.9064,1.9332,1.9625,1.9697,1.9697,1.9726,1.9762,1.9848,1.9891,2.001,2.0073,2.0177,2.0212,2.0304,2.0304,2.0304,2.0399,2.0556,2.1545,2.2221,2.2883,2.4371,2.5393,2.5871,2.6456,2.7049,2.721,2.7565,2.7053,2.5922,2.6273,2.6991,2.7565,2.7938,2.8165,2.8341,2.8876,2.9178,2.9316,2.9377,2.9388,2.9388,2.9388,2.9388,2.9388,2.937,2.9513,2.9697,2.9702,2.9536,2.916,2.8836,2.8275,2.729,2.6899,2.617,2.5407,2.5149,2.515,2.5117,2.5128,2.5117,2.5103,2.5201,2.5264,2.535,2.5411,2.5453,2.5483,2.5505,2.5536,2.5553,2.5528,2.5511,2.553,2.554,2.5536,2.5539,2.5511,2.5511,2.5511,2.5521,2.5511,2.5511,2.5511,2.5511,2.5511,2.5511,2.5511,1.0596,1.1135,1.1979,1.2136,1.2029,1.2595,1.2864,1.2888,1.3351,1.4239,1.4963,1.5824,1.6212,1.6422,1.6515,1.6522,1.6528,1.6607,1.6729,1.6983,1.7386,1.7713,1.7915,1.8305,1.8769,1.9139,1.9146,1.9317,1.9617,1.9697,1.9697,1.9733,1.9797,1.9841,1.9962,2.0088,2.015,2.0262,2.027,2.0304,2.0304,2.0304,2.0579,2.1174,2.2046,2.2972,2.3934,2.5217,2.6107,2.6695,2.6944,2.7244,2.7535,2.7851,2.8066,2.8012,2.82,2.8446,2.8668,2.8705,2.88,2.883,2.9157,2.9265,2.9347,2.9368,2.9388,2.9388,2.9388,2.9388,2.9388,2.9388,2.9511,2.9608,2.9661,2.9378,2.904,2.9245,2.8588,2.7652,2.7062,2.6171,2.5323,2.5185,2.5051,2.5024,2.4997,2.4984,2.5034,2.5149,2.5253,2.535,2.541,2.5459,2.5495,2.551,2.5529,2.5565,2.5558,2.5522,2.5549,2.557,2.5586,2.5573,2.5546,2.5521,2.553,2.553,2.5521,2.5511,2.5511,2.5511,2.5511,2.5511,2.5511,1.0278,1.0947,1.1624,1.1809,1.1693,1.2062,1.2388,1.2716,1.3042,1.3885,1.4964,1.5364,1.5831,1.6379,1.6725,1.6905,1.6892,1.6915,1.7005,1.7234,1.7673,1.8114,1.8584,1.8929,1.931,1.9354,1.9435,1.9508,1.9697,1.9697,1.9697,1.9726,1.9841,1.9955,2.0033,2.0131,2.0227,2.0262,2.0304,2.0304,2.0304,2.0339,2.0535,2.1062,2.2451,2.3577,2.4534,2.5883,2.6676,2.7128,2.7152,2.7198,2.747,2.782,2.8139,2.8192,2.8581,2.8845,2.8975,2.8984,2.9076,2.9165,2.9222,2.9274,2.9368,2.9388,2.9388,2.9388,2.9388,2.9388,2.9388,2.9388,2.9483,2.9561,2.9589,2.9545,2.9363,2.95,2.9219,2.8211,2.7201,2.6332,2.5475,2.5067,2.4911,2.4874,2.4888,2.4915,2.5,2.5152,2.5264,2.5378,2.541,2.5456,2.5485,2.5505,2.5517,2.5543,2.5594,2.5579,2.5582,2.5603,2.562,2.5633,2.5619,2.5594,2.5565,2.553,2.5521,2.5511,2.5511,2.5519,2.5526,2.5519,2.5519,0.9963,1.0618,1.1173,1.1376,1.1341,1.1601,1.2039,1.2555,1.2985,1.3859,1.4892,1.5421,1.6001,1.6539,1.7085,1.731,1.7234,1.7277,1.7325,1.7537,1.7981,1.8472,1.8855,1.931,1.9661,1.9697,1.9661,1.9697,1.9697,1.9733,1.9726,1.9726,1.9884,1.999,2.0068,2.0208,2.0304,2.0304,2.0304,2.0304,2.0304,2.0304,2.0626,2.149,2.2711,2.4025,2.4757,2.6164,2.7149,2.7233,2.7192,2.727,2.7582,2.7897,2.8237,2.8403,2.8782,2.8952,2.8984,2.9007,2.9076,2.9165,2.9243,2.9316,2.9368,2.9388,2.9388,2.9388,2.9388,2.9388,2.9388,2.9388,2.9442,2.9493,2.9532,2.9626,2.9688,2.9707,2.9595,2.8871,2.7808,2.659,2.5785,2.5058,2.477,2.4742,2.4768,2.4865,2.5085,2.5349,2.537,2.549,2.5447,2.5476,2.5497,2.5507,2.5512,2.5537,2.5586,2.5625,2.5635,2.5644,2.5671,2.5673,2.5674,2.5664,2.5628,2.557,2.5521,2.554,2.5557,2.5541,2.5539,2.5529,2.5515,0.9632,0.9781,1.0603,1.0797,1.0646,1.1338,1.2054,1.2754,1.3617,1.4556,1.5573,1.644,1.6903,1.7233,1.7477,1.7612,1.7312,1.7305,1.7249,1.7421,1.7861,1.8352,1.8797,1.9281,1.9697,1.9697,1.9697,1.9697,1.9733,1.9726,1.9726,1.9797,1.9919,2.0018,2.0123,2.0235,2.0304,2.0304,2.0304,2.0304,2.0304,2.0427,2.0808,2.1873,2.3069,2.4282,2.5319,2.6587,2.725,2.7282,2.7296,2.747,2.78,2.8065,2.836,2.8676,2.8863,2.8975,2.8984,2.9007,2.9076,2.9197,2.9304,2.9368,2.9388,2.9388,2.9388,2.9388,2.9388,2.9388,2.9388,2.9388,2.9411,2.9442,2.9492,2.9532,2.9626,2.9701,2.956,2.9279,2.8415,2.7204,2.6425,2.5778,2.4933,2.4839,2.529,2.5412,2.5591,2.5784,2.5645,2.5617,2.5528,2.5507,2.5501,2.5515,2.5525,2.5566,2.5615,2.5654,2.5684,2.5693,2.5693,2.5693,2.5684,2.5693,2.5686,2.5631,2.5586,2.5602,2.5592,2.557,2.5575,2.5566,2.5539,0.9239,0.9337,1.0176,1.0656,1.0899,1.1841,1.2592,1.3222,1.423,1.5205,1.6096,1.6864,1.7303,1.754,1.7984,1.8061,1.7781,1.7848,1.7482,1.7468,1.7848,1.8377,1.8769,1.9214,1.9697,1.9697,1.9697,1.9697,1.9697,1.9726,1.9841,1.9919,1.9962,2.0018,2.0123,2.0227,2.027,2.0304,2.0304,2.0304,2.0323,2.0566,2.1152,2.2255,2.3456,2.4616,2.57,2.6644,2.7098,2.7313,2.7421,2.7651,2.7943,2.8183,2.8516,2.8776,2.8905,2.8975,2.9007,2.9007,2.9067,2.9191,2.9316,2.9388,2.9388,2.9388,2.9388,2.9388,2.9388,2.9388,2.9388,2.9388,2.9388,2.9409,2.944,2.9502,2.9569,2.9655,2.9673,2.9439,2.8735,2.7741,2.7139,2.6575,2.5684,2.4986,2.5502,2.5962,2.615,2.6368,2.6296,2.6051,2.5942,2.5701,2.5685,2.5621,2.5553,2.5586,2.5635,2.5664,2.5693,2.5693,2.5693,2.5693,2.5693,2.5693,2.5693,2.5674,2.5654,2.5624,2.5609,2.5596,2.5605,2.5605,2.559,0.9016,0.9096,0.9961,1.0562,1.1065,1.2157,1.2746,1.322,1.4423,1.5566,1.6461,1.7061,1.7578,1.7942,1.8406,1.8397,1.8208,1.8175,1.7774,1.7767,1.8101,1.8489,1.8809,1.9207,1.9697,1.9697,1.9697,1.9697,1.9733,1.9762,1.9848,1.9962,2.0033,2.0088,2.0193,2.0227,2.0304,2.0304,2.0304,2.0365,2.0452,2.0972,2.1727,2.2883,2.408,2.5147,2.6073,2.6856,2.719,2.7359,2.7487,2.7654,2.7971,2.8255,2.8585,2.8752,2.8881,2.8984,2.9017,2.9062,2.9121,2.9252,2.9316,2.9368,2.9388,2.9388,2.9388,2.9388,2.9388,2.9388,2.9388,2.9388,2.9379,2.939,2.9471,2.9521,2.9579,2.9655,2.9673,2.9598,2.8828,2.8097,2.7804,2.7238,2.6522,2.5972,2.6438,2.6714,2.6688,2.6933,2.7162,2.6842,2.6484,2.6186,2.5888,2.5781,2.5674,2.5596,2.5644,2.5674,2.5693,2.5693,2.5693,2.5693,2.5693,2.5693,2.5693,2.5684,2.5664,2.5632,2.5637,2.5632,2.5633,2.5641,2.5644,0.9016,0.9132,1.003,1.0477,1.0819,1.2054,1.2485,1.2568,1.4165,1.5507,1.6546,1.7377,1.7988,1.8423,1.88,1.8707,1.8379,1.8528,1.8201,1.7834,1.8337,1.8691,1.8921,1.9271,1.9697,1.9697,1.9697,1.9697,1.9697,1.9805,1.9891,1.9998,2.0088,2.0166,2.027,2.0304,2.0304,2.0304,2.0304,2.046,2.0771,2.1417,2.245,2.3506,2.4718,2.5773,2.6574,2.7008,2.729,2.739,2.7621,2.7849,2.8147,2.8465,2.8752,2.8947,2.8961,2.9017,2.9026,2.913,2.9218,2.9292,2.9356,2.9388,2.9388,2.9388,2.9388,2.9388,2.9388,2.9388,2.9388,2.9388,2.94,2.9401,2.9462,2.9531,2.9588,2.9655,2.9673,2.9692,2.9044,2.8397,2.8208,2.7881,2.729,2.7073,2.746,2.7576,2.7542,2.7625,2.7962,2.7721,2.7297,2.695,2.6613,2.6033,2.579,2.5701,2.5771,2.5937,2.582,2.5693,2.5693,2.5693,2.5693,2.5693,2.5693,2.5693,2.5673,2.5662,2.5674,2.5683,2.5671,2.5671,2.5674,0.9003,0.9096,0.9991,1.0457,1.0802,1.2064,1.2577,1.2752,1.4185,1.5642,1.6847,1.7585,1.8068,1.8507,1.8867,1.8905,1.8644,1.8314,1.8022,1.8201,1.863,1.8749,1.8994,1.9344,1.9697,1.9697,1.9697,1.9697,1.9697,1.9848,1.9919,2.0025,2.0166,2.0235,2.027,2.0304,2.0304,2.0304,2.0312,2.0388,2.0696,2.1719,2.2851,2.3869,2.5162,2.6256,2.6995,2.725,2.7399,2.7548,2.7791,2.8093,2.8395,2.8685,2.8881,2.8994,2.9007,2.9062,2.9098,2.9178,2.9231,2.9292,2.9356,2.9398,2.9388,2.9388,2.9388,2.9388,2.9388,2.9388,2.9388,2.9388,2.94,2.9401,2.9462,2.954,2.9588,2.9655,2.9692,2.9692,2.9298,2.9212,2.9051,2.8941,2.8412,2.8096,2.8397,2.883,2.8924,2.8767,2.8862,2.8591,2.8234,2.7858,2.7423,2.6914,2.6328,2.6113,2.6279,2.6514,2.6299,2.5791,2.5693,2.5693,2.5693,2.5693,2.5693,2.5702,2.5698,2.5694,2.5694,2.5694,2.5684,2.5683,2.5686,0.9007,0.9172,1.0074,1.0817,1.1434,1.2553,1.3232,1.3777,1.4768,1.5868,1.686,1.7518,1.8068,1.8546,1.8943,1.9042,1.8853,1.8805,1.8441,1.8623,1.8858,1.8979,1.9206,1.9491,1.9675,1.9697,1.9726,1.9726,1.9769,1.9935,2.0041,2.0138,2.0243,2.027,2.0304,2.0304,2.0304,2.0304,2.0304,2.0475,2.1104,2.211,2.3366,2.4408,2.5556,2.6736,2.7175,2.7399,2.7518,2.7742,2.8037,2.8343,2.8626,2.8815,2.8984,2.8984,2.9007,2.9076,2.9156,2.9187,2.924,2.9326,2.9377,2.9398,2.9388,2.9388,2.9388,2.9388,2.9388,2.9388,2.9388,2.9398,2.9409,2.9431,2.9462,2.9531,2.9636,2.9673,2.9757,2.9757,2.9781,2.9781,2.9833,2.9897,2.965,2.9445,2.9313,2.9641,2.991,2.9706,2.9327,2.897,2.8836,2.8537,2.8192,2.7873,2.7271,2.6618,2.6719,2.6953,2.626,2.5693,2.5693,2.5693,2.5693,2.5693,2.5693,2.5697,2.5693,2.5701,2.5699,2.5699,2.5697,2.5697,2.5697,0.9096,0.9337,1.0196,1.1348,1.2574,1.3237,1.4332,1.5565,1.5655,1.5949,1.6494,1.739,1.7948,1.85,1.8974,1.9079,1.8945,1.9206,1.9022,1.8877,1.9165,1.9244,1.9323,1.9521,1.9682,1.9697,1.9733,1.9762,1.9797,1.9955,2.0103,2.0235,2.027,2.0304,2.0304,2.0304,2.0304,2.0304,2.0304,2.0681,2.1406,2.2794,2.3907,2.4968,2.6196,2.6983,2.7376,2.7496,2.7651,2.7906,2.8237,2.8491,2.8694,2.8858,2.8952,2.8984,2.8984,2.9067,2.9156,2.9209,2.9283,2.9347,2.9377,2.9388,2.9388,2.9388,2.9388,2.9388,2.9388,2.9388,2.9388,2.9398,2.9418,2.944,2.9472,2.955,2.9655,2.9739,2.9831,2.9874,2.9914,2.9943,3.0019,3.0132,3.0213,2.9874,2.948,2.9043,2.9369,2.9901,2.9485,2.8962,2.8915,2.9079,2.8803,2.8393,2.869,2.8201,2.7266,2.7148,2.6367,2.5742,2.5693,2.5693,2.5693,2.5693,2.5693,2.5697,2.5699,2.5697,2.5697,2.5697,2.5697,2.5697,2.5697,0.9101,0.9293,1.0196,1.1027,1.1893,1.3417,1.4712,1.5615,1.5699,1.5999,1.6507,1.7101,1.7518,1.772,1.8166,1.8563,1.8762,1.8853,1.91,1.9211,1.9324,1.9406,1.9522,1.966,1.9697,1.9733,1.9762,1.9797,1.9833,1.9983,2.0158,2.0254,2.0304,2.0304,2.0304,2.0304,2.0327,2.0408,2.0431,2.1041,2.1913,2.3243,2.428,2.5397,2.6545,2.7181,2.7336,2.76,2.778,2.8029,2.8378,2.8644,2.8905,2.8961,2.8984,2.8984,2.9007,2.9044,2.9178,2.9212,2.9265,2.9368,2.9388,2.9388,2.9388,2.9388,2.9388,2.9388,2.9388,2.9388,2.9388,2.9398,2.9409,2.9451,2.9558,2.9804,2.9992,3.0434,3.0459,3.0184,3.0213,3.0066,3.0161,3.0345,3.0363,3.006,2.9628,2.9043,2.8731,2.9244,2.9186,2.8606,2.866,2.8735,2.8896,2.8613,2.9405,2.9736,2.8506,2.7334,2.6592,2.6064,2.581,2.5693,2.5693,2.5693,2.5693,2.57,2.5694,2.5699,2.5697,2.5697,2.5697,2.5697,2.5697,0.9368,0.962,1.0307,1.1014,1.1943,1.3558,1.4648,1.5132,1.5552,1.5819,1.5935,1.6572,1.7036,1.7422,1.806,1.8686,1.9207,1.9147,1.9265,1.942,1.9435,1.9522,1.9646,1.9697,1.9697,1.9726,1.9762,1.9841,1.9904,2.008,2.0227,2.0262,2.0304,2.0304,2.0304,2.0327,2.0593,2.0828,2.1145,2.1718,2.2675,2.3761,2.4746,2.5602,2.6696,2.7115,2.7279,2.7573,2.7926,2.8156,2.8482,2.881,2.8994,2.8984,2.8984,2.8984,2.9007,2.9067,2.9156,2.92,2.9265,2.9347,2.9407,2.9388,2.9388,2.9388,2.9388,2.9388,2.9388,2.9388,2.9388,2.9388,2.9431,2.9453,2.9775,3.0105,3.0634,3.1204,3.1053,3.0677,3.0443,3.0233,3.0286,3.0489,3.0424,2.9979,2.9525,2.9023,2.8509,2.8374,2.821,2.7707,2.7978,2.8257,2.8396,2.8572,2.9191,2.9394,2.8603,2.7539,2.6807,2.6221,2.582,2.5703,2.5693,2.5693,2.5693,2.5692,2.5698,2.5694,2.5699,2.5701,2.5699,2.5697,2.5697,0.9755,1.0015,1.051,1.1349,1.2402,1.3666,1.4247,1.4314,1.5109,1.5323,1.5195,1.5938,1.6649,1.7211,1.7901,1.8738,1.914,1.9266,1.9317,1.9697,1.9661,1.969,1.969,1.9697,1.9697,1.9726,1.9797,1.9912,2.0061,2.0166,2.027,2.0304,2.0304,2.0304,2.0304,2.0399,2.0923,2.1917,2.2231,2.2716,2.3802,2.473,2.5388,2.5893,2.6563,2.7135,2.7258,2.7619,2.8093,2.8264,2.8549,2.8914,2.8994,2.8984,2.8984,2.8984,2.8984,2.9067,2.9156,2.92,2.9404,2.9467,2.9453,2.9686,2.9825,2.95,2.9416,2.9398,2.9388,2.9388,2.9388,2.9398,2.9429,2.9638,2.998,3.0359,3.0868,3.1492,3.1862,3.1492,3.1136,3.0861,3.0292,3.0482,3.053,2.9979,2.9458,2.9012,2.8565,2.8092,2.7462,2.7017,2.7059,2.7369,2.7554,2.7851,2.8617,2.8662,2.8174,2.7666,2.6875,2.6289,2.5762,2.5859,2.5996,2.5762,2.5693,2.5702,2.5699,2.5693,2.5699,2.5693,2.5693,2.5699,2.5697,0.9839,1.0137,1.1255,1.1932,1.2312,1.3594,1.3858,1.3554,1.4162,1.4677,1.5038,1.5497,1.6146,1.6906,1.718,1.7972,1.9,1.9119,1.9251,1.9545,1.9697,1.9697,1.9697,1.9697,1.9697,1.9769,1.9876,2.0018,2.0166,2.027,2.0304,2.0304,2.0304,2.0304,2.0312,2.0483,2.1326,2.2778,2.3112,2.3695,2.4796,2.5146,2.5556,2.6275,2.7023,2.7103,2.7267,2.7517,2.788,2.8129,2.8482,2.8776,2.9003,2.8984,2.8984,2.8984,2.9017,2.9113,2.9263,2.9385,2.9595,2.9876,3.0018,3.0429,3.0401,2.9788,2.949,2.949,2.949,2.9518,2.9537,2.9556,2.9634,2.9966,3.0325,3.0782,3.1216,3.1876,3.2583,3.234,3.1955,3.1261,3.0593,3.0414,3.0443,3.0143,2.9612,2.9146,2.8741,2.8225,2.7203,2.6662,2.6142,2.6288,2.6592,2.7002,2.7695,2.8076,2.7793,2.7334,2.6934,2.6465,2.6055,2.625,2.6338,2.5965,2.5702,2.5702,2.5699,2.5693,2.5699,2.5701,2.5701,2.5697,2.5697,0.9945,1.0385,1.1399,1.1932,1.2232,1.3071,1.3236,1.3064,1.3476,1.3919,1.4351,1.4782,1.5405,1.6247,1.6433,1.7404,1.8659,1.8702,1.914,1.9528,1.9697,1.9697,1.9697,1.9697,1.9697,1.9769,1.9919,2.0068,2.027,2.0304,2.0304,2.0304,2.0304,2.0304,2.0381,2.0764,2.1711,2.3362,2.3539,2.4314,2.5422,2.5866,2.6093,2.6841,2.7007,2.7047,2.7298,2.7556,2.788,2.821,2.8558,2.8801,2.8994,2.8984,2.8984,2.8984,2.9044,2.9196,2.9489,2.976,2.9961,3.024,3.073,3.1153,3.081,3.0336,3.0727,3.0745,3.0745,3.0764,3.0773,3.0782,3.0891,3.1152,3.1738,3.2317,3.2631,3.3042,3.3417,3.3355,3.2451,3.0935,3.051,3.0627,3.0627,3.052,2.9969,2.9718,2.9229,2.88,2.7637,2.6611,2.6262,2.584,2.6006,2.6309,2.667,2.6973,2.7432,2.7432,2.7266,2.6738,2.6406,2.6463,2.6322,2.5891,2.5696,2.5748,2.5708,2.5701,2.5699,2.5699,2.5697,2.5697,2.5697,1.0134,1.0743,1.1399,1.1847,1.2186,1.255,1.272,1.275,1.3066,1.3286,1.3503,1.395,1.4614,1.5387,1.6055,1.7322,1.8179,1.8438,1.8982,1.9563,1.969,1.9697,1.9697,1.9697,1.9733,1.9805,1.9919,2.0103,2.027,2.0304,2.0304,2.0331,2.0331,2.0373,2.0494,2.0846,2.177,2.2875,2.3578,2.4443,2.5553,2.659,2.6631,2.6757,2.695,2.7031,2.7276,2.7607,2.8001,2.8334,2.8617,2.8872,2.8984,2.8984,2.8984,2.9003,2.9283,2.9609,3.0037,3.0365,3.0535,3.0803,3.1399,3.1529,3.1166,3.1262,3.1652,3.2024,3.2024,3.1879,3.1879,3.1806,3.1937,3.2151,3.2825,3.3545,3.3831,3.4063,3.4136,3.4209,3.299,3.1344,3.0889,3.0981,3.082,3.0714,3.0617,3.0356,3.0066,2.9694,2.8977,2.779,2.6961,2.6504,2.6006,2.5996,2.6348,2.6875,2.7402,2.7578,2.7568,2.7051,2.665,2.6464,2.6253,2.5924,2.5829,2.5873,2.5811,2.5699,2.5699,2.5697,2.5697,2.5697,2.5697,1.0757,1.1367,1.2096,1.2461,1.2573,1.2902,1.3088,1.3082,1.317,1.3245,1.3298,1.3486,1.4108,1.5087,1.5482,1.6523,1.7792,1.8144,1.8872,1.9564,1.9652,1.9682,1.9697,1.9733,1.9805,1.9884,1.999,2.0088,2.027,2.0312,2.0441,2.062,2.0373,2.0595,2.1079,2.1391,2.1776,2.2747,2.3401,2.4101,2.5206,2.6013,2.6326,2.6595,2.6959,2.7031,2.7213,2.7535,2.784,2.8201,2.8651,2.8896,2.8984,2.8984,2.8984,2.9182,2.9448,2.9986,3.0419,3.0971,3.1236,3.1246,3.1774,3.2108,3.1904,3.1922,3.2497,3.337,3.3268,3.2753,3.2622,3.2313,3.2317,3.2553,3.3037,3.3876,3.4455,3.4611,3.4717,3.4718,3.4324,3.2912,3.1808,3.1656,3.1207,3.1207,3.1381,3.1207,3.1458,3.0906,3.0157,2.8994,2.7763,2.7178,2.668,2.624,2.6455,2.6963,2.7461,2.7812,2.7822,2.7353,2.7012,2.6807,2.6458,2.6117,2.6062,2.6065,2.581,2.5699,2.5697,2.5697,2.5697,2.5697,2.5697]},{"header":{"parameterUnit":"m.s-1","parameterCategory":1,"la1":31.0,"la2":29.5877,"lo1":-88.7671,"lo2":-86.6584,"dy":0.0162,"dx":0.0185,"nx":115,"ny":88,"refTime":"2024-02-02T06:00:00:Z","depth":0,"parameterNumber":3,"parameterNumberName":"V-component_of_WINDS"},"data":[0.0,0.0,0.0,0.0,0.0,0.0,0.0,0.0,0.0,0.0,0.0,0.0,0.0,0.0,0.0,0.0,0.0,0.0,0.0,0.0,0.0,0.0,0.0,0.0,0.0,0.0,0.0,0.0,0.0,0.0,0.0,0.0,0.0,0.0,0.0,0.0,0.0,0.0,0.0,0.0,0.0,0.0,0.0,0.0,0.0,0.0,0.0,0.0,0.0,0.0,0.0,0.0,0.0,0.0,0.0,0.0,0.0,0.0,0.0,0.0,0.0,0.0,0.0,0.0,0.0,0.0,0.0,0.0,0.0,0.0,0.0,0.0,0.0,0.0,0.0,0.0,0.0,0.0,0.0,0.0,0.0,0.0,0.0,0.0,0.0,0.0,0.0,0.0,0.0,0.0,0.0,0.0,0.0,0.0,0.0,0.0,0.0,0.0,0.0,0.0,0.0,0.0,0.0,0.0,0.0,0.0,0.0,0.0,0.0,0.0,0.0,0.0,0.0,0.0,0.0,0.0,0.0,0.0,0.0,0.0,0.0,0.0,0.0,0.0,0.0,0.0,0.0,0.0,0.0,0.0,0.0,0.0,0.0,0.0,0.0,0.0,0.0,0.0,0.0,0.0,0.0,0.0,0.0,0.0,0.0,0.0,0.0,0.0,0.0,0.0,0.0,0.0,0.0,0.0,0.0,0.0,0.0,0.0,0.0,0.0,0.0,0.0,0.0,0.0,0.0,0.0,0.0,0.0,0.0,0.0,0.0,0.0,0.0,0.0,0.0,0.0,0.0,0.0,0.0,0.0,0.0,0.0,0.0,0.0,0.0,0.0,0.0,0.0,0.0,0.0,0.0,0.0,0.0,0.0,0.0,0.0,0.0,0.0,0.0,0.0,0.0,0.0,0.0,0.0,0.0,0.0,0.0,0.0,0.0,0.0,0.0,0.0,0.0,0.0,0.0,0.0,0.0,0.0,0.0,0.0,0.0,0.0,0.0,0.0,0.0,0.0,0.0,0.0,0.0,0.0,0.0,0.0,0.0,0.0,0.0,0.0,0.0,0.0,0.0,0.0,0.0,0.0,0.0,0.0,0.0,0.0,0.0,0.0,0.0,0.0,0.0,0.0,0.0,0.0,0.0,0.0,0.0,0.0,0.0,0.0,0.0,0.0,0.0,0.0,0.0,0.0,0.0,0.0,0.0,0.0,0.0,0.0,0.0,0.0,0.0,0.0,0.0,0.0,0.0,0.0,0.0,0.0,0.0,0.0,0.0,0.0,0.0,0.0,0.0,0.0,0.0,0.0,0.0,0.0,0.0,0.0,0.0,0.0,0.0,0.0,0.0,0.0,0.0,0.0,0.0,0.0,0.0,0.0,0.0,0.0,0.0,0.0,0.0,0.0,0.0,0.0,0.0,0.0,0.0,0.0,0.0,0.0,0.0,0.0,0.0,0.0,0.0,0.0,0.0,0.0,0.0,0.0,0.0,0.0,0.0,0.0,0.0,0.0,0.0,0.0,0.0,0.0,0.0,0.0,0.0,0.0,0.0,0.0,0.0,0.0,0.0,0.0,0.0,0.0,0.0,0.0,0.0,0.0,0.0,0.0,0.0,0.0,0.0,0.0,0.0,0.0,0.0,0.0,0.0,0.0,0.0,0.0,0.0,0.0,0.0,0.0,0.0,0.0,0.0,0.0,0.0,0.0,0.0,0.0,0.0,0.0,0.0,0.0,0.0,0.0,0.0,0.0,0.0,0.0,0.0,0.0,0.0,0.0,0.0,0.0,0.0,0.0,0.0,0.0,0.0,0.0,0.0,0.0,0.0,0.0,0.0,0.0,0.0,0.0,0.0,0.0,0.0,0.0,0.0,0.0,0.0,0.0,0.0,0.0,0.0,0.0,0.0,0.0,0.0,0.0,0.0,0.0,0.0,0.0,0.0,0.0,0.0,0.0,0.0,0.0,0.0,0.0,0.0,0.0,0.0,0.0,0.0,0.0,0.0,0.0,0.0,0.0,0.0,0.0,0.0,0.0,0.0,0.0,0.0,0.0,0.0,0.0,0.0,0.0,0.0,0.0,0.0,0.0,0.0,0.0,0.0,0.0,0.0,0.0,0.0,0.0,0.0,0.0,0.0,0.0,0.0,0.0,0.0,0.0,0.0,0.0,0.0,0.0,0.0,0.0,0.0,0.0,0.0,0.0,0.0,0.0,0.0,0.0,0.0,0.0,0.0,0.0,0.0,0.0,0.0,0.0,0.0,0.0,0.0,0.0,0.0,0.0,0.0,0.0,0.0,0.0,0.0,0.0,0.0,0.0,0.0,0.0,0.0,0.0,0.0,0.0,0.0,0.0,0.0,0.0,0.0,0.0,0.0,0.0,0.0,0.0,0.0,0.0,0.0,0.0,0.0,0.0,0.0,0.0,0.0,0.0,0.0,0.0,0.0,0.0,0.0,0.0,0.0,0.0,0.0,0.0,0.0,0.0,0.0,0.0,0.0,0.0,0.0,0.0,0.0,0.0,0.0,0.0,0.0,0.0,0.0,0.0,0.0,0.0,0.0,0.0,0.0,0.0,0.0,0.0,0.0,0.0,0.0,0.0,0.0,0.0,0.0,0.0,0.0,0.0,0.0,0.0,0.0,0.0,0.0,0.0,0.0,0.0,0.0,0.0,0.0,0.0,0.0,0.0,0.0,0.0,0.0,0.0,0.0,0.0,0.0,0.0,0.0,0.0,0.0,0.0,0.0,0.0,0.0,0.0,0.0,0.0,0.0,0.0,0.0,0.0,0.0,0.0,0.0,0.0,0.0,0.0,0.0,0.0,0.0,0.0,0.0,0.0,0.0,0.0,0.0,0.0,0.0,0.0,0.0,0.0,0.0,0.0,0.0,0.0,0.0,0.0,0.0,0.0,0.0,0.0,0.0,0.0,0.0,0.0,0.0,0.0,0.0,0.0,0.0,0.0,0.0,0.0,0.0,0.0,0.0,0.0,0.0,0.0,0.0,0.0,0.0,0.0,0.0,0.0,0.0,0.0,0.0,0.0,0.0,0.0,0.0,0.0,0.0,0.0,0.0,0.0,0.0,0.0,0.0,0.0,0.0,0.0,0.0,0.0,0.0,0.0,0.0,0.0,0.0,0.0,0.0,0.0,0.0,0.0,0.0,0.0,0.0,0.0,0.0,0.0,0.0,0.0,0.0,0.0,0.0,0.0,0.0,0.0,0.0,0.0,0.0,0.0,0.0,0.0,0.0,0.0,0.0,0.0,0.0,0.0,0.0,0.0,0.0,0.0,0.0,0.0,0.0,0.0,0.0,0.0,0.0,0.0,0.0,0.0,0.0,0.0,0.0,0.0,0.0,0.0,0.0,0.0,0.0,0.0,0.0,0.0,0.0,0.0,0.0,0.0,0.0,0.0,0.0,0.0,0.0,0.0,0.0,0.0,0.0,0.0,0.0,0.0,0.0,0.0,0.0,0.0,0.0,0.0,0.0,0.0,0.0,0.0,0.0,0.0,0.0,0.0,0.0,0.0,0.0,0.0,0.0,0.0,0.0,0.0,0.0,0.0,0.0,0.0,0.0,0.0,0.0,0.0,0.0,0.0,0.0,0.0,0.0,0.0,0.0,0.0,0.0,0.0,0.0,0.0,0.0,0.0,0.0,0.0,0.0,0.0,0.0,0.0,0.0,0.0,0.0,0.0,0.0,0.0,0.0,0.0,0.0,0.0,0.0,0.0,0.0,0.0,0.0,0.0,0.0,0.0,0.0,0.0,0.0,0.0,0.0,0.0,0.0,0.0,0.0,0.0,0.0,0.0,0.0,0.0,0.0,0.0,0.0,0.0,0.0,0.0,0.0,0.0,0.0,0.0,0.0,0.0,0.0,0.0,0.0,0.0,0.0,0.0,0.0,0.0,0.0,0.0,0.0,0.0,0.0,0.0,0.0,0.0,0.0,0.0,0.0,0.0,0.0,0.0,0.0,0.0,0.0,0.0,0.0,0.0,0.0,0.0,0.0,0.0,0.0,0.0,0.0,0.0,0.0,0.0,0.0,0.0,0.0,0.0,0.0,0.0,0.0,0.0,0.0,0.0,0.0,0.0,0.0,0.0,0.0,0.0,0.0,0.0,0.0,0.0,0.0,0.0,0.0,0.0,0.0,0.0,0.0,0.0,0.0,0.0,0.0,0.0,0.0,0.0,0.0,0.0,0.0,0.0,0.0,0.0,0.0,0.0,0.0,0.0,0.0,0.0,0.0,0.0,0.0,0.0,0.0,0.0,0.0,0.0,0.0,0.0,0.2022,0.0,0.0,0.0,0.0,0.0,0.0,0.0,0.0,0.0,0.0,0.0,0.0,0.0,0.0,0.0,0.0,0.0,0.0,0.0,0.0,0.0,0.0,0.0,0.0,0.0,0.0,0.0,0.0,0.0,0.0,0.0,0.0,0.0,0.0,0.0,0.0,0.0,0.0,0.0,0.0,0.0,0.0,0.0,0.0,0.0,0.0,0.0,0.0,0.0,0.0,0.0,0.0,0.0,0.0,0.0,0.0,0.0,0.0,0.0,0.0,0.0,0.0,0.0,0.0,0.0,0.0,0.0,0.0,0.0,0.0,0.0,0.0,0.0,0.0,0.0,0.0,0.0,0.0,0.0,0.0,0.0,0.0,0.0,0.0,0.0,0.0,0.0,0.0,0.0,0.0,0.0,0.0,0.0,0.0,0.0,0.0,0.0,0.0,0.0,0.0,0.0,0.0,0.0,0.0,0.0,0.0,0.0,0.0,0.0,0.0,0.2094,0.1808,0.2276,0.2297,0.1864,0.0,0.0,0.0,0.0,0.0,0.0,0.0,0.0,0.0,0.0,0.0,0.0,0.0,0.0,0.0,0.0,0.0,0.0,0.0,0.0,0.0,0.0,0.0,0.0,0.0,0.0,0.0,0.0,0.0,0.0,0.0,0.0,0.0,0.0,0.0,0.0,0.0,0.0,0.0,0.0,0.0,0.0,0.0,0.0,0.0,0.0,0.0,0.0,0.0,0.0,0.0,0.0,0.0,0.0,0.0,0.0,0.0,0.0,0.0,0.0,0.0,0.0,0.0,0.0,0.0,0.0,0.0,0.0,0.0,0.0,0.0,0.0,0.0,0.0,0.0,0.0,0.0,0.0,0.0,0.0,0.0,0.0,0.0,0.0,0.0,0.0,0.0,0.0,0.0,0.0,0.0,0.0,0.0,0.0,0.0,0.0,0.0,0.0,0.0,0.0,0.0,0.0,0.0,0.0,0.0,0.0,0.0,0.0,0.0,0.0,0.0,0.0,0.2331,0.2294,0.1728,0.0,0.0,0.0,0.0,0.0,0.0,0.0,0.0,0.0,0.0,0.0,0.0,0.0,0.0,0.0,0.0,0.0,0.0,0.0,0.0,0.0,0.0,0.0,0.0,0.0,0.0,0.0,0.0,0.0,0.0,0.0,0.0,0.0,0.0,0.0,0.0,0.0,0.0,0.0,0.0,0.0,0.0,0.0,0.0,0.0,0.0,0.0,0.0,0.0,0.0,0.0,0.0,0.0,0.0,0.0,0.0,0.0,0.0,0.0,0.0,0.0,0.0,0.0,0.0,0.0,0.0,0.0,0.0,0.0,0.0,0.0,0.0,0.0,0.0,0.0,0.0,0.0,0.0,0.0,0.0,0.0,0.0,0.0,0.0,0.0,0.0,0.0,0.0,0.0,0.0,0.0,0.0,0.0,0.0,0.0,0.0,0.0,0.0,0.0,0.0,0.0,0.0,0.0,0.0,0.0,0.0,0.0,0.0,0.0,0.0,0.2197,0.2604,0.2321,0.0,0.1768,0.0,0.0,0.0,0.0,0.0,0.0,0.0,0.0,0.0,0.0,0.0,0.0,0.0,0.0,0.0,0.0,0.0,0.0,0.0,0.0,0.0,0.0,0.0,0.0,0.0,0.0,0.0,0.0,0.0,0.0,0.0,0.0,0.0,0.0,0.0,0.0,0.0,0.0,0.0,0.0,0.0,0.0,0.0,0.0,0.0,0.0,0.0,0.0,0.0,0.0,0.0,0.0,0.0,0.0,0.0,0.0,0.0,0.0,0.0,0.0,0.0,0.0,0.0,0.0,0.0,0.0,0.0,0.0,0.0,0.0,0.0,0.0,0.0,0.0,0.0,0.0,0.0,0.0,0.0,0.0,0.0,0.0,0.0,0.0,0.0,0.0,0.0,0.0,0.0,0.0,0.0,0.0,0.0,0.0,0.0,0.0,0.0,0.0,0.0,0.0,0.0,0.0,0.0,0.0,0.0,0.0,0.0,0.0,0.0,0.0,0.2321,0.2475,0.2328,0.2069,0.0,0.0,0.0,0.0,0.0,0.0,0.0,0.0,0.0,0.0,0.0,0.0,0.0,0.0,0.0,0.0,0.0,0.0,0.0,0.0,0.0,0.0,0.0,0.0,0.0,0.0,0.0,0.0,0.0,0.0,0.0,0.0,0.0,0.0,0.0,0.0,0.0,0.0,0.0,0.0,0.0,0.0,0.0,0.0,0.0,0.0,0.0,0.0,0.0,0.0,0.0,0.0,0.0,0.0,0.0,0.0,0.0,0.0,0.0,0.0,0.0,0.0,0.0,0.0,0.0,0.0,0.0,0.0,0.0,0.0,0.0,0.0,0.0,0.0,0.0,0.0,0.0,0.0,0.0,0.0,0.0,0.0,0.0,0.0,0.0,0.0,0.0,0.0,0.0,0.0,0.0,0.0,0.0,0.0,0.0,0.0,0.0,0.0,0.0,0.0,0.0,0.0,0.0,0.0,0.0,0.0,0.0,0.0,0.0,0.0,0.2341,0.231,0.2258,0.233,0.2137,0.1669,0.0,0.0,0.0,0.0,0.0,0.0,0.0,0.0,0.0,0.0,0.0,0.0,0.0,0.0,0.0,0.0,0.0,0.0,0.0,0.0,0.0,0.0,0.0,0.0,0.0,0.0,0.0,0.0,0.0,0.0,0.0,0.0,0.0,0.0,0.0,0.0,0.0,0.0,0.0,0.0,0.0,0.0,0.0,0.0,0.0,0.0,0.0,0.0,0.0,0.0,0.0,0.0,0.0,0.0,0.0,0.0,0.0,0.0,0.0,0.0,0.0,0.0,0.0,0.0,0.0,0.0,0.0,0.0,0.0,0.0,0.0,0.0,0.0,0.0,0.0,0.0,0.0,0.0,0.0,0.0,0.0,0.0,0.0,0.0,0.0,0.0,0.0,0.0,0.0,0.0,0.0,0.0,0.0,0.0,0.0,0.0,0.0,0.0,0.0,0.0,0.0,0.0,0.0,0.0,0.0,0.0,0.0,0.0,0.3348,0.2627,0.217,0.2126,0.2228,0.2245,0.0,0.0,0.0,0.0,0.0,0.0,0.0,0.0,0.0,0.0,0.0,0.0,0.0,0.0,0.0,0.0,0.0,0.0,0.0,0.0,0.0,0.0,0.0,0.0,0.0,0.0,0.0,0.0,0.0,0.0,0.0,0.0,0.0,0.0,0.0,0.0,0.0,0.0,0.0,0.0,0.0,0.0,0.0,0.0,0.0,0.0,0.0,0.0,0.0,0.0,0.0,0.0,0.0,0.0,0.0,0.0,0.0,0.0,0.0,0.0,0.0,0.0,0.0,0.0,0.0,0.0,0.0,0.0,0.0,0.0,0.0,0.0,0.0,0.0,0.0,0.0,0.0,0.0,0.0,0.0,0.0,0.0,0.0,0.0,0.0,0.0,0.0,0.0,0.0,0.0,0.0,0.0,0.0,0.0,0.0,0.0,0.0,0.0,0.0,0.0,0.0,0.0,0.0,0.0,0.0,0.0,0.0,0.0,0.0,0.2672,0.2617,0.2536,0.2435,0.2508,0.2492,0.0,0.0,0.0,0.0,0.0,0.0,0.0,0.0,0.0,0.0,0.0,0.0,0.0,0.0,0.0,0.0,0.0,0.0,0.0,0.0,0.0,0.0,0.0,0.0,0.0,0.0,0.0,0.0,0.0,0.0,0.0,0.0,0.0,0.0,0.0,0.0,0.0,0.0,0.0,0.0,0.0,0.0,0.0,0.0,0.0,0.0,0.0,0.0,0.0,0.0,0.0,0.0,0.0,0.0,0.0,0.0,0.0,0.0,0.0,0.0,0.0,0.0,0.0,0.0,0.0,0.0,0.0,0.0,0.0,0.0,0.0,0.0,0.0,0.0,0.0,0.0,0.0,0.0,0.0,0.0,0.0,0.0,0.0,0.0,0.0,0.0,0.0,0.0,0.0,0.0,0.0,0.0,0.0,0.0,0.0,0.0,0.0,0.0,0.0,0.0,0.0,0.0,0.0,0.0,0.0,0.0,0.0,0.0,0.0,0.2482,0.0,0.2786,0.2518,0.2599,0.2543,0.0,0.0,0.0,0.0,0.0,0.0,0.0,0.0,0.0,0.0,0.0,0.0,0.0,0.0,0.0,0.0,0.0,0.0,0.0,0.0,0.0,0.0,0.0,0.0,0.0,0.0,0.0,0.0,0.0,0.0,0.0,0.0,0.0,0.0,0.0,0.0,0.0,0.0,0.0,0.0,0.0,0.0,0.0,0.0,0.0,0.0,0.0,0.0,0.0,0.0,0.0,0.0,0.0,0.0,0.0,0.0,0.0,0.0,0.0,0.0,0.0,0.0,0.0,0.0,0.0,0.0,0.0,0.0,0.0,0.0,0.0,0.0,0.0,0.0,0.0,0.0,0.0,0.0,0.0,0.0,0.0,0.0,0.0,0.0,0.0,0.0,0.0,0.0,0.0,0.0,0.0,0.0,0.0,0.0,0.0,0.0,0.0,0.0,0.0,0.0,0.0,0.0,0.0,0.0,0.0,0.0,0.0,0.0,0.2821,0.3008,0.3123,0.2961,0.2374,0.2525,0.2344,0.0,0.0,0.0,0.0,0.0,0.0,0.0,0.0,0.0,0.0,0.0,0.0,0.0,0.0,0.0,0.0,0.0,0.0,0.0,0.0,0.0,0.0,0.0,0.0,0.0,0.0,0.0,0.0,0.0,0.0,0.0,0.0,0.0,0.0,0.0,0.0,0.0,0.0,0.0,0.0,0.0,0.0,0.0,0.0,0.0,0.0,0.0,0.0,0.0,0.0,0.0,0.0,0.0,0.0,0.0,0.0,0.0,0.0,0.0,0.0,0.0,0.0,0.0,0.0,0.0,0.0,0.0,0.0,0.0,0.0,0.0,0.0,0.0,0.0,0.0,0.0,0.0,0.0,0.0,0.0,0.0,0.0,0.0,0.0,0.0,0.0,0.0,0.0,0.0,0.0,0.0,0.0,0.0,0.0,0.0,0.0,0.0,0.0,0.0,0.0,0.0,0.0,0.0,0.0,0.0,0.0,0.0,0.0,0.0,0.3293,0.3441,0.3648,0.3835,0.2725,0.2428,0.0,0.0,0.0,0.0,0.0,0.0,0.0,0.0,0.0,0.0,0.0,0.0,0.0,0.0,0.0,0.0,0.0,0.0,0.0,0.0,0.0,0.0,0.0,0.0,0.0,0.0,0.0,0.0,0.0,0.0,0.0,0.0,0.0,0.0,0.0,0.0,0.0,0.0,0.0,0.0,0.0,0.0,0.0,0.0,0.0,0.0,0.0,0.0,0.0,0.0,0.0,0.0,0.0,0.0,0.0,0.0,0.0,0.0,0.0,0.0,0.0,0.0,0.0,0.0,0.0,0.0,0.0,0.0,0.0,0.0,0.0,0.0,0.0,0.0,0.0,0.0,0.0,0.0,0.0,0.0,0.0,0.0,0.0,0.0,0.0,0.0,0.0,0.0,0.0,0.0,0.0,0.0,0.0,0.0,0.0,0.0,0.0,0.0,0.0,0.0,0.0,0.0,0.0,0.0,0.0,0.0,0.0,0.0,0.0,0.3446,0.3391,0.3533,0.3929,0.2679,0.2411,0.3215,0.0,0.0,0.0,0.0,0.0,0.0,0.0,0.0,0.0,0.0,0.0,0.0,0.0,0.0,0.0,0.0,0.0,0.0,0.0,0.0,0.0,0.0,0.0,0.0,0.0,0.0,0.0,0.0,0.0,0.0,0.0,0.0,0.0,0.0,0.0,0.0,0.0,0.0,0.0,0.0,0.0,0.0,0.0,0.0,0.0,0.0,0.0,0.0,0.0,0.0,0.0,0.0,0.0,0.0,0.0,0.0,0.0,0.0,0.0,0.0,0.0,0.0,0.0,0.0,0.0,0.0,0.0,0.0,0.0,0.0,0.0,0.0,0.0,0.0,0.0,0.0,0.0,0.0,0.0,0.0,0.0,0.0,0.0,0.0,0.0,0.0,0.0,0.0,0.0,0.0,0.0,0.0,0.0,0.0,0.0,0.0,0.0,0.0,0.0,0.0,0.0,0.0,0.0,0.0,0.0,0.0,0.0,0.0,0.3445,0.3002,0.2841,0.2951,0.2481,0.2324,0.0,0.0,0.0,0.0,0.0,0.0,0.0,0.0,0.0,0.0,0.0,0.0,0.0,0.0,0.0,0.0,0.0,0.0,0.0,0.0,0.0,0.0,0.0,0.0,0.0,0.0,0.0,0.0,0.0,0.0,0.0,0.0,0.0,0.0,0.0,0.0,0.0,0.0,0.0,0.0,0.0,0.0,0.0,0.0,0.0,0.0,0.0,0.0,0.0,0.0,0.0,0.0,0.0,0.0,0.0,0.0,0.0,0.0,0.0,0.0,0.0,0.0,0.0,0.0,0.0,0.0,0.0,0.0,0.0,0.0,0.0,0.0,0.0,0.0,0.0,0.0,0.0,0.0,0.0,0.0,0.0,0.0,0.0,0.0,0.0,0.0,0.0,0.0,0.0,0.0,0.0,0.0,0.0,0.0,0.0,0.0,0.0,0.0,0.0,0.0,0.0,0.0,0.0,0.0,0.0,0.0,0.0,0.0,0.0,0.2917,0.2694,0.313,0.4256,0.3016,0.2518,0.0,0.0,0.0,0.0,0.0,0.0,0.0,0.0,0.0,0.0,0.0,0.0,0.0,0.0,0.0,0.0,0.0,0.0,0.0,0.0,0.0,0.0,0.0,0.0,0.0,0.0,0.0,0.0,0.0,0.0,0.0,0.0,0.0,0.0,0.0,0.0,0.0,0.0,0.0,0.0,0.0,0.0,0.0,0.0,0.0,0.0,0.0,0.0,0.0,0.0,0.0,0.0,0.0,0.0,0.0,0.0,0.0,0.0,0.0,0.0,0.0,0.0,0.0,0.0,0.0,0.0,0.0,0.0,0.0,0.0,0.0,0.0,0.0,0.0,0.0,0.0,0.0,0.0,0.0,0.0,0.0,0.0,0.0,0.0,0.0,0.0,0.0,0.0,0.0,0.0,0.0,0.0,0.0,0.0,0.0,0.0,0.0,0.0,0.0,0.0,0.0,0.0,0.0,0.0,0.0,0.0,0.0,0.0,0.2765,0.2687,0.2625,0.3132,0.4278,0.3194,0.2751,0.0,0.0,0.0,0.0,0.0,0.0,0.0,0.0,0.0,0.0,0.0,0.0,0.0,0.0,0.0,0.0,0.0,0.0,0.0,0.0,0.0,0.0,0.0,0.0,0.0,0.0,0.0,0.0,0.0,0.0,0.0,0.0,0.0,0.0,0.0,0.0,0.0,0.0,0.0,0.0,0.0,0.0,0.0,0.0,0.0,0.0,0.0,0.0,0.0,0.0,0.0,0.0,0.0,0.0,0.0,0.0,0.0,0.0,0.0,0.0,0.0,0.0,0.0,0.0,0.0,0.0,0.0,0.0,0.0,0.0,0.0,0.0,0.0,0.0,0.0,0.0,0.0,0.0,0.0,0.0,0.0,0.0,0.0,0.0,0.0,0.0,0.0,0.0,0.0,0.0,0.0,0.0,0.0,0.0,0.0,0.0,0.0,0.0,0.0,0.0,0.0,0.0,0.0,0.0,0.0,0.0,0.0,0.0,0.2477,0.2636,0.268,0.2915,0.3361,0.3108,0.2949,0.0,0.0,0.0,0.0,0.0,0.0,0.0,0.0,0.0,0.0,0.0,0.0,0.0,0.0,0.0,0.0,0.0,0.0,0.0,0.0,0.0,0.0,0.0,0.0,0.0,0.0,0.0,0.0,0.0,0.0,0.0,0.0,0.0,0.0,0.0,0.0,0.0,0.0,0.0,0.0,0.0,0.0,0.0,0.0,0.0,0.0,0.0,0.0,0.0,0.0,0.0,0.0,0.0,0.0,0.0,0.0,0.0,0.0,0.0,0.0,0.0,0.0,0.0,0.0,0.0,0.0,0.0,0.0,0.0,0.0,0.0,0.0,0.0,0.0,0.0,0.0,0.0,0.0,0.0,0.0,0.0,0.0,0.0,0.0,0.0,0.0,0.0,0.0,0.0,0.0,0.0,0.0,0.0,0.0,0.0,0.0,0.0,0.0,0.0,0.0,0.0,0.0,0.0,0.0,0.0,0.0,0.0,0.0,0.1882,0.2377,0.2546,0.2667,0.2778,0.2669,0.259,0.0,0.0,0.0,0.0,0.0,0.0,0.0,0.0,0.0,0.0,0.0,0.0,0.0,0.0,0.0,0.0,0.0,0.0,0.0,0.0,0.0,0.0,0.0,0.0,0.0,0.0,0.0,0.0,0.0,0.0,0.0,0.0,0.0,0.0,0.0,0.0,0.0,0.0,0.0,0.0,0.0,0.0,0.0,0.0,0.0,0.0,0.0,0.0,0.2745,0.0,0.0,0.0,0.0,0.0,0.0,0.0,0.0,0.0,0.0,0.0,0.0,0.0,0.0,0.0,0.0,0.0,0.0,0.0,0.0,0.0,0.0,0.0,0.0,0.0,0.0,0.0,0.0,0.0,0.0,0.0,0.0,0.0,0.0,0.0,0.0,0.0,0.0,0.0,0.0,0.0,0.0,0.0,0.0,0.0,0.0,0.0,0.0,0.0,0.0,0.0,0.0,0.0,0.0,0.0,0.0,0.0,0.0,0.0,0.219,0.2563,0.2659,0.2674,0.2641,0.2544,0.247,0.0,0.0,0.0,0.0,0.0,0.0,0.0,0.0,0.0,0.0,0.0,0.0,0.0,0.0,0.0,0.0,0.0,0.0,0.0,0.0,0.0,0.0,0.0,0.0,0.0,0.0,0.0,0.0,0.0,0.0,0.0,0.0,0.0,0.0,0.0,0.0,0.0,0.0,0.0,0.0,0.0,0.0,0.0,0.0,0.0,0.0,0.0,0.0,0.0,0.0,0.0,0.0,0.0,0.0,0.0,0.0,0.0,0.0,0.0,0.0,0.0,0.0,0.0,0.0,0.0,0.0,0.0,0.0,0.0,0.0,0.0,0.0,0.0,0.0,0.0,0.0,0.0,0.0,0.0,0.0,0.0,0.0,0.0,0.0,0.0,0.0,0.0,0.0,0.0,0.0,0.0,0.0,0.0,0.0,0.0,0.0,0.0,0.0,0.0,0.0,0.0,0.0,0.0,0.0,0.0,0.0,0.0,0.251,0.2762,0.2869,0.2863,0.2822,0.2761,0.266,0.2544,0.2476,0.0,0.0,0.0,0.0,0.0,0.0,0.0,0.0,0.0,0.0,0.0,0.0,0.0,0.0,0.0,0.0,0.0,0.0,0.0,0.0,0.0,0.0,0.0,0.0,0.0,0.0,0.0,0.0,0.0,0.0,0.0,0.0,0.0,0.0,0.0,0.0,0.0,0.0,0.0117,0.0852,0.0,0.0,0.0,0.0,0.0,0.0,0.0,0.0,0.3687,0.0,0.0,0.0,0.0,0.0,0.0,0.0,0.0,0.0,0.0,0.0,0.0,0.0,0.0,0.0,0.0,0.0,0.0,0.0,0.0,0.0,0.0,0.0,0.0,0.0,0.0,0.0,0.0,0.0,0.0,0.0,0.0,0.0,0.0,0.0,0.0,0.0,0.0,0.0,0.0,0.0,0.0,0.0,0.0,0.0,0.0,0.0,0.0,0.0,0.0,0.0,0.0,0.0,0.0,0.0,0.0,0.2976,0.2849,0.2807,0.2811,0.2915,0.2994,0.3037,0.301,0.2922,0.2752,0.0,0.0,0.0,0.0,0.0,0.0,0.0,0.0,0.0,0.0,0.0,0.0,0.0,0.0,0.0,0.0,0.0,0.0,0.0,0.0,0.0,0.0,0.0,0.0,0.0,0.0,0.0,0.0,0.0,0.0,0.0,0.0,0.0,0.0,0.0,0.0,0.0,0.0,0.0,0.0864,0.1637,0.0,0.0,0.0,0.0,0.0,0.0,0.0,0.0,0.4288,0.0,0.0,0.0,0.0,0.0,0.0,0.0,0.0,0.0,0.0,0.0,0.0,0.0,0.0,0.0,0.0,0.0,0.0,0.0,0.0,0.0,0.0,0.0,0.0,0.0,0.0,0.0,0.0,0.0,0.0,0.0,0.0,0.0,0.0,0.0,0.0,0.0,0.0,0.0,0.0,0.0,0.0,0.0,0.0,0.0,0.0,0.0,0.0,0.0,0.0,0.0,0.0,0.0,0.0,0.0,0.3321,0.3021,0.2889,0.3014,0.3103,0.3136,0.3109,0.3064,0.3111,0.0,0.0,0.0,0.0,0.0,0.0,0.0,0.0,0.0,0.0,0.0,0.0,0.0,0.0,0.0,0.0,0.0,0.0,0.0,0.0,0.0,0.0,0.0,0.0,0.0,0.0,0.0,0.0,0.0,0.0,0.0,0.0,0.0,0.0,0.0,0.0,0.0,0.0,0.0,0.0,0.1137,0.175,0.2288,0.0,0.0,0.0,0.0,0.0,0.0,0.4344,0.4601,0.0,0.0,0.0,0.0,0.0,0.0,0.0,0.0,0.0,0.0,0.0,0.0,0.0,0.0,0.0,0.0,0.0,0.0,0.0,0.0,0.0,0.0,0.0,0.0,0.0,0.0,0.0,0.0,0.0,0.0,0.0,0.0,0.0,0.0,0.0,0.0,0.0,0.0,0.0,0.0,0.0,0.0,0.0,0.0,0.0,0.0,0.0,0.0,0.0,0.0,0.0,0.0,0.0,0.0,0.0,0.347,0.311,0.3008,0.3177,0.3287,0.3281,0.3154,0.3124,0.3247,0.0,0.0,0.0,0.0,0.0,0.0,0.0,0.0,0.0,0.0,0.0,0.0,0.0,0.0,0.0,0.0,0.0,0.0,0.0,0.0,0.0,0.0,0.0,0.0,0.0,0.0,0.0,0.0,0.0,0.0,0.0,0.0,0.0,0.0,0.0,0.0,0.0,0.0,0.0,0.0,0.0,0.1904,0.2459,0.3043,0.0,0.0,0.0,0.0,0.4142,0.4731,0.0,0.0,0.0,0.0,0.0,0.0,0.0,0.0,0.0,0.0,0.0,0.0,0.0,0.0,0.0,0.0,0.0,0.0,0.0,0.0,0.0,0.0,0.0,0.0,0.0,0.0,0.0,0.0,0.0,0.0,0.0,0.0,0.0,0.0,0.0,0.0,0.0,0.0,0.0,0.0,0.0,0.0,0.0,0.0,0.0,0.0,0.0,0.0,0.0,0.0,0.0,0.0,0.0,0.0,0.0,0.0,0.3494,0.3103,0.296,0.3124,0.3366,0.341,0.3281,0.3378,0.3327,0.0,0.0,0.0,0.0,0.0,0.0,0.0,0.0,0.0,0.0,0.0,0.0,0.0,0.0,0.0,0.0,0.0,0.0,0.0,0.0,0.0,0.0,0.0,0.0,0.0,0.0,0.0,0.0,0.0,0.0,0.0,0.0,0.0,0.0,0.0,0.0,0.0,0.0,0.0,0.0,0.0,0.1939,0.1918,0.2802,0.3385,0.0,0.0,0.4359,0.4143,0.5583,0.0,0.0,0.0,0.0,0.0,0.0,0.0,0.0,0.0,0.0,0.0,0.0,0.0,0.0,0.0,0.0,0.0,0.0,0.0,0.0,0.0,0.0,0.0,0.0,0.0,0.0,0.0,0.0,0.0,0.0,0.0,0.0,0.0,0.0,0.0,0.0,0.0,0.0,0.0,0.0,0.0,0.0,0.0,0.0,0.0,0.0,0.0,0.0,0.0,0.0,0.0,0.0,0.0,0.0,0.0,0.3751,0.3818,0.3217,0.2991,0.3203,0.3441,0.3506,0.3419,0.3505,0.3697,0.0,0.0,0.0,0.0,0.0,0.0,0.0,0.0,0.0,0.0,0.0,0.0,0.0,0.0,0.0,0.0,0.0,0.0,0.0,0.0,0.0,0.0,0.0,0.0,0.0,0.0,0.0,0.0,0.0,0.0,0.0,0.0,0.0,0.0,0.0,0.0,0.0,0.0,0.0,0.0,0.0,0.0,0.2422,0.3692,0.0,0.0,0.0,0.5186,0.4838,0.0,0.0,0.0,0.0,0.0,0.0,0.0,0.0,0.0,0.0,0.0,0.0,0.0,0.0,0.0,0.0,0.0,0.0,0.0,0.0,0.0,0.0,0.0,0.0,0.0,0.0,0.0,0.0,0.0,0.0,0.0,0.0,0.0,0.0,0.0,0.0,0.0,0.0,0.0,0.0,0.0,0.0,0.0,0.0,0.0,0.0,0.0,0.0,0.0,0.0,0.0,0.0,0.0,0.0,0.0,0.0,0.0,0.4085,0.3304,0.3029,0.33,0.3501,0.3572,0.3515,0.3571,0.0,0.0,0.0,0.0,0.0,0.0,0.0,0.0,0.0,0.0,0.0,0.0,0.0,0.0,0.0,0.0,0.0,0.0,0.0,0.0,0.0,0.0,0.0,0.0,0.0,0.0,0.0,0.2403,0.0,0.0,0.0,0.0,0.0,0.0,0.0,0.0,0.0,0.0,0.0,0.0,0.0,0.0,0.2912,0.2915,0.4342,0.5225,0.0,0.0,0.5715,0.5297,0.6159,0.6778,0.0,0.0,0.0,0.0,0.0,0.0,0.0,0.0,0.0,0.0,0.0,0.0,0.0,0.0,0.0,0.0,0.0,0.0,0.0,0.0,0.0,0.0,0.0,0.0,0.0,0.0,0.0,0.0,0.0,0.0,0.0,0.0,0.0,0.0,0.0,0.0,0.0,0.0,0.0,0.0,0.0,0.0,0.0,0.0,0.0,0.0,0.0,0.0,0.0,0.0,0.0,0.0,0.0,0.0,0.0,0.407,0.3304,0.3026,0.3283,0.3493,0.3572,0.3515,0.3626,0.389,0.0,0.0,0.0,0.0,0.0,0.0,0.0,0.0,0.0,0.0,0.0,0.0,0.0,0.0,0.0,0.0,0.0,0.0,0.0,0.0,0.0,0.0,0.0,0.0,0.0,0.0,0.0,0.0,0.0,0.0,0.0,0.0,0.0,0.0,0.0,0.0,0.0,0.0,0.0,0.0,0.0,0.3159,0.3009,0.417,0.4921,0.0,0.0,0.5568,0.51,0.6807,0.7771,0.6571,0.0,0.0,0.0,0.0,0.0,0.0,0.0,0.0,0.0,0.0,0.0,0.0,0.0,0.0,0.0,0.0,0.0,0.0,0.0,0.0,0.0,0.0,0.0,0.0,0.0,0.0,0.0,0.0,0.0,0.0,0.0,0.0,0.0,0.0,0.0,0.0,0.0,0.0,0.0,0.0,0.0,0.0,0.0,0.0,0.0,0.0,0.0,0.0,0.0,0.0,0.0,0.0,0.0,0.4203,0.4085,0.3432,0.3193,0.342,0.3624,0.3695,0.3686,0.378,0.3962,0.0,0.0,0.0,0.0,0.0,0.0,0.0,0.0,0.0,0.0,0.0,0.0,0.0,0.0,0.0,0.0,0.0,0.0,0.0,0.0,0.0,0.0,0.0,0.0,0.0,0.0,0.0,0.0,0.2663,0.2555,0.2314,0.0,0.0,0.0,0.0,0.0,0.0,0.0,0.0,0.0,0.0,0.4303,0.4257,0.5077,0.0,0.0,0.5605,0.5841,0.5576,0.6559,0.7141,0.6669,0.6686,0.0,0.0,0.0,0.0,0.0,0.0,0.0,0.0,0.0,0.0,0.0,0.0,0.0,0.0,0.0,0.0,0.0,0.0,0.0,0.0,0.0,0.0,0.0,0.0,0.0,0.0,0.0,0.0,0.0,0.0,0.0,0.0,0.0,0.0,0.0,0.0,0.0,0.0,0.0,0.0,0.0,0.0,0.0,0.0,0.0,0.0,0.0,0.0,0.0,0.0,0.0,0.0,0.4389,0.4156,0.3517,0.3296,0.3533,0.3664,0.3756,0.3794,0.3855,0.4045,0.0,0.0,0.0,0.0,0.0,0.0,0.0,0.0,0.0,0.0,0.0,0.0,0.0,0.0,0.0,0.0,0.0,0.0,0.0,0.0,0.0,0.0,0.0,0.0,0.0,0.0,0.0,0.0,0.2919,0.2761,0.2433,0.0,0.0,0.0,0.0,0.0,0.0,0.0,0.0,0.0,0.0,0.522,0.5209,0.5728,0.6067,0.601,0.6148,0.6314,0.6429,0.6644,0.6753,0.6625,0.0,0.0,0.0,0.0,0.0,0.0,0.0,0.0,0.0,0.0,0.0,0.0,0.0,0.0,0.0,0.0,0.0,0.0,0.0,0.0,0.0,0.0,0.0,0.0,0.0,0.0,0.0,0.0,0.0,0.0,0.8243,0.0,0.0,0.0,0.0,0.0,0.0,0.0,0.0,0.0,0.0,0.0,0.0,0.0,0.0,0.0,0.0,0.0,0.0,0.0,0.0,0.0,0.0,0.4452,0.4287,0.3535,0.3266,0.3589,0.3605,0.3665,0.3794,0.3877,0.4156,0.4666,0.0,0.0,0.0,0.0,0.0,0.0,0.0,0.0,0.0,0.0,0.0,0.0,0.0,0.0,0.0,0.0,0.0,0.0,0.0,0.0,0.0,0.0,0.0,0.0,0.0,0.0,0.3369,0.3278,0.3256,0.0,0.0,0.0,0.0,0.0,0.0,0.0,0.0,0.0,0.0,0.5157,0.5705,0.5717,0.5828,0.6166,0.6765,0.668,0.6811,0.7517,0.7286,0.6855,0.0,0.0,0.0,0.0,0.0,0.0,0.0,0.0,0.0,0.0,0.0,0.0,0.0,0.0,0.0,0.0,0.0,0.0,0.0,0.0,0.0,0.0,0.0,0.0,0.0,0.0,0.0,0.7207,0.7377,0.0,0.0,0.0,0.0,0.0,0.0,0.0,0.0,0.0,0.0,0.0,0.6793,0.7188,0.0,0.0,0.0,0.0,0.0,0.0,0.0,0.0,0.0,0.0,0.0,0.0,0.5137,0.4702,0.3961,0.3579,0.3605,0.3728,0.3833,0.3869,0.3876,0.4108,0.454,0.0,0.0,0.0,0.0,0.0,0.0,0.0,0.0,0.0,0.0,0.0,0.0,0.0,0.0,0.0,0.0,0.0,0.0,0.0,0.0,0.0,0.0,0.0,0.0,0.0,0.3943,0.0,0.0,0.0,0.0,0.0,0.0,0.0,0.0,0.0,0.0,0.0,0.471,0.5581,0.5993,0.6293,0.6521,0.6422,0.6437,0.0,0.0,0.0,0.0,0.0,0.0,0.0,0.0,0.0,0.0,0.0,0.0,0.0,0.0,0.6591,0.6189,0.5446,0.4978,0.5201,0.0,0.0,0.0,0.0,0.0,0.0,0.0,0.0,0.0,0.0,0.0,0.0,0.0,0.0,0.0,0.0,0.7847,0.0,0.0,0.0,0.0,0.0,0.0,0.0,0.0,0.706,0.6792,0.6192,0.6674,0.68,0.0,0.7037,0.6928,0.0,0.0,0.0,0.0,0.0,0.0,0.0,0.0,0.5793,0.4995,0.462,0.4291,0.4072,0.4169,0.4114,0.392,0.3905,0.4014,0.4235,0.4128,0.4357,0.0,0.0,0.0,0.0,0.0,0.0,0.0,0.0,0.0,0.0,0.0,0.0,0.0,0.0,0.0,0.0,0.0,0.0,0.0,0.0,0.0,0.0,0.0,0.4418,0.0,0.0,0.0,0.0,0.0,0.0,0.0,0.0,0.0,0.5268,0.5101,0.535,0.6281,0.6542,0.6799,0.7134,0.0,0.0,0.0,0.0,0.0,0.0,0.0,0.8658,0.8511,0.842,0.8443,0.8725,0.8423,0.8289,0.8643,0.0,0.0,0.6936,0.6148,0.5613,0.5702,0.515,0.4944,0.5779,0.5622,0.542,0.0,0.0,0.0,0.0,0.0,0.0,0.0,0.0,0.8395,0.874,0.0,0.8705,0.0,0.0,0.0,0.0,0.0,0.7362,0.0,0.0,0.656,0.593,0.5876,0.5797,0.5664,0.5639,0.6785,0.6944,0.6282,0.6726,0.0,0.0,0.0,0.0,0.0,0.0,0.6328,0.5215,0.5414,0.5328,0.488,0.4802,0.4493,0.3928,0.3905,0.3877,0.3825,0.4228,0.4403,0.4263,0.5519,0.0,0.0,0.0,0.0,0.0,0.0,0.0,0.0,0.0,0.0,0.0,0.0,0.0,0.0,0.0,0.0,0.0,0.0,0.0,0.0,0.4519,0.0,0.0,0.0,0.0,0.0,0.0,0.0,0.0,0.0,0.0,0.6404,0.611,0.6053,0.6567,0.0,0.0,0.0,0.0,0.7492,0.841,0.8329,0.8386,0.9037,0.9305,0.9243,0.8927,0.0,0.0,0.8416,0.7871,0.773,0.82,0.786,0.7598,0.8172,0.69,0.5976,0.6392,0.5961,0.5847,0.67,0.6457,0.6143,0.8642,0.0,0.0,0.0,0.0,0.8573,0.844,0.8216,0.8192,0.8318,0.8484,0.8294,0.0,0.0,0.0,0.0,0.0,0.0,0.7318,0.6909,0.719,0.6685,0.5508,0.6682,0.7228,0.7243,0.757,0.7848,0.8088,0.7911,0.7556,0.7042,0.0,0.0,0.0,0.0,0.6707,0.6026,0.5402,0.5017,0.4831,0.4385,0.4084,0.3905,0.3905,0.3898,0.3877,0.3954,0.4286,0.4882,0.5207,0.0,0.0,0.0,0.0,0.0,0.0,0.0,0.0,0.0,0.0,0.0,0.0,0.0,0.0,0.0,0.0,0.0,0.0,0.0,0.541,0.5127,0.4964,0.0,0.0,0.0,0.0,0.0,0.0,0.0,0.0,0.0,0.7448,0.6808,0.6606,0.0,0.0,0.75,0.7752,0.7908,0.8124,0.841,0.0,0.0,0.0,0.9159,0.9158,0.8902,0.8763,0.8504,0.8078,0.8261,0.8461,0.8508,0.8163,0.8029,0.8242,0.7518,0.6913,0.7142,0.7042,0.7048,0.749,0.7458,0.738,0.9938,0.9767,0.9404,0.9126,0.8917,0.8566,0.8329,0.8197,0.8234,0.839,0.8549,0.8339,0.84,0.8602,0.8249,0.0,0.0,0.0,0.7555,0.7077,0.7349,0.709,0.6386,0.6856,0.7114,0.7137,0.7652,0.8057,0.8375,0.8528,0.8291,0.7714,0.0,0.0,0.7086,0.7358,0.7176,0.6554,0.6235,0.5821,0.5245,0.4366,0.3905,0.3906,0.4152,0.4301,0.4293,0.4529,0.4884,0.5417,0.58,0.6096,0.0,0.0,0.0,0.0,0.0,0.0,0.0,0.0,0.0,0.0,0.0,0.4811,0.0,0.0,0.0,0.0,0.5111,0.5702,0.5441,0.5261,0.0,0.0,0.0,0.0,0.0,0.0,0.0,0.6829,0.7241,0.7661,0.7979,0.746,0.7277,0.7815,0.7822,0.7812,0.8066,0.0,0.841,0.8527,0.8743,0.8906,0.8906,0.9064,0.9003,0.8741,0.8543,0.832,0.8098,0.8299,0.8515,0.8499,0.8224,0.8153,0.8467,0.8057,0.769,0.7732,0.7702,0.7748,0.7983,0.7953,0.7915,1.1393,1.1327,1.0378,0.985,0.9521,0.8662,0.8273,0.8296,0.843,0.8758,0.9158,0.8677,0.8716,0.9057,0.8513,0.0,0.9046,0.8372,0.8071,0.802,0.7422,0.7405,0.7813,0.6695,0.6134,0.619,0.7391,0.7923,0.7924,0.883,0.9215,0.907,0.8763,0.8135,0.7333,0.7855,0.7699,0.6742,0.7457,0.7228,0.5918,0.4687,0.407,0.4092,0.4653,0.4975,0.5006,0.5571,0.587,0.5852,0.679,0.7005,0.6311,0.0,0.0,0.0,0.0,0.0,0.0,0.0,0.0,0.0,0.0,0.0,0.0,0.0,0.0,0.0,0.5518,0.0,0.4964,0.5102,0.0,0.0,0.0,0.6457,0.6544,0.7093,0.7338,0.7111,0.0,0.0,0.821,0.0,0.7951,0.7951,0.7935,0.8076,0.8367,0.8414,0.8504,0.8702,0.8748,0.8808,0.8798,0.8823,0.8816,0.8585,0.8473,0.8372,0.8215,0.8157,0.8225,0.8373,0.8101,0.8088,0.8707,0.8473,0.8297,0.8267,0.8078,0.8008,0.8072,0.8052,0.7966,1.204,1.2894,1.1434,1.0353,0.9541,0.8558,0.8141,0.8164,0.8408,0.8451,0.8389,0.8252,0.8521,0.9111,0.9407,0.9633,0.9735,0.953,0.9435,0.9417,0.9258,0.8732,0.7929,0.81,0.8177,0.8207,0.8514,0.9065,0.9793,1.0086,1.0072,0.9849,0.96,0.8866,0.7668,0.833,0.8145,0.7014,0.739,0.7045,0.5937,0.559,0.5423,0.5434,0.5585,0.5665,0.5665,0.5814,0.5885,0.587,0.594,0.589,0.5706,0.6234,0.0,0.0,0.0,0.0,0.0,0.0,0.0,0.0,0.0,0.5857,0.538,0.0,0.5585,0.0,0.5265,0.5512,0.5776,0.571,0.0,0.0,0.6474,0.6674,0.7209,0.7538,0.7823,0.8027,0.8163,0.8287,0.8627,0.8627,0.8542,0.8426,0.835,0.8373,0.8537,0.8531,0.8554,0.8514,0.8583,0.8633,0.862,0.8491,0.8469,0.8723,0.8493,0.8215,0.7997,0.8175,0.8346,0.836,0.7957,0.7942,0.8633,0.82,0.805,0.8507,0.8627,0.8397,0.7853,0.8138,0.832,1.2856,1.348,1.2254,1.1344,1.0683,0.9613,0.9036,0.889,0.9114,0.921,0.9205,0.9049,0.8895,0.8807,0.9623,1.0013,1.0,1.0241,1.05,1.0725,1.0432,1.0062,0.9632,0.9431,0.9346,0.9338,0.922,0.9611,1.0438,1.0257,1.0232,1.0354,1.0133,0.9532,0.8552,0.8772,0.8576,0.7946,0.7536,0.7149,0.6786,0.6027,0.5863,0.6316,0.6167,0.6235,0.6562,0.6274,0.6377,0.6877,0.6436,0.616,0.618,0.7087,0.7204,0.0,0.0,0.0,0.0,0.0,0.0,0.0,0.0,0.0,0.0,0.0,0.6775,0.0,0.6269,0.6347,0.6363,0.6264,0.6457,0.707,0.7061,0.7273,0.7808,0.8056,0.8238,0.8288,0.8474,0.8627,0.8788,0.8808,0.8752,0.8689,0.855,0.8507,0.8488,0.8521,0.8471,0.8424,0.8471,0.8527,0.853,0.8511,0.8517,0.8744,0.8602,0.8433,0.8327,0.8454,0.8567,0.8564,0.83,0.8129,0.8324,0.8038,0.7924,0.8524,0.848,0.8162,0.7733,0.7976,0.7945,1.3511,1.3529,1.2787,1.2395,1.2146,1.1264,1.0511,0.9958,1.0344,1.055,1.0567,1.0318,0.963,0.8736,0.9789,1.0248,1.0299,1.0768,1.1285,1.1766,1.1203,1.1246,1.174,1.0588,1.0017,1.0017,0.9745,0.9956,1.0569,1.0116,1.014,1.0619,1.0442,1.0101,0.9609,0.9258,0.9076,0.9063,0.7998,0.7616,0.8013,0.6709,0.6362,0.7119,0.6911,0.7003,0.746,0.7008,0.7171,0.8101,0.7574,0.717,0.7136,0.8536,0.8741,0.0,0.84,0.0,0.0,0.0,0.0,0.0,0.0,0.0,0.0,0.7951,0.794,0.7727,0.7685,0.7459,0.6785,0.6889,0.719,0.7704,0.7814,0.7943,0.8331,0.8536,0.8583,0.83,0.8601,0.8804,0.8808,0.8808,0.8808,0.8752,0.8626,0.8504,0.8368,0.8368,0.8371,0.8368,0.8336,0.8357,0.8461,0.861,0.8695,0.8752,0.8567,0.859,0.8564,0.8623,0.8633,0.858,0.8461,0.8362,0.7874,0.7711,0.7809,0.8371,0.7997,0.7582,0.7462,0.7371,0.71,1.3048,1.3517,1.2753,1.2389,1.2387,1.2774,1.2042,1.0712,1.2143,1.1897,1.0494,1.0779,1.0792,1.063,1.1299,1.1612,1.1619,1.1629,1.1698,1.1815,1.1669,1.1672,1.1742,1.1066,1.0711,1.0684,1.0419,1.0583,1.1083,1.0917,1.0675,1.0381,1.0541,1.0463,1.0168,0.0,0.0,0.0,0.9286,0.9027,0.8843,0.9368,0.9334,0.8654,0.9061,0.0,0.8115,0.8353,0.8374,0.814,0.8224,0.0,0.0,0.0,0.0,0.0,0.0,0.0,0.0,0.0,0.0,0.0,0.9822,0.8849,0.7554,0.7867,0.8046,0.7765,0.81,0.7947,0.7128,0.7852,0.8311,0.8139,0.8243,0.84,0.8616,0.8569,0.8585,0.8674,0.8764,0.8808,0.8808,0.8808,0.8752,0.8593,0.8484,0.8321,0.8062,0.8165,0.8171,0.8049,0.7942,0.8045,0.8396,0.8397,0.8461,0.8659,0.7976,0.7605,0.7803,0.8002,0.7877,0.7566,0.741,0.7458,0.7244,0.6858,0.6802,0.7297,0.7304,0.7118,0.6791,0.6543,0.6181,1.327,0.0,1.3179,1.3,0.0,1.3369,1.3185,1.2731,1.3391,1.2956,1.1796,1.203,1.1739,1.1124,1.1777,1.1866,1.1569,1.1797,1.1868,1.1817,1.1876,1.1894,1.1895,1.124,1.1112,1.135,1.0653,1.0591,1.1111,1.0849,1.0572,1.0312,1.0424,1.0418,1.0306,1.0312,1.0181,0.9941,0.9856,0.9706,0.9511,0.9777,0.9766,0.9459,0.0,0.0,0.0,0.0,0.0,0.0,0.0,0.0,0.0,0.0,0.0,0.9738,1.1263,1.1977,1.1425,1.0298,0.9975,1.0695,1.0438,0.978,0.8708,0.8995,0.9018,0.8639,0.8583,0.8376,0.7988,0.8207,0.8457,0.8526,0.8567,0.8637,0.8816,0.8779,0.8734,0.8764,0.8808,0.8808,0.8808,0.8748,0.8639,0.8537,0.8381,0.8218,0.7958,0.8005,0.7919,0.7469,0.7466,0.7414,0.737,0.7521,0.7506,0.732,0.6899,0.6748,0.7027,0.7484,0.772,0.7453,0.7456,0.7453,0.7139,0.6864,0.6647,0.6637,0.6425,0.6307,0.6279,0.6146,0.5809,1.3613,1.3613,1.3613,1.3613,1.3605,1.355,1.3956,1.4646,0.0,0.0,0.0,1.3266,1.2551,1.1516,1.1918,1.1798,1.1303,1.1782,1.1932,1.1829,1.194,1.214,1.2343,1.1561,1.1493,1.2026,1.1031,1.078,1.1233,1.087,1.0657,1.0606,1.0606,1.056,1.0462,1.0449,1.043,1.0392,1.0334,1.0269,1.018,0.9964,0.9963,1.0227,0.9465,0.9258,0.9616,0.8705,0.8767,1.0059,0.9735,0.9687,1.0153,1.2257,1.2855,1.1505,1.2828,1.3283,1.2412,1.1088,1.041,1.0536,1.0738,1.0661,1.0162,1.0293,1.0142,0.9503,0.91,0.8913,0.8785,0.8517,0.8429,0.889,0.8788,0.8836,0.8964,0.8962,0.8896,0.8804,0.8695,0.8643,0.859,0.8524,0.848,0.844,0.8331,0.8115,0.7955,0.7791,0.7538,0.7066,0.6919,0.6707,0.6374,0.6348,0.6289,0.5806,0.5736,0.5834,0.6261,0.69,0.7297,0.7074,0.7393,0.7238,0.6864,0.6652,0.665,0.6261,0.5832,0.562,0.6136,0.6187,0.5859,1.3622,1.3613,1.3613,1.3613,1.3613,1.358,1.408,1.4831,1.4797,1.4613,1.4264,1.3535,1.3082,1.2867,1.2347,1.2058,1.1953,1.1982,1.1991,0.0,1.1991,1.2676,1.3788,1.2565,1.2254,1.278,1.2431,1.2118,1.1936,1.2067,1.2064,1.1775,1.1737,1.1546,1.1102,1.109,1.1063,1.1069,1.1384,1.1299,1.0885,1.2131,1.2374,1.153,1.1782,1.157,1.0716,1.0943,1.0957,1.0723,1.1468,1.1952,1.2077,1.3691,1.4106,1.302,1.3412,1.3374,1.2618,1.173,1.1297,1.1482,1.1486,1.1243,1.0756,1.0961,1.0664,0.9487,0.9771,0.9768,0.8904,0.9073,0.9152,0.8941,0.8936,0.8964,0.9005,0.8906,0.8804,0.8808,0.8309,0.804,0.809,0.7934,0.7949,0.8149,0.8184,0.8112,0.7768,0.7518,0.7144,0.6838,0.6337,0.5946,0.5672,0.5484,0.5259,0.4754,0.4897,0.5073,0.514,0.5732,0.6043,0.5614,0.605,0.6164,0.5734,0.557,0.5784,0.6048,0.5991,0.6157,0.6588,0.6696,0.645,1.4848,1.4848,1.4848,1.4857,1.4865,1.5225,1.54,1.548,1.5868,1.5798,1.5321,1.4254,1.3736,1.3644,1.263,1.2361,1.2706,1.2677,1.2463,1.217,1.2864,1.3544,1.407,1.3114,1.2962,1.3471,1.2862,1.2612,1.2743,1.2791,1.2692,1.2539,1.2349,1.2029,1.1664,1.1588,1.1566,1.1572,1.2011,1.1976,1.1462,1.2361,1.2468,1.1679,1.1931,1.183,1.1288,1.1799,1.2077,1.2115,1.2895,1.3474,1.376,1.4758,1.5046,1.4456,1.4446,1.4039,1.3084,1.2534,1.2303,1.2373,1.2547,1.2373,1.1872,1.1055,1.035,0.9744,0.9863,0.9802,0.93,0.9197,0.9108,0.9079,0.8982,0.8906,0.8906,0.886,0.8808,0.8752,0.8256,0.7928,0.7931,0.7771,0.7676,0.7815,0.7958,0.78,0.7031,0.6732,0.6564,0.6421,0.5937,0.5388,0.4951,0.486,0.4683,0.4512,0.4575,0.4632,0.4688,0.5173,0.5439,0.5386,0.5662,0.578,0.5563,0.5565,0.5616,0.5559,0.5991,0.6263,0.6372,0.6322,0.6161,1.5955,1.5955,1.589,1.5853,1.5922,1.6578,1.6537,1.6108,1.6686,1.6746,1.613,1.4808,1.4283,1.429,1.3013,1.2804,1.3352,1.3421,1.3159,1.2797,1.3721,1.4353,1.4533,1.3767,1.3665,1.4093,1.3406,1.3235,1.3576,1.3552,1.3472,1.3382,1.3018,1.2657,1.2337,1.2262,1.2173,1.2129,1.2557,1.2507,1.1991,1.2373,1.2391,1.2008,1.2096,1.2077,1.1996,1.2611,1.3107,1.3427,1.4097,1.4658,1.5073,1.558,1.5736,1.5395,1.5089,1.444,1.3413,1.3209,1.316,1.3164,1.3457,1.3332,1.2609,1.1429,1.0465,1.0113,0.9849,0.9692,0.9607,0.9152,0.8847,0.9079,0.8959,0.8804,0.8808,0.8808,0.8808,0.8752,0.8146,0.7714,0.7717,0.761,0.7566,0.7678,0.7791,0.7429,0.649,0.6275,0.6119,0.5838,0.5406,0.5048,0.4472,0.4405,0.4443,0.4406,0.4408,0.4408,0.4517,0.4948,0.522,0.5277,0.5389,0.5504,0.5557,0.5553,0.55,0.5502,0.5828,0.6157,0.6211,0.6324,0.6164,1.6133,1.6107,1.5914,1.5731,1.5867,1.6526,1.6656,1.6439,1.6808,1.6841,1.6402,1.4908,1.456,1.4883,1.3698,1.3467,1.409,1.4106,1.4065,1.4041,1.4143,1.4838,1.5759,1.472,1.4378,1.484,1.4762,1.45,1.4302,1.4761,1.4917,1.4617,1.405,1.363,1.3289,1.3219,1.3019,1.2748,1.3101,1.3054,1.25,1.2868,1.3104,1.3066,1.3588,1.3619,1.306,1.4099,1.4469,1.4135,1.5029,1.5561,1.5674,1.6145,1.6077,1.5378,1.4698,1.3927,1.319,1.3402,1.3726,1.397,1.399,1.3586,1.2633,1.2549,1.1957,1.0695,1.006,0.9706,0.9465,0.9155,0.8954,0.8991,0.891,0.8808,0.8808,0.8808,0.8808,0.8808,0.7889,0.7192,0.7184,0.7128,0.7292,0.7783,0.7788,0.7503,0.6809,0.6335,0.593,0.5414,0.4948,0.4833,0.4854,0.4604,0.4299,0.4237,0.4242,0.4244,0.4294,0.4458,0.4627,0.4791,0.4794,0.4906,0.4956,0.5009,0.5279,0.5664,0.5884,0.6159,0.6598,0.7087,0.7139,1.7508,1.7546,1.7294,1.7132,1.7113,1.7352,1.7271,1.7034,1.714,1.6985,1.6512,1.543,1.5038,1.5085,1.4149,1.4176,1.4868,1.4798,1.4983,1.5343,1.5394,1.5671,1.6072,1.561,1.5377,1.557,1.5505,1.5366,1.5261,1.5462,1.5418,1.5124,1.4937,1.4731,1.4436,1.441,1.4371,1.422,1.4268,1.4159,1.3865,1.3446,1.321,1.3261,1.3802,1.399,1.389,1.4777,1.526,1.5142,1.6076,1.6654,1.6573,1.7065,1.6919,1.5881,1.4936,1.4246,1.3814,1.4124,1.4395,1.4512,1.4121,1.3672,1.3249,1.252,1.1613,1.0801,0.9965,0.944,0.9382,0.9155,0.9012,0.9012,0.891,0.8808,0.8808,0.8808,0.8699,0.8312,0.7877,0.7345,0.6966,0.702,0.7125,0.7286,0.7241,0.7085,0.6209,0.5825,0.5441,0.4952,0.4517,0.4411,0.4631,0.4468,0.4138,0.4082,0.4079,0.4076,0.4076,0.4128,0.4242,0.4301,0.4413,0.4468,0.4463,0.4899,0.5224,0.5664,0.6588,0.7082,0.6874,0.7144,0.7085,1.8554,1.8573,1.8313,1.8125,1.8057,1.8135,1.7926,1.7561,1.7639,1.7379,1.6767,1.6087,1.5661,1.5375,1.4674,1.4786,1.5466,1.5423,1.5626,1.6134,1.6191,1.6159,1.6118,1.6075,1.6004,1.5962,1.587,1.5827,1.5829,1.5987,1.5906,1.574,1.5995,1.5966,1.5682,1.5548,1.5431,1.5292,1.5076,1.4909,1.4783,1.4092,1.3642,1.3735,1.4249,1.4475,1.4306,1.5323,1.5809,1.5649,1.6585,1.7141,1.7167,1.7362,1.7015,1.5984,1.5152,1.4596,1.4434,1.4777,1.4951,1.4904,1.4378,1.3914,1.3602,1.2623,1.1679,1.0902,0.9864,0.9267,0.9309,0.9162,0.9008,0.8956,0.8857,0.8808,0.8808,0.8808,0.8643,0.82,0.8034,0.7605,0.6851,0.6637,0.6477,0.6524,0.6642,0.6537,0.5607,0.5334,0.5115,0.4519,0.4302,0.4247,0.4192,0.4135,0.4027,0.3973,0.3914,0.3967,0.397,0.3968,0.4021,0.4133,0.4245,0.441,0.4627,0.5007,0.5553,0.5607,0.648,0.7625,0.7303,0.7303,0.7303,1.8843,1.8887,1.8402,1.8175,1.8218,1.8611,1.842,1.7769,1.8193,1.8029,1.7305,1.6692,1.6393,1.6239,1.5346,1.5315,1.5895,1.5933,1.6029,1.6179,1.6157,1.606,1.5907,1.6052,1.6034,1.5921,1.5892,1.5856,1.5836,1.6368,1.6636,1.662,1.7099,1.7264,1.6884,1.6378,1.5995,1.5693,1.5274,1.4966,1.4953,1.489,1.4808,1.4846,1.5316,1.5243,1.4877,1.5811,1.6118,1.5455,1.615,1.6622,1.6898,1.6514,1.5947,1.5278,1.4924,1.4785,1.4865,1.5122,1.5293,1.5245,1.469,1.4182,1.3485,1.3169,1.2421,1.1186,0.9946,0.9281,0.9211,0.9061,0.8903,0.8857,0.8804,0.8808,0.8808,0.8808,0.8808,0.8586,0.804,0.7501,0.6907,0.5721,0.5611,0.5987,0.6261,0.5991,0.5443,0.5277,0.4954,0.4463,0.4192,0.4192,0.4192,0.4022,0.3907,0.3799,0.3803,0.3855,0.3858,0.3916,0.3968,0.4132,0.4462,0.4737,0.4899,0.5336,0.5991,0.6428,0.7025,0.7628,0.7571,0.7738,0.7794,1.8506,1.8397,1.8103,1.8014,1.8018,1.8167,1.8048,1.7845,1.799,1.7825,1.7378,1.6909,1.6588,1.639,1.5768,1.5819,1.6328,1.6095,1.6325,1.6965,1.6811,1.6711,1.6719,1.6644,1.6327,1.5945,1.5879,1.5835,1.5941,1.6778,1.7052,1.6769,1.7109,1.7254,1.7105,1.6749,1.6464,1.6301,1.6055,1.5925,1.5894,1.5925,1.5878,1.5824,1.5645,1.5461,1.5147,1.5892,1.6182,1.5911,1.6459,1.6648,1.6438,1.609,1.5931,1.5818,1.5439,1.5181,1.5205,1.5322,1.523,1.4824,1.4227,1.3623,1.2952,1.2516,1.1821,1.0828,1.0229,0.968,0.914,0.8959,0.8857,0.8808,0.8808,0.8808,0.8808,0.8804,0.8586,0.799,0.7071,0.6433,0.6768,0.5677,0.4794,0.5115,0.5441,0.5336,0.4956,0.4682,0.452,0.4247,0.4078,0.3964,0.3964,0.3907,0.3796,0.369,0.3691,0.3959,0.4015,0.386,0.386,0.4462,0.4846,0.5066,0.5283,0.5825,0.6428,0.6977,0.7631,0.7681,0.7785,0.7681,0.7738,1.8408,1.8263,1.8065,1.7992,1.8009,1.8124,1.8022,1.7839,1.8056,1.7908,1.7489,1.7093,1.6763,1.6448,1.6123,1.6116,1.6421,1.6159,1.6465,1.7208,1.7144,1.7006,1.6877,1.6902,1.6533,1.6006,1.6031,1.6174,1.6488,1.7416,1.7578,1.7052,1.7424,1.7578,1.7429,1.705,1.6888,1.6833,1.665,1.6515,1.6528,1.6472,1.6436,1.6312,1.5916,1.5635,1.5611,1.6003,1.615,1.6111,1.6314,1.6143,1.5584,1.5663,1.5769,1.5761,1.5553,1.5415,1.5415,1.5415,1.5113,1.4533,1.3808,1.313,1.2508,1.1915,1.1282,1.0626,0.9957,0.9494,0.9241,0.8971,0.8808,0.8808,0.8808,0.8808,0.8808,0.8808,0.8527,0.8037,0.7292,0.6874,0.6774,0.5454,0.4684,0.4462,0.4846,0.4846,0.4465,0.4302,0.4192,0.4078,0.3909,0.3798,0.3801,0.3747,0.3745,0.3638,0.3638,0.3904,0.4122,0.3913,0.4082,0.4737,0.5173,0.5395,0.5775,0.6317,0.681,0.7359,0.7467,0.7518,0.7461,0.7351,0.7408,1.8632,1.8517,1.8302,1.8154,1.819,1.8535,1.8411,1.7963,1.8479,1.8306,1.7794,1.7361,1.7017,1.6751,1.6371,1.6203,1.6266,1.6288,1.644,1.6768,1.7089,1.6884,1.6381,1.672,1.6578,1.5963,1.6458,1.697,1.748,1.8167,1.8291,1.7942,1.8191,1.8147,1.7954,1.7373,1.7122,1.7025,1.6686,1.6528,1.6485,1.6436,1.6362,1.6237,1.6039,1.5971,1.5952,1.6082,1.6069,1.583,1.5537,1.4956,1.4607,1.5064,1.5399,1.5077,1.5171,1.5366,1.5376,1.5274,1.4863,1.4278,1.3584,1.2761,1.2143,1.1723,1.1146,1.046,0.9562,0.8971,0.9265,0.9062,0.8808,0.8808,0.8808,0.8808,0.8808,0.8808,0.8748,0.8524,0.8318,0.7993,0.6632,0.5334,0.4517,0.4519,0.4519,0.4519,0.4302,0.4192,0.4078,0.3907,0.3796,0.3744,0.3637,0.3585,0.3585,0.3585,0.3583,0.3745,0.4021,0.3973,0.425,0.4851,0.5393,0.5666,0.6374,0.681,0.6923,0.7308,0.7306,0.7303,0.7249,0.7192,0.7025,1.827,1.8112,1.7992,1.7944,1.7931,1.8087,1.7997,1.7822,1.8019,1.8198,1.8239,1.751,1.7337,1.7424,1.6702,1.6293,1.6495,1.6738,1.6936,1.7003,1.6961,1.6834,1.6631,1.6706,1.6637,1.6578,1.7077,1.7456,1.7777,1.8615,1.8847,1.8274,1.8058,1.7968,1.7787,1.7137,1.6735,1.6686,1.6565,1.6528,1.6485,1.6436,1.6324,1.6194,1.6088,1.5944,1.5875,1.5925,1.5887,1.5786,1.5379,1.4851,1.4351,1.4244,1.4493,1.4777,1.48,1.4873,1.4865,1.426,1.3668,1.3161,1.2511,1.18,1.1202,1.0859,1.0457,0.9923,0.9187,0.8914,0.8951,0.8928,0.8818,0.8808,0.8808,0.8808,0.8755,0.8699,0.859,0.8533,0.8325,0.767,0.6625,0.5326,0.4517,0.4463,0.441,0.4245,0.4192,0.4022,0.3909,0.3795,0.3744,0.3691,0.364,0.3585,0.3585,0.3585,0.3584,0.3637,0.3914,0.4193,0.447,0.5016,0.5559,0.61,0.681,0.7136,0.7195,0.7087,0.7082,0.7085,0.7087,0.6923,0.6591,1.8112,1.7905,1.7856,1.7811,1.7789,1.7789,1.7735,1.7689,1.7726,1.8069,1.8319,1.7666,1.7542,1.7698,1.6826,1.6483,1.6668,1.6899,1.7159,1.741,1.7606,1.7459,1.7279,1.7101,1.7234,1.7481,1.7836,1.8022,1.81,1.8695,1.8659,1.7949,1.7691,1.7462,1.7297,1.6808,1.6528,1.6528,1.6528,1.6528,1.6485,1.6399,1.6275,1.6194,1.6001,1.5875,1.5792,1.5792,1.5697,1.5468,1.492,1.4285,1.3799,1.3659,1.379,1.4136,1.433,1.4398,1.4337,1.3594,1.2791,1.2396,1.1747,1.1052,1.0471,1.0186,0.9846,0.9403,0.9035,0.8804,0.8758,0.8814,0.8814,0.8702,0.8752,0.8752,0.8699,0.8537,0.8427,0.8321,0.7949,0.7235,0.6246,0.5218,0.4408,0.4356,0.4245,0.4079,0.4022,0.3907,0.3796,0.3742,0.3691,0.3638,0.3585,0.3585,0.3585,0.3585,0.3585,0.3692,0.3856,0.4247,0.4581,0.5452,0.6102,0.648,0.7079,0.7079,0.7082,0.6972,0.6645,0.6211,0.5993,0.5939,0.5771,1.8142,1.7897,1.7883,1.7847,1.7789,1.7758,1.7635,1.7487,1.7727,1.8093,1.8285,1.7954,1.7782,1.7655,1.7005,1.6639,1.6736,1.6878,1.7267,1.7902,1.8467,1.8636,1.7973,1.7659,1.7869,1.8444,1.8456,1.8556,1.8631,1.8591,1.8121,1.7429,1.7319,1.7038,1.6772,1.6558,1.6528,1.6528,1.6528,1.6485,1.6485,1.6318,1.6194,1.6194,1.5963,1.5792,1.5792,1.5653,1.5418,1.5011,1.4222,1.3588,1.3111,1.3281,1.3447,1.3421,1.3753,1.3796,1.3624,1.2937,1.2375,1.1863,1.1125,1.0554,0.9952,0.9751,0.9593,0.922,0.9001,0.8804,0.8743,0.8838,0.8864,0.86,0.8645,0.8603,0.8434,0.8334,0.8208,0.8071,0.7515,0.6642,0.5597,0.4682,0.4358,0.4192,0.4078,0.3965,0.3855,0.3799,0.3745,0.3637,0.3583,0.3584,0.3585,0.3585,0.3585,0.3585,0.3585,0.3692,0.3745,0.4135,0.4632,0.5557,0.6265,0.6699,0.6972,0.6864,0.6588,0.6261,0.5771,0.5119,0.5062,0.5279,0.5338,1.804,1.7816,1.7825,1.7803,1.7758,1.7589,1.7472,1.7491,1.7988,1.8542,1.8945,1.8626,1.8566,1.8694,1.7338,1.6804,1.7105,1.7329,1.7787,1.847,1.9183,1.8854,1.8015,1.7712,1.8004,1.8542,1.8309,1.825,1.8595,1.8305,1.7948,1.7632,1.7269,1.7109,1.6983,1.665,1.6528,1.6528,1.6528,1.6479,1.6405,1.6275,1.6144,1.6044,1.5875,1.5792,1.5703,1.5091,1.4674,1.4536,1.4264,1.3663,1.2856,1.3051,1.3151,1.3133,1.3214,1.3138,1.2606,1.1817,1.1194,1.1017,1.0213,0.9544,0.9352,0.9426,0.9284,0.9055,0.8992,0.9102,0.9055,0.9055,0.8985,0.8776,0.8505,0.8158,0.7708,0.7606,0.7781,0.7836,0.682,0.5653,0.4787,0.4353,0.4136,0.4022,0.3965,0.3853,0.3799,0.3691,0.3638,0.364,0.3585,0.3585,0.3585,0.3585,0.3585,0.3585,0.3584,0.3583,0.3692,0.3803,0.4463,0.5226,0.5662,0.6041,0.6263,0.6268,0.5937,0.5662,0.5113,0.4677,0.5001,0.5271,0.5173,1.8249,1.7814,1.8009,1.7903,1.7637,1.741,1.7322,1.7371,1.7976,1.8749,1.9273,1.9129,1.9176,1.9365,1.8159,1.7649,1.7859,1.8027,1.8485,1.9091,1.9531,1.9233,1.8653,1.8499,1.8639,1.888,1.8389,1.8252,1.8256,1.7875,1.755,1.7221,1.7025,1.6941,1.6856,1.6693,1.6528,1.6528,1.6528,1.6479,1.6411,1.6275,1.6144,1.6001,1.5875,1.5792,1.5703,1.5045,1.4444,1.4025,1.3663,1.3291,1.2739,1.2788,1.283,1.278,1.2572,1.2258,1.1756,1.0843,1.0267,1.0165,0.949,0.9052,0.9023,0.9067,0.8985,0.8898,0.9064,0.9196,0.9122,0.9101,0.9041,0.8836,0.8297,0.7745,0.7235,0.7112,0.7182,0.6997,0.6204,0.5054,0.4133,0.4022,0.3965,0.391,0.3802,0.3745,0.3691,0.364,0.3585,0.3585,0.3585,0.3585,0.353,0.3528,0.3473,0.3473,0.3528,0.3526,0.3635,0.3747,0.4406,0.5007,0.5169,0.5386,0.5609,0.5666,0.5445,0.506,0.462,0.4401,0.4618,0.4836,0.4792,1.8546,1.7794,1.8268,1.8079,1.7535,1.7419,1.7323,1.7225,1.7821,1.8632,1.9288,1.9388,1.9576,1.9827,1.8787,1.8594,1.862,1.8575,1.9039,1.9443,1.969,1.9548,1.9459,1.9307,1.9302,1.9244,1.88,1.8284,1.7875,1.7352,1.6934,1.6729,1.6571,1.6528,1.6565,1.6522,1.6528,1.6528,1.6485,1.6436,1.6355,1.6225,1.6094,1.5951,1.5875,1.5792,1.5659,1.5193,1.449,1.351,1.3002,1.2764,1.2573,1.2485,1.2351,1.2162,1.1831,1.1471,1.1032,1.0162,0.9662,0.9589,0.9072,0.8715,0.8861,0.894,0.8965,0.8871,0.911,0.9225,0.9112,0.9023,0.8977,0.8717,0.8065,0.7412,0.7133,0.668,0.6381,0.6427,0.5563,0.4788,0.4185,0.3852,0.3795,0.3802,0.3694,0.3694,0.3638,0.364,0.3585,0.3585,0.3585,0.3528,0.3473,0.3471,0.3359,0.3303,0.3416,0.3526,0.3631,0.3907,0.4458,0.4897,0.4952,0.5007,0.5117,0.5062,0.4899,0.457,0.413,0.3858,0.3751,0.4022,0.4082,1.787,1.7545,1.8178,1.8198,1.7906,1.7908,1.7748,1.7496,1.7899,1.8546,1.9236,1.9677,1.9905,1.9904,1.8974,1.8426,1.8744,1.8785,1.9061,1.963,1.9697,1.9654,1.9574,1.9479,1.9265,1.8912,1.8319,1.7794,1.7352,1.6983,1.6607,1.6528,1.6528,1.6528,1.6528,1.6485,1.6528,1.6485,1.6448,1.6362,1.6225,1.6132,1.6001,1.5869,1.5836,1.5754,1.5564,1.4903,1.4299,1.3884,1.3402,1.2944,1.2539,1.2332,1.2031,1.1673,1.1418,1.096,1.0135,0.9706,0.9376,0.922,0.9026,0.8814,0.8992,0.9163,0.9149,0.9129,0.9302,0.9418,0.9372,0.9123,0.893,0.8469,0.7493,0.6604,0.6367,0.6069,0.5614,0.5085,0.4723,0.4199,0.3765,0.3801,0.3744,0.3692,0.364,0.3585,0.3585,0.3585,0.3585,0.3585,0.353,0.3473,0.3359,0.3359,0.3303,0.3303,0.3416,0.3473,0.3633,0.3741,0.4185,0.4462,0.4627,0.4682,0.4679,0.4625,0.4462,0.4078,0.3748,0.364,0.3585,0.3585,0.3585,1.8146,1.7939,1.8469,1.8564,1.829,1.8187,1.794,1.7697,1.8006,1.8498,1.9172,1.9867,2.0186,2.009,1.9456,1.9218,1.9153,1.9166,1.9346,1.966,1.9661,1.9589,1.9508,1.9369,1.9146,1.8676,1.8108,1.7591,1.7144,1.6778,1.6528,1.6528,1.6528,1.6528,1.6479,1.6472,1.6479,1.6442,1.6362,1.6231,1.6094,1.6044,1.5957,1.5836,1.5792,1.5798,1.5703,1.5071,1.462,1.435,1.3795,1.3077,1.2537,1.2234,1.1828,1.1418,1.1002,1.0541,0.9777,0.9358,0.921,0.9204,0.9007,0.9026,0.914,0.9236,0.9166,0.915,0.9322,0.9475,0.9475,0.9421,0.9012,0.8401,0.7445,0.6606,0.6032,0.55,0.4972,0.4394,0.4138,0.391,0.3713,0.3694,0.3747,0.3694,0.364,0.3585,0.3585,0.3585,0.3585,0.3585,0.353,0.3416,0.3246,0.319,0.3192,0.3304,0.3471,0.3528,0.3583,0.3638,0.3749,0.397,0.419,0.4078,0.4076,0.4022,0.4079,0.3859,0.364,0.3641,0.3585,0.3585,0.3585,1.8624,1.8449,1.8898,1.8988,1.8819,1.8658,1.8297,1.788,1.8068,1.8485,1.9057,2.0001,2.0302,2.0283,2.0089,1.9914,1.9767,1.9652,1.9667,1.9682,1.964,1.956,1.9479,1.9325,1.8981,1.8461,1.8028,1.755,1.7054,1.6729,1.6528,1.6528,1.6528,1.6485,1.6479,1.6436,1.6392,1.6355,1.6231,1.6144,1.6044,1.5994,1.5869,1.5653,1.5608,1.5602,1.5452,1.506,1.4838,1.4896,1.4126,1.3332,1.2735,1.2365,1.1952,1.1417,1.0942,1.0393,0.9757,0.936,0.9209,0.9428,0.9212,0.9163,0.9312,0.9281,0.9207,0.9237,0.9316,0.9478,0.9478,0.9358,0.8998,0.8334,0.7687,0.6849,0.5815,0.4996,0.4511,0.4088,0.3875,0.3709,0.3651,0.364,0.364,0.3695,0.3695,0.3697,0.3697,0.3697,0.3751,0.3749,0.3748,0.3469,0.3244,0.3132,0.3135,0.3304,0.3473,0.3528,0.3585,0.3585,0.3641,0.3641,0.3695,0.3694,0.3694,0.3749,0.3751,0.3585,0.3585,0.3585,0.3585,0.3585,0.3585,1.8172,1.8517,1.8851,1.9385,1.9943,1.9972,1.9341,1.8556,1.8191,1.8408,1.8837,1.9667,2.02,2.0292,1.9952,1.9747,1.9733,1.9697,1.969,1.9654,1.956,1.9442,1.9229,1.9124,1.87,1.814,1.7747,1.738,1.6801,1.6515,1.6528,1.6528,1.6479,1.6479,1.6442,1.6405,1.6306,1.6225,1.6094,1.6001,1.5957,1.5869,1.5691,1.5396,1.538,1.524,1.5003,1.4627,1.4449,1.464,1.4077,1.3679,1.3434,1.3187,1.2501,1.1689,1.1248,1.0627,0.9872,0.9559,0.9473,0.9481,0.943,0.9374,0.9442,0.9458,0.9346,0.9373,0.94,0.9478,0.9478,0.934,0.8656,0.7868,0.7257,0.6495,0.5418,0.4866,0.4546,0.4229,0.3944,0.3803,0.3914,0.4025,0.4133,0.4187,0.4133,0.4189,0.4299,0.419,0.4079,0.4078,0.4019,0.3574,0.3186,0.3131,0.3077,0.3303,0.3473,0.3585,0.3585,0.3585,0.3585,0.3585,0.3585,0.3641,0.3641,0.3585,0.3585,0.3585,0.3585,0.3585,0.3585,0.3585,0.3585,1.8296,1.9014,1.9198,1.9638,2.0262,2.0665,1.9866,1.8338,1.7461,1.7639,1.8493,1.9163,1.9671,1.9904,1.9854,1.9726,1.9697,1.9697,1.9566,1.9332,1.9199,1.8974,1.8679,1.8577,1.8101,1.7625,1.7427,1.7186,1.6571,1.6522,1.6528,1.6479,1.6472,1.6436,1.6392,1.6269,1.6175,1.6088,1.5957,1.5919,1.5919,1.5836,1.5653,1.5516,1.5349,1.5261,1.511,1.4878,1.4758,1.4785,1.4446,1.4256,1.4044,1.3586,1.2837,1.1863,1.1279,1.071,1.0003,0.9761,0.975,0.9736,0.9683,0.964,0.963,0.96,0.9481,0.9478,0.9478,0.9478,0.9475,0.9343,0.8656,0.779,0.7412,0.6808,0.579,0.5458,0.5161,0.4758,0.4552,0.4447,0.4625,0.468,0.4679,0.4624,0.4568,0.4734,0.4901,0.4627,0.4408,0.4075,0.3962,0.3631,0.3242,0.3131,0.3135,0.336,0.3473,0.3585,0.3587,0.3588,0.3587,0.3585,0.3585,0.3585,0.3585,0.3585,0.3585,0.3585,0.3585,0.3585,0.3585,0.3585,0.3585,1.8469,1.9372,1.946,1.9736,2.0193,2.0603,1.9843,1.821,1.7153,1.7431,1.8446,1.8954,1.9361,1.9613,1.9726,1.9697,1.9697,1.9697,1.9493,1.9184,1.8921,1.8577,1.8233,1.7875,1.7632,1.7358,1.724,1.6954,1.6614,1.6528,1.6528,1.6479,1.6436,1.6362,1.6324,1.6132,1.6038,1.5907,1.5863,1.5792,1.5792,1.5792,1.5653,1.556,1.5368,1.5272,1.5003,1.4862,1.4883,1.4936,1.4816,1.461,1.4392,1.3743,1.2831,1.1882,1.1085,1.0564,1.0237,1.0099,1.0043,0.9897,0.9873,0.9834,0.9667,0.9545,0.9478,0.9478,0.9478,0.9478,0.9478,0.9472,0.8882,0.8096,0.7889,0.7639,0.6531,0.5998,0.601,0.5614,0.5229,0.5087,0.5169,0.5117,0.506,0.5224,0.5169,0.5224,0.5336,0.4956,0.4625,0.4128,0.3798,0.3577,0.3355,0.3188,0.3249,0.3421,0.3531,0.3585,0.3588,0.3589,0.3475,0.3306,0.3585,0.3585,0.3585,0.3587,0.3585,0.3585,0.3585,0.3585,0.3585,0.3585,0.3585,1.8262,1.8999,1.9357,1.9707,1.9921,1.958,1.9252,1.8929,1.8546,1.8641,1.8981,1.9367,1.9579,1.9658,1.9682,1.969,1.9697,1.9617,1.9501,1.928,1.8891,1.8584,1.839,1.7988,1.7503,1.7157,1.7164,1.6941,1.6607,1.6528,1.6528,1.6485,1.6392,1.6355,1.6237,1.605,1.5957,1.583,1.5836,1.5792,1.5792,1.5792,1.5367,1.4895,1.48,1.4776,1.4452,1.4486,1.462,1.495,1.4782,1.441,1.3803,1.3061,1.2496,1.1962,1.1537,1.1133,1.0576,1.0448,1.0269,1.0068,0.9897,0.9792,0.9606,0.9542,0.9478,0.9478,0.9478,0.9478,0.9478,0.9478,0.9022,0.856,0.8156,0.7666,0.6838,0.6819,0.6797,0.6639,0.6248,0.5802,0.5614,0.5468,0.5439,0.5605,0.5771,0.5825,0.5607,0.5117,0.468,0.4128,0.3741,0.3465,0.3413,0.3302,0.3304,0.3479,0.3308,0.336,0.3307,0.314,0.2915,0.2857,0.325,0.3587,0.3588,0.3588,0.3587,0.3585,0.3585,0.3585,0.3585,0.3585,0.3585,1.8353,1.8961,1.9538,1.9849,1.9951,1.9684,1.9446,1.9303,1.9427,1.9377,1.9067,1.8721,1.8701,1.8926,1.9156,1.9362,1.9347,1.9288,1.9221,1.9056,1.8623,1.8194,1.7713,1.7345,1.6934,1.6899,1.682,1.6735,1.6528,1.6528,1.6528,1.6479,1.6355,1.6231,1.615,1.6013,1.5875,1.583,1.5792,1.5792,1.5792,1.5748,1.5474,1.4817,1.4931,1.4661,1.438,1.4421,1.4559,1.4729,1.4666,1.4538,1.3997,1.3195,1.2381,1.2258,1.1403,1.0856,1.0618,1.0621,1.0368,1.0114,0.9919,0.9795,0.9542,0.9478,0.9478,0.9478,0.9478,0.9478,0.9478,0.9478,0.9014,0.8616,0.8484,0.7986,0.7526,0.7698,0.7693,0.7493,0.7225,0.6687,0.6293,0.6192,0.6211,0.6317,0.6263,0.6154,0.5714,0.5003,0.4568,0.4076,0.3741,0.3408,0.3412,0.3414,0.3246,0.3193,0.2464,0.2519,0.2689,0.2578,0.2298,0.2468,0.2976,0.3256,0.3479,0.3588,0.3587,0.3585,0.3585,0.353,0.3474,0.353,0.353,1.8349,1.8767,1.9451,1.9605,1.9545,2.0196,1.9938,1.9059,1.9617,1.9611,1.9062,1.8459,1.8245,1.8368,1.8809,1.8974,1.9056,1.8938,1.8907,1.8724,1.8298,1.776,1.7353,1.686,1.6571,1.6528,1.6571,1.6528,1.6528,1.6485,1.6479,1.6479,1.6318,1.6188,1.6106,1.5931,1.5792,1.5792,1.5792,1.5792,1.5792,1.5792,1.5613,1.5328,1.5175,1.5013,1.4656,1.4578,1.4588,1.4556,1.4611,1.4424,1.3752,1.3009,1.2205,1.1838,1.1048,1.0681,1.0621,1.0558,1.0368,1.0114,0.9856,0.9667,0.9542,0.9478,0.9478,0.9478,0.9478,0.9478,0.9478,0.9478,0.9212,0.8947,0.8748,0.8355,0.8094,0.8099,0.8138,0.8007,0.7712,0.7499,0.7151,0.7067,0.7044,0.7036,0.6869,0.6547,0.5734,0.4755,0.4302,0.3866,0.369,0.3411,0.347,0.3471,0.3359,0.0,0.0,0.0,0.0,0.0,0.1626,0.202,0.0,0.2924,0.3147,0.3366,0.3587,0.3589,0.3535,0.3363,0.3306,0.3304,0.3416,1.8116,1.8203,1.8742,1.8608,1.8165,2.0991,2.0464,1.8299,1.9268,1.9405,1.8891,1.8912,1.8855,1.8806,1.8579,1.864,1.8893,1.8885,1.899,1.8846,1.8415,1.78,1.73,1.6834,1.6528,1.6528,1.6528,1.6528,1.6485,1.6479,1.6479,1.6392,1.6275,1.6138,1.6007,1.5881,1.5792,1.5792,1.5792,1.5792,1.5792,1.5745,1.568,1.553,1.5342,1.5099,1.4914,1.4661,1.4565,1.4506,1.4437,1.3997,1.326,1.2642,1.1965,1.1296,1.0863,1.0618,1.0621,1.0558,1.0368,1.0053,0.9734,0.9542,0.9478,0.9478,0.9478,0.9478,0.9478,0.9478,0.9478,0.9478,0.9344,0.9212,0.9017,0.8818,0.8495,0.8376,0.8407,0.8396,0.8148,0.7801,0.7577,0.7392,0.7149,0.7122,0.6306,0.5925,0.5148,0.4315,0.3947,0.36,0.3531,0.3471,0.3584,0.3416,0.3021,0.0,0.0,0.0,0.0,0.0,0.0,0.0,0.0,0.0,0.2813,0.2864,0.3085,0.3427,0.3426,0.297,0.2463,0.2237,0.2628,1.833,1.8325,1.8265,1.8272,1.8503,2.0102,1.986,1.8709,1.9319,1.9201,1.8435,1.8811,1.8555,1.8005,1.8062,1.8219,1.8493,1.8482,1.8829,1.8815,1.8401,1.7746,1.7274,1.6851,1.6528,1.6528,1.6528,1.6528,1.6528,1.6479,1.6355,1.6275,1.6237,1.6138,1.6007,1.5875,1.5836,1.5792,1.5792,1.5792,1.5736,1.5498,1.5297,1.5153,1.4871,1.4645,1.4467,1.4618,1.456,1.4446,1.4198,1.3636,1.2956,1.2401,1.1666,1.1118,1.0807,1.0618,1.0558,1.0558,1.0364,0.998,0.9667,0.9478,0.9478,0.9478,0.9478,0.9478,0.9478,0.9478,0.9478,0.9478,0.9478,0.9414,0.9283,0.902,0.8829,0.8644,0.8509,0.8441,0.8239,0.802,0.7782,0.762,0.7365,0.7106,0.6181,0.5282,0.4552,0.4,0.3754,0.3603,0.3531,0.3498,0.361,0.3203,0.2686,0.0,0.0,0.0,0.0,0.0,0.0,0.0,0.0,0.0,0.0,0.0,0.2357,0.2467,0.241,0.2239,0.1734,0.123,0.1677,1.8485,1.8445,1.7971,1.8021,1.8507,1.9083,1.8896,1.8363,1.8967,1.8884,1.8122,1.8619,1.8282,1.7479,1.7391,1.7922,1.8128,1.8175,1.8567,1.856,1.818,1.7545,1.7085,1.677,1.6528,1.6528,1.6528,1.6528,1.6485,1.6436,1.6362,1.6237,1.615,1.605,1.5919,1.5875,1.5792,1.5792,1.5792,1.5697,1.5552,1.5377,1.5213,1.5003,1.4756,1.4665,1.4601,1.4658,1.4533,1.4318,1.4005,1.3563,1.2895,1.2286,1.1549,1.1181,1.087,1.0621,1.0561,1.0434,1.0241,0.9859,0.9667,0.9542,0.9478,0.9478,0.9478,0.9478,0.9478,0.9478,0.9478,0.9478,0.9475,0.9408,0.9151,0.8955,0.8832,0.8644,0.8579,0.8487,0.8266,0.8123,0.7907,0.7682,0.7044,0.6596,0.568,0.4891,0.4167,0.3785,0.3697,0.3653,0.3604,0.3622,0.3638,0.3337,0.2925,0.0,0.0,0.0,0.0,0.0,0.0,0.0,0.0,0.0,0.0,0.0,0.1233,0.1287,0.1175,0.1063,0.0783,0.0392,0.0727,1.8485,1.8417,1.791,1.7698,1.7743,1.8125,1.7748,1.7062,1.7969,1.8399,1.8216,1.8472,1.8305,1.7713,1.7455,1.7598,1.7982,1.7814,1.8121,1.8468,1.7941,1.7127,1.674,1.6532,1.6528,1.6528,1.6528,1.6528,1.6528,1.6399,1.6324,1.6194,1.605,1.5969,1.5836,1.5792,1.5792,1.5792,1.5792,1.5558,1.537,1.5347,1.5214,1.512,1.4779,1.4656,1.4806,1.4664,1.451,1.4258,1.3696,1.3134,1.2458,1.1791,1.1181,1.0751,1.0684,1.0561,1.0565,1.0244,0.9989,0.9801,0.9609,0.9478,0.9478,0.9478,0.9478,0.9478,0.9478,0.9478,0.9478,0.9478,0.9411,0.9341,0.9148,0.8958,0.8835,0.8644,0.8579,0.8514,0.8328,0.8143,0.8022,0.7667,0.6804,0.6064,0.5151,0.4429,0.3871,0.3698,0.3681,0.3711,0.3715,0.3728,0.374,0.3659,0.3109,0.191,0.0,0.0,0.0,0.0,0.0,0.0,0.0,0.0,0.0,0.0,0.0224,0.028,0.0,-0.0168,-0.0392,-0.0392,0.0,1.8459,1.8445,1.7932,1.7664,1.7627,1.7801,1.731,1.6619,1.744,1.8233,1.8629,1.8612,1.8226,1.7794,1.7441,1.7399,1.7693,1.8076,1.834,1.8121,1.7679,1.718,1.6731,1.6522,1.6528,1.6528,1.6528,1.6528,1.6528,1.6362,1.6275,1.6144,1.5969,1.5881,1.5836,1.5792,1.5792,1.5792,1.5798,1.5715,1.5455,1.5208,1.5053,1.506,1.4601,1.4554,1.481,1.4565,1.4263,1.3885,1.3256,1.2581,1.1907,1.1299,1.087,1.0624,1.0558,1.0434,1.0304,1.0047,0.9923,0.9801,0.9609,0.9481,0.9478,0.9478,0.9478,0.9478,0.9478,0.9478,0.9478,0.9478,0.9411,0.9341,0.9148,0.8961,0.8835,0.8644,0.8514,0.8514,0.8401,0.8239,0.8125,0.7283,0.6429,0.5908,0.5135,0.4566,0.4001,0.3851,0.38,0.3764,0.378,0.3791,0.3732,0.3484,0.3525,0.286,0.0,0.0,0.0,0.0,0.0,0.0,0.0,0.0,0.0,-0.028,-0.0505,-0.0673,-0.0673,-0.0673,-0.0673,-0.0729,-0.0617,1.8467,1.8397,1.7897,1.7652,1.7691,1.7927,1.7639,1.7242,1.7757,1.8335,1.8643,1.8541,1.8226,1.7754,1.7358,1.7221,1.7427,1.7536,1.8281,1.7984,1.7508,1.7014,1.6622,1.65,1.6509,1.6528,1.6479,1.6479,1.6442,1.6287,1.6156,1.6019,1.5887,1.5836,1.5792,1.5792,1.5792,1.5792,1.5792,1.557,1.5263,1.4984,1.4814,1.4593,1.4385,1.4366,1.4373,1.4263,1.3945,1.3381,1.2704,1.2031,1.1421,1.0989,1.0621,1.0621,1.0558,1.0368,1.011,1.005,0.9926,0.967,0.9545,0.9481,0.9478,0.9478,0.9478,0.9478,0.9478,0.9478,0.9478,0.9481,0.9414,0.928,0.9148,0.8958,0.8708,0.8579,0.8392,0.8392,0.8049,0.8049,0.7854,0.6902,0.5965,0.559,0.5169,0.4628,0.4071,0.3977,0.3861,0.3878,0.3924,0.3947,0.3649,0.3114,0.3228,0.3563,0.0,0.0,0.0,0.0,0.0,0.0,0.0,0.0,0.0,-0.0561,-0.0729,-0.0785,-0.0841,-0.0841,-0.0897,-0.0897,-0.0897,1.8445,1.8325,1.7839,1.7642,1.7792,1.8303,1.8594,1.8631,1.8657,1.851,1.8238,1.8567,1.8344,1.7787,1.731,1.7179,1.7284,1.7067,1.7661,1.8071,1.7332,1.6802,1.6576,1.6525,1.6515,1.6528,1.6485,1.6436,1.6392,1.6231,1.6063,1.5881,1.5836,1.5792,1.5792,1.5792,1.5792,1.5792,1.5792,1.5443,1.5058,1.5015,1.4722,1.4488,1.4297,1.4423,1.4327,1.401,1.3636,1.3013,1.2278,1.1729,1.1303,1.0933,1.0681,1.0621,1.0621,1.0364,1.011,0.9986,0.9798,0.9606,0.9545,0.9478,0.9478,0.9478,0.9478,0.9478,0.9478,0.9478,0.9478,0.9481,0.9417,0.9283,0.9081,0.8894,0.8644,0.8457,0.8273,0.8005,0.7458,0.7258,0.7068,0.6336,0.5463,0.547,0.5066,0.447,0.4062,0.4136,0.4078,0.4006,0.4064,0.4087,0.3728,0.3298,0.2384,0.2591,0.0,0.0,0.0,0.0,0.0,0.0,0.0,0.0,0.0,-0.0561,-0.0841,-0.0897,-0.0897,-0.0897,-0.0897,-0.0897,-0.0897,1.8454,1.8336,1.7839,1.7476,1.7386,1.805,1.8495,1.8691,1.871,1.8815,1.9241,1.8992,1.8622,1.8511,1.8087,1.7693,1.7496,1.7427,1.7273,1.7222,1.7096,1.6795,1.66,1.6497,1.6528,1.6485,1.6436,1.6392,1.6349,1.6182,1.5963,1.5824,1.5792,1.5792,1.5792,1.5792,1.581,1.5802,1.582,1.5498,1.5202,1.5167,1.4879,1.4663,1.4413,1.4529,1.4382,1.3761,1.3325,1.27,1.1973,1.1428,1.0807,1.0684,1.0621,1.0621,1.0558,1.0428,1.0047,0.9916,0.9792,0.9542,0.9478,0.9478,0.9478,0.9478,0.9478,0.9478,0.9478,0.9478,0.9478,0.9481,0.9414,0.9215,0.9037,0.8758,0.8459,0.7871,0.7736,0.7386,0.6836,0.6734,0.648,0.5556,0.4877,0.503,0.4892,0.434,0.4038,0.411,0.4102,0.4084,0.3837,0.3719,0.4125,0.3894,0.2508,0.0,0.0,0.0,0.0,0.0,0.0,0.0,0.0,0.0,0.0,-0.0393,-0.0673,-0.0841,-0.0897,-0.0897,-0.0897,-0.0897,-0.0897,1.8287,1.8189,1.7763,1.7541,1.7541,1.7993,1.8333,1.852,1.8616,1.8852,1.8907,1.8731,1.851,1.812,1.7903,1.7578,1.6993,1.7089,1.7044,1.6882,1.682,1.6674,1.6558,1.6528,1.6528,1.6479,1.6436,1.6355,1.6262,1.6044,1.5875,1.583,1.5792,1.5792,1.5792,1.581,1.5802,1.5767,1.5718,1.5563,1.5439,1.5284,1.509,1.4856,1.4646,1.4569,1.4428,1.3748,1.2948,1.2389,1.1725,1.1059,1.0624,1.0621,1.0621,1.0621,1.0558,1.0364,1.011,0.9983,0.9792,0.9606,0.9484,0.9478,0.9478,0.9478,0.9478,0.9478,0.9478,0.9478,0.9478,0.9478,0.928,0.9145,0.8891,0.8632,0.7994,0.7276,0.6884,0.6591,0.6471,0.6426,0.5818,0.4829,0.4344,0.4614,0.461,0.4273,0.4007,0.4051,0.4027,0.3956,0.3559,0.3282,0.3675,0.3762,0.249,0.0,0.0,0.0,0.0,0.0,0.0,0.0,0.0,0.0,-0.0112,-0.0224,-0.0505,-0.0673,-0.0841,-0.0785,-0.0841,-0.0897,-0.0897,1.8061,1.7974,1.7666,1.756,1.7877,1.7972,1.7991,1.8076,1.8248,1.8261,1.787,1.7936,1.7776,1.759,1.7591,1.7321,1.7008,1.697,1.6941,1.6528,1.6571,1.6522,1.6522,1.6528,1.6528,1.6479,1.6392,1.6269,1.61,1.5969,1.5836,1.5792,1.5792,1.5792,1.5792,1.5653,1.5624,1.5705,1.5566,1.5395,1.5237,1.5154,1.5104,1.4799,1.4724,1.4656,1.4341,1.3545,1.2508,1.2143,1.1534,1.0811,1.0624,1.0621,1.0621,1.0621,1.0621,1.0364,1.011,0.9983,0.9838,0.9646,0.9499,0.9574,0.9619,0.9514,0.9487,0.9481,0.9478,0.9478,0.9478,0.9481,0.935,0.9274,0.9023,0.8634,0.7911,0.7198,0.6555,0.6264,0.6052,0.5929,0.541,0.4488,0.4291,0.4347,0.4337,0.4077,0.3887,0.3886,0.3737,0.3677,0.3502,0.3058,0.2592,0.2559,0.2064,0.0,0.0,0.0,0.0,0.0,0.0,0.0,0.0,0.0,-0.0112,-0.028,-0.0449,-0.0729,-0.0841,-0.0729,-0.0729,-0.0841,-0.0897,1.8027,1.7917,1.7167,1.6883,1.6947,1.7013,1.6811,1.6442,1.6953,1.7337,1.7529,1.7439,1.7391,1.7355,1.7483,1.728,1.7033,1.6841,1.6957,1.6693,1.6528,1.6528,1.6528,1.6528,1.6528,1.6442,1.6312,1.6138,1.5969,1.5836,1.5792,1.5792,1.5792,1.5792,1.5798,1.5576,1.5423,1.5582,1.5225,1.5241,1.5344,1.5259,1.5204,1.5017,1.4902,1.4715,1.4346,1.3795,1.3,1.2451,1.1725,1.1118,1.0628,1.0621,1.0621,1.0621,1.0561,1.0381,1.0219,1.0046,0.9974,0.9779,0.9753,0.9814,0.9805,0.9607,0.9511,0.9511,0.9511,0.952,0.9526,0.9532,0.9415,0.9305,0.9199,0.8536,0.7928,0.714,0.6334,0.5994,0.5706,0.5372,0.4982,0.4545,0.4346,0.4236,0.4228,0.4031,0.3593,0.3466,0.322,0.3215,0.3442,0.3053,0.0,0.0,0.0,0.0,0.0,0.0,0.0,0.0,0.0,0.0,0.0,-0.0283,-0.028,-0.028,-0.0449,-0.0729,-0.0841,-0.0785,-0.0785,-0.0897,-0.0897,1.7577,1.7718,1.706,1.6727,1.6606,1.6506,1.6273,1.6061,1.6203,1.6442,1.6729,1.6781,1.6812,1.6824,1.6943,1.6954,1.6654,1.6693,1.6638,1.6532,1.6528,1.6528,1.6528,1.6528,1.6528,1.6442,1.6275,1.6106,1.5836,1.5792,1.5792,1.5792,1.5792,1.5792,1.5709,1.5364,1.5202,1.5536,1.4924,1.4973,1.5351,1.5389,1.5293,1.5108,1.497,1.4838,1.4286,1.3739,1.3,1.2266,1.1538,1.1055,1.0624,1.0621,1.0621,1.0621,1.0571,1.0554,1.037,1.0247,1.0171,1.0045,1.0059,1.0273,0.9937,0.9784,0.991,0.9916,0.9916,0.9922,0.9925,0.9928,0.9518,0.9228,0.9101,0.8659,0.7985,0.725,0.6496,0.6032,0.6088,0.6505,0.5792,0.4577,0.4441,0.4289,0.4212,0.4177,0.3783,0.3345,0.3027,0.2797,0.3108,0.0,0.0,0.0,0.0,0.0,0.0,0.0,0.0,0.0,0.0,-0.0346,-0.0574,-0.0621,-0.0617,-0.0449,-0.0505,-0.0785,-0.0841,-0.0841,-0.0897,-0.0897,-0.0897,1.7118,1.7446,1.706,1.6763,1.6543,1.6281,1.6136,1.61,1.5921,1.5763,1.581,1.6262,1.5948,1.5795,1.5777,1.5803,1.5943,1.6241,1.6284,1.6415,1.6522,1.6528,1.6528,1.6528,1.6485,1.6399,1.6275,1.6063,1.5836,1.5792,1.5792,1.5742,1.5742,1.5703,1.5513,1.5285,1.5032,1.4998,1.4733,1.4687,1.4977,1.5352,1.5221,1.5138,1.5093,1.4907,1.435,1.3614,1.2761,1.2027,1.1417,1.0867,1.0621,1.0621,1.0621,1.0628,1.0658,1.0704,1.0637,1.0678,1.0514,1.0456,1.0582,1.0473,1.0202,1.0158,1.0284,1.0405,1.0405,1.0281,1.0281,1.0028,0.9536,0.9219,0.9026,0.8753,0.7966,0.724,0.6635,0.6032,0.6338,0.6877,0.6144,0.4907,0.4469,0.4385,0.4303,0.4334,0.4225,0.3843,0.343,0.2982,0.2834,0.0,0.0,0.0,0.0,0.0,0.0,0.0,0.0,0.0,0.0,-0.0751,-0.0917,-0.0849,-0.0733,-0.0565,-0.0676,-0.0841,-0.0841,-0.0897,-0.0897,-0.0897,-0.0897,1.7299,1.7093,1.6573,1.6313,1.6238,1.6004,1.5877,1.587,1.5835,1.5785,1.5778,1.5721,1.5668,1.5691,1.5482,1.5544,1.588,1.5982,1.6262,1.6489,1.649,1.6515,1.6528,1.6485,1.6399,1.6318,1.6188,1.605,1.5836,1.5798,1.5614,1.5328,1.5703,1.5379,1.4623,1.4496,1.4482,1.4422,1.42,1.4055,1.47,1.4943,1.5046,1.5047,1.5098,1.4907,1.4469,1.3803,1.313,1.2336,1.1358,1.0804,1.0621,1.0621,1.0621,1.0621,1.0718,1.084,1.0847,1.1043,1.0908,1.0759,1.0786,1.0743,1.052,1.0372,1.0559,1.0843,1.081,1.0563,1.0364,0.9879,0.942,0.9411,0.9317,0.8682,0.7955,0.7199,0.6513,0.6122,0.6052,0.6174,0.5967,0.5014,0.4455,0.4386,0.441,0.4455,0.4421,0.4137,0.3836,0.3368,0.2857,0.0,0.0,0.0,0.0,0.0,0.0,0.0,0.0,0.0,0.0,0.0,-0.0924,-0.0912,-0.0796,-0.0683,-0.0732,-0.0841,-0.0897,-0.0897,-0.0897,-0.0897,-0.0897]}]]